[[{"header":{"parameterUnit":"m.s-1","parameterCategory":1,"la1":31.0,"la2":29.5877,"lo1":-88.7671,"lo2":-86.6584,"dy":0.0162,"dx":0.0185,"nx":115,"ny":88,"refTime":"2023-04-23T00:00:00:Z","depth":0,"parameterNumber":2,"parameterNumberName":"U-component_of_WINDS"},"data":[0.0,0.0,0.0,0.0,0.0,0.0,0.0,0.0,0.0,0.0,0.0,0.0,0.0,0.0,0.0,0.0,0.0,0.0,0.0,0.0,0.0,0.0,0.0,0.0,0.0,0.0,0.0,0.0,0.0,0.0,0.0,0.0,0.0,0.0,0.0,0.0,0.0,0.0,0.0,0.0,0.0,0.0,0.0,0.0,0.0,0.0,0.0,0.0,0.0,0.0,0.0,0.0,0.0,0.0,0.0,0.0,0.0,0.0,0.0,0.0,0.0,0.0,0.0,0.0,0.0,0.0,0.0,0.0,0.0,0.0,0.0,0.0,0.0,0.0,0.0,0.0,0.0,0.0,0.0,0.0,0.0,0.0,0.0,0.0,0.0,0.0,0.0,0.0,0.0,0.0,0.0,0.0,0.0,0.0,0.0,0.0,0.0,0.0,0.0,0.0,0.0,0.0,0.0,0.0,0.0,0.0,0.0,0.0,0.0,0.0,0.0,0.0,0.0,0.0,0.0,0.0,0.0,0.0,0.0,0.0,0.0,0.0,0.0,0.0,0.0,0.0,0.0,0.0,0.0,0.0,0.0,0.0,0.0,0.0,0.0,0.0,0.0,0.0,0.0,0.0,0.0,0.0,0.0,0.0,0.0,0.0,0.0,0.0,0.0,0.0,0.0,0.0,0.0,0.0,0.0,0.0,0.0,0.0,0.0,0.0,0.0,0.0,0.0,0.0,0.0,0.0,0.0,0.0,0.0,0.0,0.0,0.0,0.0,0.0,0.0,0.0,0.0,0.0,0.0,0.0,0.0,0.0,0.0,0.0,0.0,0.0,0.0,0.0,0.0,0.0,0.0,0.0,0.0,0.0,0.0,0.0,0.0,0.0,0.0,0.0,0.0,0.0,0.0,0.0,0.0,0.0,0.0,0.0,0.0,0.0,0.0,0.0,0.0,0.0,0.0,0.0,0.0,0.0,0.0,0.0,0.0,0.0,0.0,0.0,0.0,0.0,0.0,0.0,0.0,0.0,0.0,0.0,0.0,0.0,0.0,0.0,0.0,0.0,0.0,0.0,0.0,0.0,0.0,0.0,0.0,0.0,0.0,0.0,0.0,0.0,0.0,0.0,0.0,0.0,0.0,0.0,0.0,0.0,0.0,0.0,0.0,0.0,0.0,0.0,0.0,0.0,0.0,0.0,0.0,0.0,0.0,0.0,0.0,0.0,0.0,0.0,0.0,0.0,0.0,0.0,0.0,0.0,0.0,0.0,0.0,0.0,0.0,0.0,0.0,0.0,0.0,0.0,0.0,0.0,0.0,0.0,0.0,0.0,0.0,0.0,0.0,0.0,0.0,0.0,0.0,0.0,0.0,0.0,0.0,0.0,0.0,0.0,0.0,0.0,0.0,0.0,0.0,0.0,0.0,0.0,0.0,0.0,0.0,0.0,0.0,0.0,0.0,0.0,0.0,0.0,0.0,0.0,0.0,0.0,0.0,0.0,0.0,0.0,0.0,0.0,0.0,0.0,0.0,0.0,0.0,0.0,0.0,0.0,0.0,0.0,0.0,0.0,0.0,0.0,0.0,0.0,0.0,0.0,0.0,0.0,0.0,0.0,0.0,0.0,0.0,0.0,0.0,0.0,0.0,0.0,0.0,0.0,0.0,0.0,0.0,0.0,0.0,0.0,0.0,0.0,0.0,0.0,0.0,0.0,0.0,0.0,0.0,0.0,0.0,0.0,0.0,0.0,0.0,0.0,0.0,0.0,0.0,0.0,0.0,0.0,0.0,0.0,0.0,0.0,0.0,0.0,0.0,0.0,0.0,0.0,0.0,0.0,0.0,0.0,0.0,0.0,0.0,0.0,0.0,0.0,0.0,0.0,0.0,0.0,0.0,0.0,0.0,0.0,0.0,0.0,0.0,0.0,0.0,0.0,0.0,0.0,0.0,0.0,0.0,0.0,0.0,0.0,0.0,0.0,0.0,0.0,0.0,0.0,0.0,0.0,0.0,0.0,0.0,0.0,0.0,0.0,0.0,0.0,0.0,0.0,0.0,0.0,0.0,0.0,0.0,0.0,0.0,0.0,0.0,0.0,0.0,0.0,0.0,0.0,0.0,0.0,0.0,0.0,0.0,0.0,0.0,0.0,0.0,0.0,0.0,0.0,0.0,0.0,0.0,0.0,0.0,0.0,0.0,0.0,0.0,0.0,0.0,0.0,0.0,0.0,0.0,0.0,0.0,0.0,0.0,0.0,0.0,0.0,0.0,0.0,0.0,0.0,0.0,0.0,0.0,0.0,0.0,0.0,0.0,0.0,0.0,0.0,0.0,0.0,0.0,0.0,0.0,0.0,0.0,0.0,0.0,0.0,0.0,0.0,0.0,0.0,0.0,0.0,0.0,0.0,0.0,0.0,0.0,0.0,0.0,0.0,0.0,0.0,0.0,0.0,0.0,0.0,0.0,0.0,0.0,0.0,0.0,0.0,0.0,0.0,0.0,0.0,0.0,0.0,0.0,0.0,0.0,0.0,0.0,0.0,0.0,0.0,0.0,0.0,0.0,0.0,0.0,0.0,0.0,0.0,0.0,0.0,0.0,0.0,0.0,0.0,0.0,0.0,0.0,0.0,0.0,0.0,0.0,0.0,0.0,0.0,0.0,0.0,0.0,0.0,0.0,0.0,0.0,0.0,0.0,0.0,0.0,0.0,0.0,0.0,0.0,0.0,0.0,0.0,0.0,0.0,0.0,0.0,0.0,0.0,0.0,0.0,0.0,0.0,0.0,0.0,0.0,0.0,0.0,0.0,0.0,0.0,0.0,0.0,0.0,0.0,0.0,0.0,0.0,0.0,0.0,0.0,0.0,0.0,0.0,0.0,0.0,0.0,0.0,0.0,0.0,0.0,0.0,0.0,0.0,0.0,0.0,0.0,0.0,0.0,0.0,0.0,0.0,0.0,0.0,0.0,0.0,0.0,0.0,0.0,0.0,0.0,0.0,0.0,0.0,0.0,0.0,0.0,0.0,0.0,0.0,0.0,0.0,0.0,0.0,0.0,0.0,0.0,0.0,0.0,0.0,0.0,0.0,0.0,0.0,0.0,0.0,0.0,0.0,0.0,0.0,0.0,0.0,0.0,0.0,0.0,0.0,0.0,0.0,0.0,0.0,0.0,0.0,0.0,0.0,0.0,0.0,0.0,0.0,0.0,0.0,0.0,0.0,0.0,0.0,0.0,0.0,0.0,0.0,0.0,0.0,0.0,0.0,0.0,0.0,0.0,0.0,0.0,0.0,0.0,0.0,0.0,0.0,0.0,0.0,0.0,0.0,0.0,0.0,0.0,0.0,0.0,0.0,0.0,0.0,0.0,0.0,0.0,0.0,0.0,0.0,0.0,0.0,0.0,0.0,0.0,0.0,0.0,0.0,0.0,0.0,0.0,0.0,0.0,0.0,0.0,0.0,0.0,0.0,0.0,0.0,0.0,0.0,0.0,0.0,0.0,0.0,0.0,0.0,0.0,0.0,0.0,0.0,0.0,0.0,0.0,0.0,0.0,0.0,0.0,0.0,0.0,0.0,0.0,0.0,0.0,0.0,0.0,0.0,0.0,0.0,0.0,0.0,0.0,0.0,0.0,0.0,0.0,0.0,0.0,0.0,0.0,0.0,0.0,0.0,0.0,0.0,0.0,0.0,0.0,0.0,0.0,0.0,0.0,0.0,0.0,0.0,0.0,0.0,0.0,0.0,0.0,0.0,0.0,0.0,0.0,0.0,0.0,0.0,0.0,0.0,0.0,0.0,0.0,0.0,0.0,0.0,0.0,0.0,0.0,0.0,0.0,0.0,0.0,0.0,0.0,0.0,0.0,0.0,0.0,0.0,0.0,0.0,0.0,0.0,0.0,0.0,0.0,0.0,0.0,0.0,0.0,0.0,0.0,0.0,0.0,0.0,0.0,0.0,0.0,0.0,0.0,0.0,0.0,0.0,0.0,0.0,0.0,0.0,0.0,0.0,0.0,0.0,0.0,0.0,0.0,0.0,0.0,0.0,0.0,0.0,0.0,0.0,0.0,0.0,0.0,0.0,0.0,0.0,0.0,0.0,0.0,0.0,0.0,0.0,0.0,0.0,0.0,0.0,0.0,0.0,0.0,0.0,0.0,0.0,0.0,0.0,0.0,0.0,0.0,0.0,0.0,0.0,0.0,0.0,0.0,0.0,0.0,0.0,0.0,0.0,0.0,0.0,0.0,0.0,0.0,0.0,0.0,0.0,0.0,0.0,0.0,0.0,0.0,0.0,0.0,-1.5782,0.0,0.0,0.0,0.0,0.0,0.0,0.0,0.0,0.0,0.0,0.0,0.0,0.0,0.0,0.0,0.0,0.0,0.0,0.0,0.0,0.0,0.0,0.0,0.0,0.0,0.0,0.0,0.0,0.0,0.0,0.0,0.0,0.0,0.0,0.0,0.0,0.0,0.0,0.0,0.0,0.0,0.0,0.0,0.0,0.0,0.0,0.0,0.0,0.0,0.0,0.0,0.0,0.0,0.0,0.0,0.0,0.0,0.0,0.0,0.0,0.0,0.0,0.0,0.0,0.0,0.0,0.0,0.0,0.0,0.0,0.0,0.0,0.0,0.0,0.0,0.0,0.0,0.0,0.0,0.0,0.0,0.0,0.0,0.0,0.0,0.0,0.0,0.0,0.0,0.0,0.0,0.0,0.0,0.0,0.0,0.0,0.0,0.0,0.0,0.0,0.0,0.0,0.0,0.0,0.0,0.0,0.0,0.0,0.0,0.0,-1.7801,-1.7571,-1.7395,-1.7112,-1.6685,0.0,0.0,0.0,0.0,0.0,0.0,0.0,0.0,0.0,0.0,0.0,0.0,0.0,0.0,0.0,0.0,0.0,0.0,0.0,0.0,0.0,0.0,0.0,0.0,0.0,0.0,0.0,0.0,0.0,0.0,0.0,0.0,0.0,0.0,0.0,0.0,0.0,0.0,0.0,0.0,0.0,0.0,0.0,0.0,0.0,0.0,0.0,0.0,0.0,0.0,0.0,0.0,0.0,0.0,0.0,0.0,0.0,0.0,0.0,0.0,0.0,0.0,0.0,0.0,0.0,0.0,0.0,0.0,0.0,0.0,0.0,0.0,0.0,0.0,0.0,0.0,0.0,0.0,0.0,0.0,0.0,0.0,0.0,0.0,0.0,0.0,0.0,0.0,0.0,0.0,0.0,0.0,0.0,0.0,0.0,0.0,0.0,0.0,0.0,0.0,0.0,0.0,0.0,0.0,0.0,0.0,0.0,0.0,0.0,0.0,0.0,0.0,-1.8364,-1.7955,-1.7562,0.0,0.0,0.0,0.0,0.0,0.0,0.0,0.0,0.0,0.0,0.0,0.0,0.0,0.0,0.0,0.0,0.0,0.0,0.0,0.0,0.0,0.0,0.0,0.0,0.0,0.0,0.0,0.0,0.0,0.0,0.0,0.0,0.0,0.0,0.0,0.0,0.0,0.0,0.0,0.0,0.0,0.0,0.0,0.0,0.0,0.0,0.0,0.0,0.0,0.0,0.0,0.0,0.0,0.0,0.0,0.0,0.0,0.0,0.0,0.0,0.0,0.0,0.0,0.0,0.0,0.0,0.0,0.0,0.0,0.0,0.0,0.0,0.0,0.0,0.0,0.0,0.0,0.0,0.0,0.0,0.0,0.0,0.0,0.0,0.0,0.0,0.0,0.0,0.0,0.0,0.0,0.0,0.0,0.0,0.0,0.0,0.0,0.0,0.0,0.0,0.0,0.0,0.0,0.0,0.0,0.0,0.0,0.0,0.0,0.0,-1.918,-1.9142,-1.9545,0.0,-1.8114,0.0,0.0,0.0,0.0,0.0,0.0,0.0,0.0,0.0,0.0,0.0,0.0,0.0,0.0,0.0,0.0,0.0,0.0,0.0,0.0,0.0,0.0,0.0,0.0,0.0,0.0,0.0,0.0,0.0,0.0,0.0,0.0,0.0,0.0,0.0,0.0,0.0,0.0,0.0,0.0,0.0,0.0,0.0,0.0,0.0,0.0,0.0,0.0,0.0,0.0,0.0,0.0,0.0,0.0,0.0,0.0,0.0,0.0,0.0,0.0,0.0,0.0,0.0,0.0,0.0,0.0,0.0,0.0,0.0,0.0,0.0,0.0,0.0,0.0,0.0,0.0,0.0,0.0,0.0,0.0,0.0,0.0,0.0,0.0,0.0,0.0,0.0,0.0,0.0,0.0,0.0,0.0,0.0,0.0,0.0,0.0,0.0,0.0,0.0,0.0,0.0,0.0,0.0,0.0,0.0,0.0,0.0,0.0,0.0,0.0,-2.0097,-2.0374,-2.0362,-1.9767,0.0,0.0,0.0,0.0,0.0,0.0,0.0,0.0,0.0,0.0,0.0,0.0,0.0,0.0,0.0,0.0,0.0,0.0,0.0,0.0,0.0,0.0,0.0,0.0,0.0,0.0,0.0,0.0,0.0,0.0,0.0,0.0,0.0,0.0,0.0,0.0,0.0,0.0,0.0,0.0,0.0,0.0,0.0,0.0,0.0,0.0,0.0,0.0,0.0,0.0,0.0,0.0,0.0,0.0,0.0,0.0,0.0,0.0,0.0,0.0,0.0,0.0,0.0,0.0,0.0,0.0,0.0,0.0,0.0,0.0,0.0,0.0,0.0,0.0,0.0,0.0,0.0,0.0,0.0,0.0,0.0,0.0,0.0,0.0,0.0,0.0,0.0,0.0,0.0,0.0,0.0,0.0,0.0,0.0,0.0,0.0,0.0,0.0,0.0,0.0,0.0,0.0,0.0,0.0,0.0,0.0,0.0,0.0,0.0,0.0,-2.0355,-2.0779,-2.1307,-2.0934,-2.0188,-1.9156,0.0,0.0,0.0,0.0,0.0,0.0,0.0,0.0,0.0,0.0,0.0,0.0,0.0,0.0,0.0,0.0,0.0,0.0,0.0,0.0,0.0,0.0,0.0,0.0,0.0,0.0,0.0,0.0,0.0,0.0,0.0,0.0,0.0,0.0,0.0,0.0,0.0,0.0,0.0,0.0,0.0,0.0,0.0,0.0,0.0,0.0,0.0,0.0,0.0,0.0,0.0,0.0,0.0,0.0,0.0,0.0,0.0,0.0,0.0,0.0,0.0,0.0,0.0,0.0,0.0,0.0,0.0,0.0,0.0,0.0,0.0,0.0,0.0,0.0,0.0,0.0,0.0,0.0,0.0,0.0,0.0,0.0,0.0,0.0,0.0,0.0,0.0,0.0,0.0,0.0,0.0,0.0,0.0,0.0,0.0,0.0,0.0,0.0,0.0,0.0,0.0,0.0,0.0,0.0,0.0,0.0,0.0,0.0,-2.0358,-2.0592,-2.106,-2.1742,-2.1204,-2.0605,0.0,0.0,0.0,0.0,0.0,0.0,0.0,0.0,0.0,0.0,0.0,0.0,0.0,0.0,0.0,0.0,0.0,0.0,0.0,0.0,0.0,0.0,0.0,0.0,0.0,0.0,0.0,0.0,0.0,0.0,0.0,0.0,0.0,0.0,0.0,0.0,0.0,0.0,0.0,0.0,0.0,0.0,0.0,0.0,0.0,0.0,0.0,0.0,0.0,0.0,0.0,0.0,0.0,0.0,0.0,0.0,0.0,0.0,0.0,0.0,0.0,0.0,0.0,0.0,0.0,0.0,0.0,0.0,0.0,0.0,0.0,0.0,0.0,0.0,0.0,0.0,0.0,0.0,0.0,0.0,0.0,0.0,0.0,0.0,0.0,0.0,0.0,0.0,0.0,0.0,0.0,0.0,0.0,0.0,0.0,0.0,0.0,0.0,0.0,0.0,0.0,0.0,0.0,0.0,0.0,0.0,0.0,0.0,0.0,-2.0988,-2.1372,-2.169,-2.2039,-2.1843,-2.1271,0.0,0.0,0.0,0.0,0.0,0.0,0.0,0.0,0.0,0.0,0.0,0.0,0.0,0.0,0.0,0.0,0.0,0.0,0.0,0.0,0.0,0.0,0.0,0.0,0.0,0.0,0.0,0.0,0.0,0.0,0.0,0.0,0.0,0.0,0.0,0.0,0.0,0.0,0.0,0.0,0.0,0.0,0.0,0.0,0.0,0.0,0.0,0.0,0.0,0.0,0.0,0.0,0.0,0.0,0.0,0.0,0.0,0.0,0.0,0.0,0.0,0.0,0.0,0.0,0.0,0.0,0.0,0.0,0.0,0.0,0.0,0.0,0.0,0.0,0.0,0.0,0.0,0.0,0.0,0.0,0.0,0.0,0.0,0.0,0.0,0.0,0.0,0.0,0.0,0.0,0.0,0.0,0.0,0.0,0.0,0.0,0.0,0.0,0.0,0.0,0.0,0.0,0.0,0.0,0.0,0.0,0.0,0.0,0.0,-2.1852,0.0,-2.257,-2.2503,-2.2479,-2.194,0.0,0.0,0.0,0.0,0.0,0.0,0.0,0.0,0.0,0.0,0.0,0.0,0.0,0.0,0.0,0.0,0.0,0.0,0.0,0.0,0.0,0.0,0.0,0.0,0.0,0.0,0.0,0.0,0.0,0.0,0.0,0.0,0.0,0.0,0.0,0.0,0.0,0.0,0.0,0.0,0.0,0.0,0.0,0.0,0.0,0.0,0.0,0.0,0.0,0.0,0.0,0.0,0.0,0.0,0.0,0.0,0.0,0.0,0.0,0.0,0.0,0.0,0.0,0.0,0.0,0.0,0.0,0.0,0.0,0.0,0.0,0.0,0.0,0.0,0.0,0.0,0.0,0.0,0.0,0.0,0.0,0.0,0.0,0.0,0.0,0.0,0.0,0.0,0.0,0.0,0.0,0.0,0.0,0.0,0.0,0.0,0.0,0.0,0.0,0.0,0.0,0.0,0.0,0.0,0.0,0.0,0.0,0.0,-2.1675,-2.2839,-2.3526,-2.3588,-2.3126,-2.3069,-2.2531,0.0,0.0,0.0,0.0,0.0,0.0,0.0,0.0,0.0,0.0,0.0,0.0,0.0,0.0,0.0,0.0,0.0,0.0,0.0,0.0,0.0,0.0,0.0,0.0,0.0,0.0,0.0,0.0,0.0,0.0,0.0,0.0,0.0,0.0,0.0,0.0,0.0,0.0,0.0,0.0,0.0,0.0,0.0,0.0,0.0,0.0,0.0,0.0,0.0,0.0,0.0,0.0,0.0,0.0,0.0,0.0,0.0,0.0,0.0,0.0,0.0,0.0,0.0,0.0,0.0,0.0,0.0,0.0,0.0,0.0,0.0,0.0,0.0,0.0,0.0,0.0,0.0,0.0,0.0,0.0,0.0,0.0,0.0,0.0,0.0,0.0,0.0,0.0,0.0,0.0,0.0,0.0,0.0,0.0,0.0,0.0,0.0,0.0,0.0,0.0,0.0,0.0,0.0,0.0,0.0,0.0,0.0,0.0,0.0,-2.3596,-2.3879,-2.3733,-2.314,-2.3097,-2.2545,0.0,0.0,0.0,0.0,0.0,0.0,0.0,0.0,0.0,0.0,0.0,0.0,0.0,0.0,0.0,0.0,0.0,0.0,0.0,0.0,0.0,0.0,0.0,0.0,0.0,0.0,0.0,0.0,0.0,0.0,0.0,0.0,0.0,0.0,0.0,0.0,0.0,0.0,0.0,0.0,0.0,0.0,0.0,0.0,0.0,0.0,0.0,0.0,0.0,0.0,0.0,0.0,0.0,0.0,0.0,0.0,0.0,0.0,0.0,0.0,0.0,0.0,0.0,0.0,0.0,0.0,0.0,0.0,0.0,0.0,0.0,0.0,0.0,0.0,0.0,0.0,0.0,0.0,0.0,0.0,0.0,0.0,0.0,0.0,0.0,0.0,0.0,0.0,0.0,0.0,0.0,0.0,0.0,0.0,0.0,0.0,0.0,0.0,0.0,0.0,0.0,0.0,0.0,0.0,0.0,0.0,0.0,0.0,0.0,-2.4651,-2.4729,-2.4472,-2.3814,-2.3575,-2.2995,-2.2025,0.0,0.0,0.0,0.0,0.0,0.0,0.0,0.0,0.0,0.0,0.0,0.0,0.0,0.0,0.0,0.0,0.0,0.0,0.0,0.0,0.0,0.0,0.0,0.0,0.0,0.0,0.0,0.0,0.0,0.0,0.0,0.0,0.0,0.0,0.0,0.0,0.0,0.0,0.0,0.0,0.0,0.0,0.0,0.0,0.0,0.0,0.0,0.0,0.0,0.0,0.0,0.0,0.0,0.0,0.0,0.0,0.0,0.0,0.0,0.0,0.0,0.0,0.0,0.0,0.0,0.0,0.0,0.0,0.0,0.0,0.0,0.0,0.0,0.0,0.0,0.0,0.0,0.0,0.0,0.0,0.0,0.0,0.0,0.0,0.0,0.0,0.0,0.0,0.0,0.0,0.0,0.0,0.0,0.0,0.0,0.0,0.0,0.0,0.0,0.0,0.0,0.0,0.0,0.0,0.0,0.0,0.0,0.0,-2.5936,-2.595,-2.5639,-2.4992,-2.4472,-2.3853,0.0,0.0,0.0,0.0,0.0,0.0,0.0,0.0,0.0,0.0,0.0,0.0,0.0,0.0,0.0,0.0,0.0,0.0,0.0,0.0,0.0,0.0,0.0,0.0,0.0,0.0,0.0,0.0,0.0,0.0,0.0,0.0,0.0,0.0,0.0,0.0,0.0,0.0,0.0,0.0,0.0,0.0,0.0,0.0,0.0,0.0,0.0,0.0,0.0,0.0,0.0,0.0,0.0,0.0,0.0,0.0,0.0,0.0,0.0,0.0,0.0,0.0,0.0,0.0,0.0,0.0,0.0,0.0,0.0,0.0,0.0,0.0,0.0,0.0,0.0,0.0,0.0,0.0,0.0,0.0,0.0,0.0,0.0,0.0,0.0,0.0,0.0,0.0,0.0,0.0,0.0,0.0,0.0,0.0,0.0,0.0,0.0,0.0,0.0,0.0,0.0,0.0,0.0,0.0,0.0,0.0,0.0,0.0,0.0,-2.654,-2.6568,-2.6062,-2.5063,-2.5288,-2.4685,0.0,0.0,0.0,0.0,0.0,0.0,0.0,0.0,0.0,0.0,0.0,0.0,0.0,0.0,0.0,0.0,0.0,0.0,0.0,0.0,0.0,0.0,0.0,0.0,0.0,0.0,0.0,0.0,0.0,0.0,0.0,0.0,0.0,0.0,0.0,0.0,0.0,0.0,0.0,0.0,0.0,0.0,0.0,0.0,0.0,0.0,0.0,0.0,0.0,0.0,0.0,0.0,0.0,0.0,0.0,0.0,0.0,0.0,0.0,0.0,0.0,0.0,0.0,0.0,0.0,0.0,0.0,0.0,0.0,0.0,0.0,0.0,0.0,0.0,0.0,0.0,0.0,0.0,0.0,0.0,0.0,0.0,0.0,0.0,0.0,0.0,0.0,0.0,0.0,0.0,0.0,0.0,0.0,0.0,0.0,0.0,0.0,0.0,0.0,0.0,0.0,0.0,0.0,0.0,0.0,0.0,0.0,0.0,-2.6062,-2.6413,-2.668,-2.6343,-2.5388,-2.5738,-2.5261,0.0,0.0,0.0,0.0,0.0,0.0,0.0,0.0,0.0,0.0,0.0,0.0,0.0,0.0,0.0,0.0,0.0,0.0,0.0,0.0,0.0,0.0,0.0,0.0,0.0,0.0,0.0,0.0,0.0,0.0,0.0,0.0,0.0,0.0,0.0,0.0,0.0,0.0,0.0,0.0,0.0,0.0,0.0,0.0,0.0,0.0,0.0,0.0,0.0,0.0,0.0,0.0,0.0,0.0,0.0,0.0,0.0,0.0,0.0,0.0,0.0,0.0,0.0,0.0,0.0,0.0,0.0,0.0,0.0,0.0,0.0,0.0,0.0,0.0,0.0,0.0,0.0,0.0,0.0,0.0,0.0,0.0,0.0,0.0,0.0,0.0,0.0,0.0,0.0,0.0,0.0,0.0,0.0,0.0,0.0,0.0,0.0,0.0,0.0,0.0,0.0,0.0,0.0,0.0,0.0,0.0,0.0,0.0,-2.5921,-2.6006,-2.6526,-2.6554,-2.602,-2.5992,-2.5669,0.0,0.0,0.0,0.0,0.0,0.0,0.0,0.0,0.0,0.0,0.0,0.0,0.0,0.0,0.0,0.0,0.0,0.0,0.0,0.0,0.0,0.0,0.0,0.0,0.0,0.0,0.0,0.0,0.0,0.0,0.0,0.0,0.0,0.0,0.0,0.0,0.0,0.0,0.0,0.0,0.0,0.0,0.0,0.0,0.0,0.0,0.0,0.0,0.0,0.0,0.0,0.0,0.0,0.0,0.0,0.0,0.0,0.0,0.0,0.0,0.0,0.0,0.0,0.0,0.0,0.0,0.0,0.0,0.0,0.0,0.0,0.0,0.0,0.0,0.0,0.0,0.0,0.0,0.0,0.0,0.0,0.0,0.0,0.0,0.0,0.0,0.0,0.0,0.0,0.0,0.0,0.0,0.0,0.0,0.0,0.0,0.0,0.0,0.0,0.0,0.0,0.0,0.0,0.0,0.0,0.0,0.0,0.0,-2.6132,-2.6596,-2.6708,-2.675,-2.6624,-2.661,-2.609,0.0,0.0,0.0,0.0,0.0,0.0,0.0,0.0,0.0,0.0,0.0,0.0,0.0,0.0,0.0,0.0,0.0,0.0,0.0,0.0,0.0,0.0,0.0,0.0,0.0,0.0,0.0,0.0,0.0,0.0,0.0,0.0,0.0,0.0,0.0,0.0,0.0,0.0,0.0,0.0,0.0,0.0,0.0,0.0,0.0,0.0,0.0,0.0,-2.661,0.0,0.0,0.0,0.0,0.0,0.0,0.0,0.0,0.0,0.0,0.0,0.0,0.0,0.0,0.0,0.0,0.0,0.0,0.0,0.0,0.0,0.0,0.0,0.0,0.0,0.0,0.0,0.0,0.0,0.0,0.0,0.0,0.0,0.0,0.0,0.0,0.0,0.0,0.0,0.0,0.0,0.0,0.0,0.0,0.0,0.0,0.0,0.0,0.0,0.0,0.0,0.0,0.0,0.0,0.0,0.0,0.0,0.0,0.0,-2.6329,-2.72,-2.668,-2.6512,-2.675,-2.6526,-2.6076,0.0,0.0,0.0,0.0,0.0,0.0,0.0,0.0,0.0,0.0,0.0,0.0,0.0,0.0,0.0,0.0,0.0,0.0,0.0,0.0,0.0,0.0,0.0,0.0,0.0,0.0,0.0,0.0,0.0,0.0,0.0,0.0,0.0,0.0,0.0,0.0,0.0,0.0,0.0,0.0,0.0,0.0,0.0,0.0,0.0,0.0,0.0,0.0,0.0,0.0,0.0,0.0,0.0,0.0,0.0,0.0,0.0,0.0,0.0,0.0,0.0,0.0,0.0,0.0,0.0,0.0,0.0,0.0,0.0,0.0,0.0,0.0,0.0,0.0,0.0,0.0,0.0,0.0,0.0,0.0,0.0,0.0,0.0,0.0,0.0,0.0,0.0,0.0,0.0,0.0,0.0,0.0,0.0,0.0,0.0,0.0,0.0,0.0,0.0,0.0,0.0,0.0,0.0,0.0,0.0,0.0,0.0,-2.6273,-2.6596,-2.7707,-2.6722,-2.6427,-2.6933,-2.6455,-2.6132,-2.602,0.0,0.0,0.0,0.0,0.0,0.0,0.0,0.0,0.0,0.0,0.0,0.0,0.0,0.0,0.0,0.0,0.0,0.0,0.0,0.0,0.0,0.0,0.0,0.0,0.0,0.0,0.0,0.0,0.0,0.0,0.0,0.0,0.0,0.0,0.0,0.0,0.0,0.0,-2.8154,-2.8563,0.0,0.0,0.0,0.0,0.0,0.0,0.0,0.0,-2.7932,0.0,0.0,0.0,0.0,0.0,0.0,0.0,0.0,0.0,0.0,0.0,0.0,0.0,0.0,0.0,0.0,0.0,0.0,0.0,0.0,0.0,0.0,0.0,0.0,0.0,0.0,0.0,0.0,0.0,0.0,0.0,0.0,0.0,0.0,0.0,0.0,0.0,0.0,0.0,0.0,0.0,0.0,0.0,0.0,0.0,0.0,0.0,0.0,0.0,0.0,0.0,0.0,0.0,0.0,0.0,0.0,-2.6637,-2.6525,-2.6917,-2.7777,-2.7608,-2.7552,-2.7651,-2.7552,-2.7243,-2.668,0.0,0.0,0.0,0.0,0.0,0.0,0.0,0.0,0.0,0.0,0.0,0.0,0.0,0.0,0.0,0.0,0.0,0.0,0.0,0.0,0.0,0.0,0.0,0.0,0.0,0.0,0.0,0.0,0.0,0.0,0.0,0.0,0.0,0.0,0.0,0.0,0.0,0.0,0.0,-2.9715,-2.9645,0.0,0.0,0.0,0.0,0.0,0.0,0.0,0.0,-2.796,0.0,0.0,0.0,0.0,0.0,0.0,0.0,0.0,0.0,0.0,0.0,0.0,0.0,0.0,0.0,0.0,0.0,0.0,0.0,0.0,0.0,0.0,0.0,0.0,0.0,0.0,0.0,0.0,0.0,0.0,0.0,0.0,0.0,0.0,0.0,0.0,0.0,0.0,0.0,0.0,0.0,0.0,0.0,0.0,0.0,0.0,0.0,0.0,0.0,0.0,0.0,0.0,0.0,0.0,0.0,-2.6868,-2.6661,-2.7222,-2.8647,-2.8143,-2.796,-2.8269,-2.7856,-2.7351,0.0,0.0,0.0,0.0,0.0,0.0,0.0,0.0,0.0,0.0,0.0,0.0,0.0,0.0,0.0,0.0,0.0,0.0,0.0,0.0,0.0,0.0,0.0,0.0,0.0,0.0,0.0,0.0,0.0,0.0,0.0,0.0,0.0,0.0,0.0,0.0,0.0,0.0,0.0,0.0,-3.0066,-3.0193,-3.0455,0.0,0.0,0.0,0.0,0.0,0.0,-2.9125,-2.8717,0.0,0.0,0.0,0.0,0.0,0.0,0.0,0.0,0.0,0.0,0.0,0.0,0.0,0.0,0.0,0.0,0.0,0.0,0.0,0.0,0.0,0.0,0.0,0.0,0.0,0.0,0.0,0.0,0.0,0.0,0.0,0.0,0.0,0.0,0.0,0.0,0.0,0.0,0.0,0.0,0.0,0.0,0.0,0.0,0.0,0.0,0.0,0.0,0.0,0.0,0.0,0.0,0.0,0.0,0.0,-2.6851,-2.6535,-2.7319,-2.9244,-2.8451,-2.8172,-2.8647,-2.8079,-2.7393,0.0,0.0,0.0,0.0,0.0,0.0,0.0,0.0,0.0,0.0,0.0,0.0,0.0,0.0,0.0,0.0,0.0,0.0,0.0,0.0,0.0,0.0,0.0,0.0,0.0,0.0,0.0,0.0,0.0,0.0,0.0,0.0,0.0,0.0,0.0,0.0,0.0,0.0,0.0,0.0,0.0,-3.0582,-3.0834,-3.0652,0.0,0.0,0.0,0.0,-2.974,-2.9785,0.0,0.0,0.0,0.0,0.0,0.0,0.0,0.0,0.0,0.0,0.0,0.0,0.0,0.0,0.0,0.0,0.0,0.0,0.0,0.0,0.0,0.0,0.0,0.0,0.0,0.0,0.0,0.0,0.0,0.0,0.0,0.0,0.0,0.0,0.0,0.0,0.0,0.0,0.0,0.0,0.0,0.0,0.0,0.0,0.0,0.0,0.0,0.0,0.0,0.0,0.0,0.0,0.0,0.0,0.0,0.0,-2.567,-2.5922,-2.6901,-2.8515,-2.8498,-2.847,-2.8525,-2.8579,-2.7894,0.0,0.0,0.0,0.0,0.0,0.0,0.0,0.0,0.0,0.0,0.0,0.0,0.0,0.0,0.0,0.0,0.0,0.0,0.0,0.0,0.0,0.0,0.0,0.0,0.0,0.0,0.0,0.0,0.0,0.0,0.0,0.0,0.0,0.0,0.0,0.0,0.0,0.0,0.0,0.0,0.0,-3.076,-3.1999,-3.1199,-3.0498,0.0,0.0,-2.9813,-3.0301,-3.0385,0.0,0.0,0.0,0.0,0.0,0.0,0.0,0.0,0.0,0.0,0.0,0.0,0.0,0.0,0.0,0.0,0.0,0.0,0.0,0.0,0.0,0.0,0.0,0.0,0.0,0.0,0.0,0.0,0.0,0.0,0.0,0.0,0.0,0.0,0.0,0.0,0.0,0.0,0.0,0.0,0.0,0.0,0.0,0.0,0.0,0.0,0.0,0.0,0.0,0.0,0.0,0.0,0.0,0.0,0.0,-2.4016,-2.5071,-2.5501,-2.6332,-2.7538,-2.771,-2.7762,-2.7776,-2.7822,-2.7386,0.0,0.0,0.0,0.0,0.0,0.0,0.0,0.0,0.0,0.0,0.0,0.0,0.0,0.0,0.0,0.0,0.0,0.0,0.0,0.0,0.0,0.0,0.0,0.0,0.0,0.0,0.0,0.0,0.0,0.0,0.0,0.0,0.0,0.0,0.0,0.0,0.0,0.0,0.0,0.0,0.0,0.0,-3.1902,-3.1786,0.0,0.0,0.0,-3.0769,-3.1036,0.0,0.0,0.0,0.0,0.0,0.0,0.0,0.0,0.0,0.0,0.0,0.0,0.0,0.0,0.0,0.0,0.0,0.0,0.0,0.0,0.0,0.0,0.0,0.0,0.0,0.0,0.0,0.0,0.0,0.0,0.0,0.0,0.0,0.0,0.0,0.0,0.0,0.0,0.0,0.0,0.0,0.0,0.0,0.0,0.0,0.0,0.0,0.0,0.0,0.0,0.0,0.0,0.0,0.0,0.0,0.0,0.0,-2.4785,-2.5216,-2.5918,-2.6971,-2.7147,-2.7216,-2.7228,-2.7288,0.0,0.0,0.0,0.0,0.0,0.0,0.0,0.0,0.0,0.0,0.0,0.0,0.0,0.0,0.0,0.0,0.0,0.0,0.0,0.0,0.0,0.0,0.0,0.0,0.0,0.0,0.0,-2.3661,0.0,0.0,0.0,0.0,0.0,0.0,0.0,0.0,0.0,0.0,0.0,0.0,0.0,0.0,-3.1047,-3.2046,-3.2172,-3.2278,0.0,0.0,-3.1553,-3.1499,-3.0965,-3.0498,0.0,0.0,0.0,0.0,0.0,0.0,0.0,0.0,0.0,0.0,0.0,0.0,0.0,0.0,0.0,0.0,0.0,0.0,0.0,0.0,0.0,0.0,0.0,0.0,0.0,0.0,0.0,0.0,0.0,0.0,0.0,0.0,0.0,0.0,0.0,0.0,0.0,0.0,0.0,0.0,0.0,0.0,0.0,0.0,0.0,0.0,0.0,0.0,0.0,0.0,0.0,0.0,0.0,0.0,-2.4003,-2.4684,-2.5045,-2.5883,-2.7189,-2.7299,-2.7299,-2.7299,-2.7459,-2.6857,0.0,0.0,0.0,0.0,0.0,0.0,0.0,0.0,0.0,0.0,0.0,0.0,0.0,0.0,0.0,0.0,0.0,0.0,0.0,0.0,0.0,0.0,0.0,0.0,0.0,0.0,0.0,0.0,0.0,0.0,0.0,0.0,0.0,0.0,0.0,0.0,0.0,0.0,0.0,0.0,0.0,-3.0814,-3.2909,-3.2216,-3.1901,0.0,-3.241,-3.1709,-3.1503,-3.2336,-3.2414,-3.0601,0.0,0.0,0.0,0.0,0.0,0.0,0.0,0.0,0.0,0.0,0.0,0.0,0.0,0.0,0.0,0.0,0.0,0.0,0.0,0.0,0.0,0.0,0.0,0.0,0.0,0.0,0.0,0.0,0.0,0.0,0.0,0.0,0.0,0.0,0.0,0.0,0.0,0.0,0.0,0.0,0.0,0.0,0.0,0.0,0.0,0.0,0.0,0.0,0.0,0.0,0.0,0.0,0.0,-2.3695,-2.4406,-2.4819,-2.5417,-2.6259,-2.6446,-2.6472,-2.6484,-2.6699,-2.6365,0.0,0.0,0.0,0.0,0.0,0.0,0.0,0.0,0.0,0.0,0.0,0.0,0.0,0.0,0.0,0.0,0.0,0.0,0.0,0.0,0.0,0.0,0.0,0.0,0.0,0.0,0.0,0.0,-2.4073,-2.4223,-2.3709,0.0,0.0,0.0,0.0,0.0,0.0,0.0,0.0,0.0,0.0,-2.9703,-3.089,-3.1124,0.0,0.0,-3.1449,-3.1281,-3.0842,-3.0842,-3.0649,-2.9943,-2.9361,0.0,0.0,0.0,0.0,0.0,0.0,0.0,0.0,0.0,0.0,0.0,0.0,0.0,0.0,0.0,0.0,0.0,0.0,0.0,0.0,0.0,0.0,0.0,0.0,0.0,0.0,0.0,0.0,0.0,0.0,0.0,0.0,0.0,0.0,0.0,0.0,0.0,0.0,0.0,0.0,0.0,0.0,0.0,0.0,0.0,0.0,0.0,0.0,0.0,0.0,0.0,0.0,-2.3668,-2.4451,-2.4906,-2.5486,-2.6152,-2.6281,-2.6359,-2.6371,-2.6516,-2.6267,0.0,0.0,0.0,0.0,0.0,0.0,0.0,0.0,0.0,0.0,0.0,0.0,0.0,0.0,0.0,0.0,0.0,0.0,0.0,0.0,0.0,0.0,0.0,0.0,0.0,0.0,0.0,0.0,-2.3961,-2.4045,-2.345,0.0,0.0,0.0,0.0,0.0,0.0,0.0,0.0,0.0,0.0,-2.8907,-2.9789,-3.0229,-3.0476,-3.0355,-3.0477,-3.0411,-2.9994,-2.9595,-2.9295,-2.9046,0.0,0.0,0.0,0.0,0.0,0.0,0.0,0.0,0.0,0.0,0.0,0.0,0.0,0.0,0.0,0.0,0.0,0.0,0.0,0.0,0.0,0.0,0.0,0.0,0.0,0.0,0.0,-2.1191,0.0,0.0,-2.0645,0.0,0.0,0.0,0.0,0.0,0.0,0.0,0.0,0.0,0.0,0.0,0.0,0.0,0.0,0.0,0.0,0.0,0.0,0.0,0.0,0.0,0.0,-2.4052,-2.5054,-2.5399,-2.6135,-2.7058,-2.7156,-2.7092,-2.7092,-2.7144,-2.6674,-2.5677,0.0,0.0,0.0,0.0,0.0,0.0,0.0,0.0,0.0,0.0,0.0,0.0,0.0,0.0,0.0,0.0,0.0,0.0,0.0,0.0,0.0,0.0,0.0,0.0,0.0,0.0,-2.2729,-2.244,-2.2263,0.0,0.0,0.0,0.0,0.0,0.0,0.0,0.0,0.0,-2.6285,-2.736,-2.8619,-3.0012,-2.9731,-2.9548,-3.0241,-2.9705,-2.9156,-2.9025,-2.9157,-2.8974,0.0,0.0,0.0,0.0,0.0,0.0,0.0,0.0,0.0,0.0,0.0,0.0,0.0,0.0,0.0,0.0,0.0,0.0,0.0,0.0,0.0,0.0,0.0,0.0,0.0,0.0,0.0,-2.081,-2.0941,0.0,0.0,0.0,0.0,0.0,0.0,0.0,0.0,0.0,0.0,0.0,-2.0208,-2.0141,0.0,0.0,0.0,0.0,0.0,0.0,0.0,0.0,0.0,0.0,0.0,0.0,-2.3041,-2.3942,-2.4234,-2.4705,-2.5368,-2.539,-2.5401,-2.5432,-2.5401,-2.5079,-2.4395,0.0,0.0,0.0,0.0,0.0,0.0,0.0,0.0,0.0,0.0,0.0,0.0,0.0,0.0,0.0,0.0,0.0,0.0,0.0,0.0,0.0,0.0,0.0,0.0,0.0,-2.2685,0.0,0.0,0.0,0.0,0.0,0.0,0.0,0.0,0.0,0.0,-2.4397,-2.4904,-2.6027,-2.6812,-2.7499,-2.7976,-2.8286,-2.8404,0.0,0.0,0.0,0.0,0.0,0.0,0.0,0.0,0.0,0.0,0.0,0.0,0.0,0.0,-2.5569,-2.5695,-2.5473,-2.5423,-2.5971,0.0,0.0,0.0,0.0,0.0,0.0,0.0,0.0,0.0,0.0,0.0,0.0,0.0,0.0,-2.0953,-2.0822,-2.1005,0.0,0.0,0.0,0.0,0.0,0.0,0.0,0.0,-2.0765,-2.0695,-2.0563,-2.0527,-2.0368,-2.0202,-2.0018,-1.9873,0.0,0.0,0.0,0.0,0.0,0.0,0.0,0.0,-2.2271,-2.3166,-2.3505,-2.397,-2.4467,-2.4488,-2.4488,-2.4488,-2.4333,-2.4063,-2.3701,-2.2879,-2.238,0.0,0.0,0.0,0.0,0.0,0.0,0.0,0.0,0.0,0.0,0.0,0.0,0.0,0.0,0.0,0.0,0.0,0.0,0.0,0.0,0.0,0.0,0.0,-2.233,0.0,0.0,0.0,0.0,0.0,0.0,0.0,0.0,0.0,-2.3662,-2.3891,-2.4298,-2.5279,-2.6132,-2.6633,-2.6561,0.0,0.0,0.0,0.0,0.0,0.0,0.0,-2.6372,-2.5768,-2.5817,-2.6009,-2.6334,-2.6177,-2.6008,-2.602,0.0,0.0,-2.5485,-2.5315,-2.5293,-2.5819,-2.5947,-2.6003,-2.599,-2.6171,-2.6307,0.0,0.0,0.0,0.0,-2.0772,0.0,0.0,0.0,-2.1395,-2.1098,0.0,-2.1229,0.0,0.0,0.0,0.0,-2.0624,-2.0614,0.0,0.0,-2.1595,-2.17,-2.1283,-2.1505,-2.1406,-2.0844,-2.0497,-2.0129,-1.9761,-1.9998,0.0,0.0,0.0,0.0,0.0,0.0,-2.1815,-2.2718,-2.3304,-2.3865,-2.4349,-2.437,-2.4402,-2.436,-2.3885,-2.3607,-2.3618,-2.2775,-2.2349,-2.2349,-2.1798,0.0,0.0,0.0,0.0,0.0,0.0,0.0,0.0,0.0,0.0,0.0,0.0,0.0,0.0,0.0,0.0,0.0,0.0,0.0,0.0,-2.1457,0.0,0.0,0.0,0.0,0.0,0.0,0.0,0.0,0.0,-2.1698,-2.2603,-2.3309,-2.3867,-2.4116,0.0,0.0,0.0,0.0,-2.6517,-2.5691,-2.6023,-2.6027,-2.5138,-2.5698,-2.6042,-2.5326,0.0,0.0,-2.602,-2.5742,-2.5564,-2.5528,-2.502,-2.4718,-2.5406,-2.5247,-2.5053,-2.5231,-2.5393,-2.5428,-2.5497,-2.5973,-2.6348,-2.1188,0.0,0.0,0.0,0.0,-2.0802,-2.0636,-2.0744,-2.0205,-1.9718,-1.9444,-1.96,0.0,0.0,0.0,0.0,0.0,0.0,-1.8911,-1.9016,-1.9156,-1.9154,-1.9056,-1.9941,-2.028,-2.0143,-2.0752,-2.09,-2.0557,-2.062,-2.0315,-1.9651,0.0,0.0,0.0,0.0,-2.0964,-2.1558,-2.1883,-2.2221,-2.2511,-2.2511,-2.2511,-2.2511,-2.2353,-2.2277,-2.2286,-2.1759,-2.1532,-2.167,-2.1271,0.0,0.0,0.0,0.0,0.0,0.0,0.0,0.0,0.0,0.0,0.0,0.0,0.0,0.0,0.0,0.0,0.0,0.0,0.0,-2.124,-2.1,-2.0806,0.0,0.0,0.0,0.0,0.0,0.0,0.0,0.0,0.0,-2.1923,-2.2775,-2.3586,0.0,0.0,-2.5232,-2.5211,-2.5316,-2.5557,-2.5926,-2.5698,0.0,-2.5993,-2.5919,-2.5812,-2.5585,-2.5988,-2.6373,-2.6334,-2.6274,-2.6105,-2.5708,-2.5174,-2.4749,-2.4609,-2.485,-2.5141,-2.5581,-2.5732,-2.5904,-2.6265,-2.6465,-2.6685,-2.0826,-2.1818,-2.14,-2.1071,-2.083,-2.0323,-2.0172,-2.0295,-1.9814,-1.9306,-1.8852,-1.8928,-1.8506,-1.7666,-1.7547,0.0,0.0,0.0,-1.8117,-1.836,-1.8491,-1.8549,-1.8599,-1.9252,-1.9552,-1.9595,-2.0065,-2.016,-1.9877,-1.9676,-1.9301,-1.8709,0.0,-1.9825,-1.9963,-2.0184,-2.0509,-2.0943,-2.1123,-2.1284,-2.141,-2.141,-2.1491,-2.1654,-2.1753,-2.1871,-2.2026,-2.1644,-2.1514,-2.1603,-2.1053,-2.0673,0.0,0.0,0.0,0.0,0.0,0.0,0.0,0.0,0.0,0.0,0.0,-2.1588,-2.1189,0.0,0.0,0.0,-2.0475,-2.0652,-2.0878,-2.0777,0.0,0.0,0.0,0.0,0.0,0.0,0.0,-2.0933,-2.0784,-2.0864,-2.1257,-2.1945,-2.274,-2.3551,-2.4069,-2.4294,-2.4209,0.0,-2.4659,-2.5052,-2.4892,-2.4855,-2.5215,-2.555,-2.5842,-2.6233,-2.6554,-2.676,-2.676,-2.6611,-2.6398,-2.6026,-2.5406,-2.482,-2.4533,-2.4606,-2.4696,-2.486,-2.5092,-2.5381,-2.5691,-2.6071,-2.653,-2.0321,-2.0242,-1.9213,-1.9098,-1.9548,-1.9441,-1.9607,-1.988,-1.975,-1.9313,-1.8562,-1.8773,-1.8157,-1.6917,-1.6634,0.0,-1.7554,-1.7696,-1.7988,-1.8484,-1.8779,-1.8909,-1.8916,-1.9013,-1.9072,-1.9057,-1.8818,-1.8613,-1.8348,-1.7969,-1.7592,-1.7372,-1.8765,-1.9557,-1.9645,-1.9866,-2.0217,-2.069,-2.0862,-2.1006,-2.1041,-2.1041,-2.1236,-2.1635,-2.1858,-2.2094,-2.2398,-2.2094,-2.1924,-2.1906,-2.1158,-2.07,-2.0665,0.0,0.0,0.0,0.0,0.0,0.0,0.0,0.0,0.0,0.0,0.0,0.0,0.0,0.0,-2.0235,-2.0474,0.0,-2.0465,-2.074,0.0,0.0,0.0,-2.0952,-2.0952,-2.0781,-2.0654,-2.0654,0.0,0.0,-2.0699,-2.1069,-2.1562,-2.222,-2.2906,-2.3246,-2.3003,-2.3464,-2.3757,-2.3527,-2.3757,-2.3854,-2.3739,-2.4713,-2.5773,-2.6521,-2.6899,-2.6696,-2.6707,-2.6381,-2.6177,-2.6086,-2.5374,-2.4713,-2.48,-2.4328,-2.3897,-2.3508,-2.3921,-2.4316,-2.4442,-2.5172,-2.5965,-1.8242,-1.823,-1.7912,-1.8628,-1.9798,-1.8988,-1.8836,-1.8969,-1.7938,-1.7371,-1.7184,-1.7005,-1.6675,-1.6166,-1.6091,-1.6166,-1.6323,-1.6339,-1.6417,-1.6582,-1.6645,-1.667,-1.6723,-1.7575,-1.7996,-1.8042,-1.874,-1.8891,-1.8621,-1.8299,-1.7984,-1.76,-1.7807,-1.8256,-1.8996,-1.9087,-1.9637,-2.0699,-2.0736,-2.0975,-2.1449,-2.1449,-2.1644,-2.1987,-2.1806,-2.1737,-2.1826,-2.1443,-2.1229,-2.1229,-2.1042,-2.0722,-2.0272,-1.9983,0.0,0.0,0.0,0.0,0.0,0.0,0.0,0.0,0.0,-2.0148,-1.9727,0.0,-1.9012,0.0,-1.9513,-2.0175,-2.0784,-2.0818,0.0,0.0,-2.06,-2.0464,-2.0464,-2.0428,-2.0382,-2.0382,-2.0382,-2.0473,-2.0654,-2.0789,-2.097,-2.1311,-2.1811,-2.2132,-2.2043,-2.2043,-2.2246,-2.2755,-2.2824,-2.3003,-2.3556,-2.398,-2.4383,-2.4776,-2.4483,-2.4263,-2.4565,-2.3981,-2.3661,-2.4012,-2.3713,-2.3502,-2.3902,-2.3268,-2.2838,-2.3007,-2.3668,-2.4247,-2.4305,-2.48,-2.5394,-1.7485,-1.7485,-1.7485,-1.8045,-1.8824,-1.8272,-1.8084,-1.8154,-1.7391,-1.705,-1.7032,-1.6767,-1.6495,-1.6254,-1.6254,-1.6254,-1.6247,-1.6247,-1.6254,-1.6254,-1.6247,-1.6187,-1.612,-1.6706,-1.6964,-1.6842,-1.7457,-1.7565,-1.7282,-1.7106,-1.6884,-1.6531,-1.6419,-1.6822,-1.7768,-1.8157,-1.8684,-1.9336,-1.9336,-1.9568,-2.0012,-2.0028,-2.0174,-2.0514,-2.0477,-2.0512,-2.071,-2.0441,-2.0285,-2.0285,-2.0132,-1.9819,-1.9355,-1.9196,-1.8925,0.0,0.0,0.0,0.0,0.0,0.0,0.0,0.0,0.0,0.0,0.0,-1.7932,-1.7679,-1.8247,-1.9027,-1.9923,-1.9903,-2.0048,-2.0473,-2.0382,-2.0292,-2.0292,-2.0292,-2.0292,-2.0292,-2.0292,-2.0337,-2.0518,-2.0518,-2.0564,-2.069,-2.0916,-2.115,-2.132,-2.1284,-2.141,-2.1863,-2.1725,-2.1792,-2.2591,-2.2827,-2.3127,-2.3543,-2.3404,-2.3271,-2.3483,-2.302,-2.2706,-2.2929,-2.2563,-2.2405,-2.3075,-2.2563,-2.2063,-2.2513,-2.3143,-2.3458,-2.3189,-2.3465,-2.3977,-1.7485,-1.7485,-1.7485,-1.7485,-1.7485,-1.7485,-1.7485,-1.7479,-1.7412,-1.7382,-1.737,-1.7141,-1.6917,-1.67,-1.67,-1.67,-1.67,-1.67,-1.67,-1.67,-1.67,-1.6567,-1.6332,-1.635,-1.6163,-1.5946,-1.591,-1.5771,-1.5547,-1.5511,-1.5384,-1.5161,-1.5119,-1.5569,-1.6439,-1.7113,-1.7536,-1.7734,-1.7734,-1.7901,-1.8179,-1.8187,-1.835,-1.8741,-1.8848,-1.9154,-1.9496,-1.9336,-1.9225,-1.9209,-1.8893,-1.8612,-1.835,-1.8311,-1.8093,0.0,-1.7623,0.0,0.0,0.0,0.0,0.0,0.0,0.0,0.0,-1.7348,-1.716,-1.7011,-1.7185,-1.7702,-1.8636,-1.8737,-1.9046,-1.985,-1.9978,-1.997,-1.9928,-1.992,-1.9965,-2.0102,-2.0102,-2.0147,-2.0292,-2.0292,-2.0292,-2.0337,-2.0337,-2.051,-2.0817,-2.0907,-2.0916,-2.0907,-2.0687,-2.0798,-2.123,-2.1414,-2.1779,-2.2578,-2.2505,-2.2631,-2.2554,-2.2162,-2.1948,-2.2,-2.1421,-2.1314,-2.2255,-2.1728,-2.1403,-2.1755,-2.2167,-2.2302,-2.1999,-2.2182,-2.2426,-1.7485,-1.7485,-1.7485,-1.7485,-1.7485,-1.7485,-1.7485,-1.7455,-1.7032,-1.6851,-1.6845,-1.6797,-1.6748,-1.67,-1.67,-1.67,-1.67,-1.67,-1.67,-1.67,-1.67,-1.6676,-1.661,-1.6386,-1.6254,-1.6193,-1.5988,-1.5861,-1.5807,-1.5602,-1.5475,-1.5421,-1.5215,-1.5318,-1.5719,0.0,0.0,0.0,-1.8034,-1.8187,-1.8592,-1.8599,-1.8825,-1.9374,-1.8947,0.0,-1.9138,-1.8633,-1.8365,-1.8318,-1.8257,0.0,0.0,0.0,0.0,0.0,0.0,0.0,0.0,0.0,0.0,0.0,-1.6351,-1.654,-1.7084,-1.6873,-1.6873,-1.7267,-1.7366,-1.7604,-1.8184,-1.8233,-1.8219,-1.819,-1.82,-1.8102,-1.7893,-1.7902,-1.818,-1.898,-1.9072,-1.9401,-2.0056,-2.0292,-2.0292,-2.0263,-2.0292,-2.0337,-2.0445,-2.049,-2.0464,-2.0419,-2.0352,-2.0461,-2.0757,-2.0422,-2.0377,-2.0524,-1.9963,-1.9724,-1.9972,-1.949,-1.9187,-1.9648,-1.9552,-1.9678,-2.042,-2.0129,-1.998,-2.0352,-2.0354,-2.0596,-2.1819,-2.2168,-2.2308,-1.7485,-1.7485,-1.7485,-1.7485,0.0,-1.7485,-1.7485,-1.7467,-1.7207,-1.7086,-1.7086,-1.7086,-1.7086,-1.7086,-1.7086,-1.7092,-1.708,-1.7086,-1.7086,-1.7086,-1.7086,-1.6948,-1.6694,-1.6555,-1.6344,-1.6085,-1.5952,-1.5885,-1.5879,-1.5753,-1.5692,-1.5686,-1.5553,-1.5559,-1.5686,-1.5692,-1.6137,-1.7018,-1.6879,-1.6996,-1.7315,-1.7335,-1.7439,-1.775,-1.7476,0.0,0.0,0.0,0.0,0.0,0.0,0.0,0.0,-1.7071,0.0,-1.6687,-1.6506,-1.6364,-1.6247,-1.6119,-1.6074,-1.6052,-1.596,-1.5997,-1.6231,-1.5998,-1.5954,-1.6249,-1.6249,-1.6543,-1.7285,-1.7385,-1.745,-1.7679,-1.7724,-1.76,-1.7355,-1.7289,-1.7529,-1.7948,-1.8041,-1.8272,-1.8742,-1.8947,-1.9275,-1.978,-1.9975,-2.0254,-2.0704,-2.0523,-2.0249,-2.0016,-1.9973,-1.9994,-1.9955,-1.9875,-1.9752,-1.9807,-1.9462,-1.9187,-1.917,-1.8699,-1.8428,-1.867,-1.8364,-1.8282,-1.9222,-1.9065,-1.8816,-1.9288,-1.9475,-1.9625,-2.0445,-2.0801,-2.1115,-1.7527,-1.7485,-1.7485,-1.7509,-1.7551,-1.761,-1.7551,-1.7545,-1.7503,0.0,0.0,-1.7485,-1.7485,-1.7485,-1.7485,-1.7485,-1.7485,-1.7485,-1.7485,-1.7485,-1.7485,-1.7249,-1.6845,-1.6791,-1.6531,-1.6109,-1.6054,-1.603,-1.603,-1.603,-1.6012,-1.5958,-1.5958,-1.594,-1.5891,-1.5885,-1.5885,-1.5879,-1.568,-1.5674,-1.5879,-1.5885,-1.5948,-1.6002,-1.5952,-1.5919,-1.5986,-1.608,-1.6155,-1.6161,-1.6343,-1.6375,-1.6182,-1.6131,-1.6049,-1.5897,-1.5897,-1.5883,-1.5857,-1.5817,-1.5787,-1.5747,-1.5753,-1.5706,-1.5552,-1.5299,-1.5179,-1.5179,-1.5137,-1.5455,-1.6242,-1.6349,-1.6567,-1.714,-1.7202,-1.7026,-1.6784,-1.6781,-1.6727,-1.6969,-1.7008,-1.7109,-1.7343,-1.7596,-1.793,-1.8831,-1.9138,-1.9758,-2.0665,-2.0581,-2.0309,-1.9939,-1.9896,-1.9769,-1.9521,-1.9573,-1.97,-1.9744,-1.9623,-1.953,-1.9222,-1.8853,-1.8605,-1.8587,-1.7792,-1.7865,-1.8634,-1.839,-1.8022,-1.8481,-1.8751,-1.8816,-1.8567,-1.8901,-1.9565,-1.769,-1.7485,-1.7485,-1.7612,-1.7823,-1.7817,-1.7877,-1.7864,-1.7581,-1.7485,-1.7485,-1.7485,-1.7485,-1.7485,-1.7485,-1.7485,-1.7485,-1.7485,-1.7485,-1.7485,-1.7485,-1.7449,-1.7364,-1.7141,-1.6996,-1.6905,-1.6694,-1.6585,-1.6585,-1.6579,-1.6465,-1.6247,-1.6223,-1.6121,-1.5903,-1.5885,-1.5885,-1.5885,-1.5849,-1.5855,-1.5885,-1.5885,-1.6033,-1.6209,-1.6045,-1.6006,-1.6259,-1.6043,-1.596,-1.596,-1.6004,-1.5967,-1.595,-1.5962,-1.5912,-1.5917,-1.5883,-1.5804,-1.5569,-1.5551,-1.5466,-1.524,-1.5221,-1.5366,-1.5787,-1.5624,-1.5445,-1.5433,-1.5246,-1.5157,-1.5303,-1.5372,-1.5381,-1.5214,-1.5158,-1.5034,-1.4869,-1.4831,-1.5153,-1.5893,-1.6028,-1.6358,-1.6976,-1.7214,-1.7279,-1.7579,-1.7953,-1.8106,-1.9159,-2.0133,-2.0571,-2.0317,-2.0215,-2.0189,-2.0061,-1.9836,-1.9759,-1.97,-1.9513,-1.9358,-1.9247,-1.893,-1.8691,-1.8614,-1.8382,-1.8422,-1.8692,-1.8063,-1.7722,-1.7758,-1.7573,-1.7215,-1.7132,-1.752,-1.8211,-1.772,-1.7509,-1.7636,-1.7768,-1.7823,-1.704,-1.6603,-1.6264,-1.5361,-1.5861,-1.7197,-1.7256,-1.7132,-1.695,-1.695,-1.6956,-1.695,-1.695,-1.695,-1.6944,-1.6868,-1.6861,-1.7,-1.6767,-1.6571,-1.644,-1.6638,-1.6494,-1.6083,-1.6349,-1.6404,-1.6296,-1.6429,-1.6447,-1.6338,-1.6332,-1.6332,-1.632,-1.6193,-1.6042,-1.5897,-1.603,-1.609,-1.6064,-1.5982,-1.598,-1.6073,-1.5956,-1.5894,-1.5894,-1.5894,-1.5897,-1.5915,-1.5927,-1.5877,-1.5927,-1.5753,-1.5626,-1.5505,-1.5343,-1.5191,-1.4878,-1.4989,-1.5153,-1.5387,-1.5361,-1.5342,-1.5475,-1.5384,-1.5378,-1.5511,-1.5535,-1.5427,-1.5167,-1.5143,-1.4968,-1.4612,-1.4521,-1.4655,-1.4939,-1.5003,-1.5194,-1.5609,-1.5802,-1.6183,-1.6676,-1.7342,-1.7974,-1.8244,-1.8824,-1.953,-2.0132,-2.0129,-2.0103,-2.024,-2.0172,-2.0052,-2.0035,-1.9898,-1.9701,-1.9547,-1.929,-1.9179,-1.9153,-1.8751,-1.8519,-1.8768,-1.8158,-1.7643,-1.7462,-1.7332,-1.6989,-1.6713,-1.6937,-1.7783,-1.726,-1.6931,-1.6808,-1.6742,-1.6746,-1.5685,-1.4962,-1.4625,-1.3491,-1.4093,-1.5845,-1.6264,-1.6478,-1.6537,-1.6537,-1.6537,-1.6537,-1.6537,-1.6537,-1.6461,-1.6343,-1.6368,-1.6576,-1.6389,-1.6253,-1.6101,-1.644,-1.6322,-1.5838,-1.6127,-1.6291,-1.6255,-1.6339,-1.641,-1.6482,-1.6476,-1.6476,-1.6464,-1.6339,-1.6155,-1.6,-1.6175,-1.6157,-1.591,-1.5885,-1.5891,-1.5785,-1.5785,-1.5785,-1.5731,-1.5678,-1.5672,-1.5725,-1.5731,-1.5672,-1.5654,-1.5493,-1.535,-1.5291,-1.507,-1.4781,-1.459,-1.4703,-1.4811,-1.4836,-1.4884,-1.5005,-1.5237,-1.5219,-1.5267,-1.541,-1.5463,-1.5416,-1.5225,-1.5201,-1.5017,-1.4778,-1.4706,-1.4677,-1.4515,-1.4431,-1.4395,-1.4419,-1.4521,-1.4967,-1.5855,-1.6828,-1.7385,-1.7392,-1.7354,-1.7935,-1.8985,-1.9294,-1.9355,-1.9824,-1.9911,-1.9985,-2.0192,-2.0266,-2.0061,-1.9768,-1.9631,-1.9554,-1.9401,-1.8819,-1.8554,-1.893,-1.834,-1.7732,-1.7612,-1.7381,-1.6977,-1.6403,-1.6553,-1.7359,-1.5724,-1.5024,-1.387,-1.3396,-1.38,-1.3689,-1.3578,-1.3493,-1.3128,-1.2875,-1.3009,-1.4211,-1.5386,-1.6414,-1.6414,-1.6349,-1.636,-1.6478,-1.6419,-1.6354,-1.6455,-1.6497,-1.6421,-1.6457,-1.6452,-1.6406,-1.6487,-1.6424,-1.6252,-1.639,-1.6344,-1.6126,-1.5719,-1.5689,-1.5778,-1.5806,-1.5806,-1.5806,-1.5995,-1.6203,-1.6278,-1.6272,-1.6157,-1.5897,-1.5885,-1.5791,-1.5535,-1.5529,-1.5422,-1.5095,-1.5089,-1.5089,-1.5089,-1.5089,-1.5089,-1.5089,-1.506,-1.4963,-1.4681,-1.4442,-1.4276,-1.4253,-1.4265,-1.4293,-1.4287,-1.4276,-1.439,-1.4584,-1.4459,-1.443,-1.4344,-1.4447,-1.4533,-1.4533,-1.4436,-1.4389,-1.4626,-1.4716,-1.48,-1.499,-1.47,-1.4678,-1.4611,-1.4527,-1.4431,-1.4709,-1.5011,-1.5422,-1.5945,-1.5866,-1.5999,-1.6972,-1.7346,-1.7918,-1.861,-1.8926,-1.916,-1.9923,-2.0246,-1.994,-1.9554,-1.9365,-1.923,-1.929,-1.8888,-1.8699,-1.8836,-1.8528,-1.7965,-1.786,-1.7321,-1.6458,-1.6029,-1.6032,-1.6635,-1.4066,-1.3597,-1.3146,-1.3018,-1.3105,-1.2307,-1.1942,-1.1693,-1.0708,-1.06,-1.1125,-1.1593,-1.2449,-1.3646,-1.3641,-1.3651,-1.3646,-1.3651,-1.3655,-1.3696,-1.4311,-1.4793,-1.5138,-1.5728,-1.6023,-1.604,-1.6345,-1.6192,-1.5716,-1.5767,-1.5818,-1.5676,-1.5641,-1.5761,-1.6,-1.6023,-1.6034,-1.6171,-1.6195,-1.6109,-1.601,-1.6013,-1.582,-1.5404,-1.5357,-1.5309,-1.5202,-1.5208,-1.5148,-1.5041,-1.5041,-1.5041,-1.5041,-1.5041,-1.5041,-1.4976,-1.4845,-1.4605,-1.4206,-1.4171,-1.4142,-1.3986,-1.4124,-1.4206,-1.4212,-1.4206,-1.4261,-1.4364,-1.4397,-1.4509,-1.4635,-1.4669,-1.4674,-1.4669,-1.4669,-1.467,-1.4631,-1.4665,-1.4671,-1.4565,-1.4494,-1.4486,-1.4657,-1.461,-1.4564,-1.4521,-1.4431,-1.4605,-1.5061,-1.5017,-1.5111,-1.5482,-1.5717,-1.6224,-1.7219,-1.7591,-1.791,-1.8199,-1.8432,-1.8478,-1.8783,-1.8742,-1.8693,-1.9075,-1.876,-1.8709,-1.9136,-1.8588,-1.8025,-1.8006,-1.7723,-1.6948,-1.6533,-1.6285,-1.6462,-1.2432,-1.2102,-1.1907,-1.1791,-1.1759,-1.0777,-1.0271,-1.0025,-0.8959,-0.8961,-0.9725,-0.9486,-0.9805,-1.0683,-1.1284,-1.161,-1.1642,-1.1658,-1.1687,-1.1775,-1.2493,-1.3072,-1.3537,-1.4257,-1.4685,-1.4801,-1.5316,-1.5426,-1.4971,-1.4718,-1.4884,-1.5188,-1.5406,-1.5586,-1.5823,-1.5901,-1.6006,-1.6203,-1.6127,-1.5918,-1.5693,-1.5592,-1.5377,-1.5039,-1.5041,-1.4982,-1.4874,-1.4874,-1.4821,-1.4773,-1.4773,-1.4773,-1.4773,-1.4773,-1.4773,-1.4761,-1.461,-1.4331,-1.4003,-1.4093,-1.4134,-1.3938,-1.4099,-1.4196,-1.4196,-1.4196,-1.4196,-1.4234,-1.4403,-1.4593,-1.4733,-1.4773,-1.4773,-1.4778,-1.4773,-1.4688,-1.4637,-1.4609,-1.4594,-1.4464,-1.4442,-1.4344,-1.453,-1.4637,-1.4674,-1.465,-1.4617,-1.4576,-1.4769,-1.4817,-1.4843,-1.4727,-1.4654,-1.5121,-1.6074,-1.6416,-1.6509,-1.6873,-1.7157,-1.7319,-1.7563,-1.7598,-1.7766,-1.7924,-1.8096,-1.8363,-1.8606,-1.8247,-1.7959,-1.81,-1.7883,-1.7355,-1.6893,-1.6661,-1.6388,-1.0905,-1.0432,-0.9166,-0.8768,-0.8614,-0.878,-0.8773,-0.8839,-0.864,-0.8582,-0.8595,-0.8347,-0.8233,-0.8516,-1.0369,-1.1384,-1.1531,-1.1386,-1.1411,-1.1479,-1.1663,-1.1877,-1.1987,-1.2049,-1.218,-1.2606,-1.337,-1.4035,-1.4648,-1.3572,-1.3633,-1.4781,-1.4513,-1.463,-1.4934,-1.5092,-1.5365,-1.5628,-1.5671,-1.5504,-1.5214,-1.5045,-1.4977,-1.4931,-1.4993,-1.4838,-1.4659,-1.4606,-1.4509,-1.4245,-1.4245,-1.4245,-1.425,-1.4245,-1.4245,-1.424,-1.4234,-1.4223,-1.4191,-1.4196,-1.4159,-1.4169,-1.4175,-1.4196,-1.4196,-1.4196,-1.4196,-1.4191,-1.4223,-1.4277,-1.4293,-1.4299,-1.4299,-1.4299,-1.4245,-1.4385,-1.4583,-1.455,-1.4745,-1.4784,-1.4667,-1.448,-1.4293,-1.4474,-1.4677,-1.4728,-1.4913,-1.5008,-1.502,-1.5038,-1.5004,-1.4805,-1.4643,-1.4694,-1.5597,-1.5523,-1.5814,-1.6074,-1.6048,-1.6316,-1.6228,-1.6203,-1.6502,-1.681,-1.6986,-1.7324,-1.7802,-1.7959,-1.7785,-1.78,-1.7812,-1.7436,-1.715,-1.6949,-1.6693,-0.9153,-0.8937,-0.8436,-0.8185,-0.8198,-0.8312,-0.8405,-0.8486,-0.8557,-0.8568,-0.8492,-0.8274,-0.8171,-0.8215,-0.8839,-0.92,-0.9245,-0.9245,-0.9274,-0.939,-1.0206,-1.0653,-1.0762,-1.151,-1.1905,-1.199,-1.2214,-1.2442,-1.2534,-1.1881,-1.182,-1.2254,-1.2332,-1.2742,-1.3688,-1.397,-1.4471,-1.5435,-1.5456,-1.5257,-1.4974,-1.4783,-1.4614,-1.4494,-1.4603,-1.4554,-1.4353,-1.4489,-1.4451,-1.4202,-1.4196,-1.4196,-1.4196,-1.4196,-1.4196,-1.4196,-1.4196,-1.4196,-1.4196,-1.4196,-1.4196,-1.4196,-1.4196,-1.4196,-1.4196,-1.4196,-1.4196,-1.4196,-1.4196,-1.4196,-1.4196,-1.4196,-1.4196,-1.4196,-1.4196,-1.4245,-1.4347,-1.4347,-1.4401,-1.4444,-1.4528,-1.454,-1.4475,-1.4572,-1.4642,-1.4671,-1.4761,-1.4903,-1.5112,-1.5251,-1.5312,-1.524,-1.5125,-1.5044,-1.4954,-1.4512,-1.4332,-1.4494,-1.4617,-1.4796,-1.4811,-1.5005,-1.5262,-1.5809,-1.6019,-1.6194,-1.6654,-1.7203,-1.7131,-1.7261,-1.7335,-1.7499,-1.7389,-1.7226,-1.7051,-0.8378,-0.8297,-0.8248,-0.8171,-0.8176,-0.8214,-0.824,-0.8421,-0.85,-0.8552,-0.8535,-0.8339,-0.8233,-0.8195,-0.7981,-0.7958,-0.7921,-0.7952,-0.7933,-0.8,-0.8875,-0.937,-0.9542,-1.0267,-1.0757,-1.0701,-1.0584,-1.0744,-1.1228,-1.0655,-1.0581,-1.1015,-1.0966,-1.1483,-1.2427,-1.2619,-1.328,-1.4138,-1.4183,-1.3951,-1.3839,-1.3569,-1.3316,-1.3108,-1.3237,-1.3698,-1.4153,-1.4417,-1.4428,-1.4239,-1.4266,-1.4272,-1.4207,-1.4196,-1.4196,-1.4196,-1.4196,-1.4196,-1.4196,-1.4196,-1.4196,-1.4196,-1.4196,-1.4196,-1.4196,-1.4196,-1.4196,-1.4196,-1.4196,-1.4196,-1.4196,-1.4196,-1.4196,-1.4196,-1.4196,-1.4196,-1.4196,-1.4196,-1.4191,-1.4245,-1.4337,-1.4439,-1.4482,-1.4568,-1.4596,-1.4573,-1.4729,-1.4879,-1.5054,-1.5311,-1.5527,-1.5515,-1.5459,-1.5252,-1.4985,-1.4417,-1.3878,-1.3917,-1.3666,-1.3667,-1.3774,-1.3941,-1.4246,-1.4754,-1.5055,-1.5202,-1.556,-1.6167,-1.6488,-1.6634,-1.7004,-1.7227,-1.7303,-1.7505,-1.7276,-0.8573,-0.8524,-0.8456,-0.8364,-0.8326,-0.8263,-0.8301,-0.838,-0.8418,-0.8478,-0.8508,-0.8337,-0.825,-0.8193,-0.8027,-0.7962,-0.8084,-0.7943,-0.7899,-0.7974,-0.8047,-0.8175,-0.8338,-0.8491,-0.8625,-0.8694,-0.8328,-0.9194,-1.0783,-0.9854,-0.9776,-1.0697,-1.0728,-1.0755,-1.0993,-1.131,-1.1573,-1.1995,-1.2084,-1.1937,-1.1585,-1.1591,-1.141,-1.1049,-1.1137,-1.2086,-1.3947,-1.4252,-1.4263,-1.425,-1.4291,-1.4362,-1.4087,-1.404,-1.4137,-1.4191,-1.4196,-1.4196,-1.4207,-1.4207,-1.4196,-1.4223,-1.4202,-1.4196,-1.4196,-1.4196,-1.4196,-1.4196,-1.4196,-1.4196,-1.4196,-1.4196,-1.4196,-1.4196,-1.4196,-1.4196,-1.4196,-1.4196,-1.4196,-1.4191,-1.4245,-1.4191,-1.4234,-1.4378,-1.443,-1.4456,-1.4652,-1.4836,-1.4841,-1.5112,-1.5399,-1.5411,-1.531,-1.5065,-1.4784,-1.4473,-1.3996,-1.3562,-1.3185,-1.2979,-1.3102,-1.3268,-1.3496,-1.3946,-1.4113,-1.426,-1.4697,-1.5234,-1.5487,-1.5747,-1.6296,-1.6843,-1.7025,-1.7185,-1.7447,-0.8492,-0.8345,-0.8307,-0.8193,-0.8073,-0.8176,-0.8217,-0.819,-0.8339,-0.8391,-0.8353,-0.8359,-0.8318,-0.8197,-0.8233,-0.8217,-0.8174,-0.8057,-0.804,-0.8119,-0.8198,-0.8242,-0.8274,-0.8253,-0.8166,-0.8038,-0.7888,-0.8181,-0.8757,-0.8468,-0.8444,-0.8815,-0.8885,-0.9364,-1.0133,-1.0254,-1.0669,-1.1619,-1.1797,-1.1716,-1.1516,-1.1422,-1.1278,-1.096,-1.0916,-1.1243,-1.1817,-1.2817,-1.3587,-1.4099,-1.3572,-1.3155,-1.3072,-1.2994,-1.3359,-1.4083,-1.4196,-1.4277,-1.439,-1.4234,-1.4217,-1.4358,-1.4288,-1.4202,-1.4196,-1.4202,-1.4202,-1.4196,-1.4196,-1.4196,-1.4196,-1.4196,-1.4196,-1.4196,-1.4196,-1.4196,-1.4196,-1.4196,-1.4196,-1.4196,-1.4196,-1.4126,-1.3992,-1.4055,-1.4059,-1.3923,-1.4093,-1.4285,-1.4325,-1.4521,-1.4677,-1.4654,-1.4652,-1.4806,-1.4551,-1.4349,-1.4034,-1.3616,-1.3209,-1.2771,-1.2771,-1.2874,-1.3034,-1.3157,-1.3317,-1.3527,-1.3959,-1.4286,-1.4602,-1.4957,-1.5532,-1.6061,-1.6515,-1.6732,-1.6863,-0.8503,-0.8367,-0.8318,-0.819,-0.8027,-0.8179,-0.8193,-0.8155,-0.8329,-0.8397,-0.8383,-0.8399,-0.8348,-0.8261,-0.8274,-0.8266,-0.8159,-0.8108,-0.8144,-0.8255,-0.8209,-0.8217,-0.8217,-0.8193,-0.813,-0.8008,-0.7888,-0.7869,-0.7929,-0.7831,-0.7823,-0.798,-0.7894,-0.8319,-0.9081,-0.9166,-0.9562,-1.024,-1.0314,-1.0315,-1.0077,-1.0102,-1.0024,-0.9722,-0.9557,-0.9709,-1.0145,-1.099,-1.1848,-1.2583,-1.2225,-1.1888,-1.1884,-1.1832,-1.2128,-1.27,-1.2943,-1.3107,-1.3659,-1.3627,-1.3926,-1.4311,-1.4346,-1.4326,-1.432,-1.432,-1.4299,-1.4213,-1.4196,-1.4196,-1.4196,-1.4196,-1.4196,-1.4196,-1.4196,-1.4196,-1.4196,-1.4196,-1.4196,-1.4196,-1.4196,-1.4105,-1.4008,-1.3852,-1.3782,-1.3626,-1.3678,-1.3771,-1.3822,-1.3987,-1.4072,-1.4174,-1.4356,-1.4411,-1.4346,-1.4196,-1.3982,-1.3702,-1.3423,-1.3017,-1.2807,-1.291,-1.3033,-1.3022,-1.3071,-1.3133,-1.3473,-1.3685,-1.3965,-1.4396,-1.4722,-1.5071,-1.5447,-1.5733,-1.5921,-0.8581,-0.8565,-0.8454,-0.8259,-0.8217,-0.8156,-0.8151,-0.8247,-0.8348,-0.8432,-0.8481,-0.844,-0.8339,-0.822,-0.8168,-0.8187,-0.8195,-0.8111,-0.8155,-0.8217,-0.8084,-0.7934,-0.7967,-0.8106,-0.8095,-0.8125,-0.8051,-0.8081,-0.8056,-0.7966,-0.7991,-0.8054,-0.798,-0.7985,-0.8217,-0.7982,-0.8113,-0.8297,-0.8194,-0.8149,-0.7971,-0.7922,-0.7874,-0.7811,-0.7742,-0.8067,-0.8907,-0.9101,-0.9496,-1.0484,-1.071,-1.0675,-1.0618,-1.0645,-1.0722,-1.1042,-1.0859,-1.1526,-1.2274,-1.2488,-1.2882,-1.379,-1.4067,-1.4348,-1.418,-1.4252,-1.4363,-1.4218,-1.4196,-1.4207,-1.4223,-1.4239,-1.4239,-1.4218,-1.4218,-1.4196,-1.4196,-1.4196,-1.4196,-1.4191,-1.4191,-1.4159,-1.4089,-1.3911,-1.3793,-1.3723,-1.3634,-1.3553,-1.3561,-1.3698,-1.3835,-1.3858,-1.3903,-1.3948,-1.3929,-1.3945,-1.3725,-1.3601,-1.3477,-1.3362,-1.3107,-1.3206,-1.3091,-1.3031,-1.3031,-1.3019,-1.3092,-1.339,-1.3428,-1.3598,-1.3878,-1.4058,-1.4372,-1.4727,-1.5124,-0.8538,-0.8451,-0.8331,-0.8263,-0.8223,-0.8144,-0.8157,-0.8233,-0.8269,-0.8274,-0.8247,-0.8356,-0.831,-0.813,-0.8258,-0.8296,-0.8217,-0.8108,-0.8136,-0.8111,-0.8032,-0.7996,-0.8054,-0.8092,-0.8081,-0.7981,-0.7954,-0.7918,-0.7915,-0.7949,-0.7955,-0.7977,-0.7958,-0.7886,-0.7907,-0.7891,-0.7933,-0.7949,-0.8023,-0.794,-0.7856,-0.7907,-0.801,-0.7966,-0.7709,-0.7724,-0.8037,-0.7817,-0.8311,-0.951,-0.9642,-0.9699,-0.9614,-0.9582,-0.979,-1.0417,-1.0675,-1.0873,-1.1251,-1.1337,-1.15,-1.1883,-1.2729,-1.306,-1.3009,-1.3788,-1.4142,-1.4196,-1.4196,-1.4207,-1.4335,-1.4323,-1.4384,-1.4428,-1.4102,-1.4056,-1.4196,-1.4196,-1.4196,-1.418,-1.4046,-1.3976,-1.3922,-1.3771,-1.3615,-1.3593,-1.354,-1.3475,-1.351,-1.3413,-1.3521,-1.3313,-1.3286,-1.3419,-1.3446,-1.3556,-1.3498,-1.3404,-1.3449,-1.3731,-1.3636,-1.3733,-1.3501,-1.3224,-1.3326,-1.3344,-1.3363,-1.3519,-1.3326,-1.3224,-1.3279,-1.3585,-1.369,-1.3942,-1.4362,-0.8549,-0.8478,-0.8361,-0.8218,-0.8167,-0.8157,-0.8171,-0.8172,-0.8226,-0.8307,-0.8312,-0.8418,-0.8383,-0.8228,-0.8299,-0.8304,-0.8225,-0.8108,-0.8089,-0.8114,-0.8011,-0.8026,-0.8037,-0.8037,-0.7999,-0.7944,-0.7933,-0.7933,-0.7936,-0.7933,-0.7896,-0.7999,-0.7894,-0.7958,-0.8015,-0.7894,-0.7933,-0.7944,-0.8004,-0.7999,-0.7947,-0.7999,-0.8026,-0.8018,-0.7834,-0.7758,-0.7679,-0.7596,-0.7875,-0.8375,-0.8468,-0.8493,-0.8546,-0.8484,-0.8765,-0.9415,-0.9425,-0.9621,-1.0179,-1.0197,-1.0443,-1.0952,-1.166,-1.183,-1.1921,-1.2499,-1.2819,-1.2659,-1.2708,-1.3039,-1.3527,-1.3683,-1.3457,-1.2896,-1.2868,-1.3222,-1.4066,-1.4196,-1.4196,-1.4159,-1.4078,-1.3976,-1.397,-1.376,-1.3647,-1.361,-1.3556,-1.3507,-1.3464,-1.3324,-1.3249,-1.3195,-1.3071,-1.3209,-1.3292,-1.3353,-1.3507,-1.3425,-1.3602,-1.3903,-1.3936,-1.4082,-1.3949,-1.3719,-1.3701,-1.3701,-1.3755,-1.3719,-1.3544,-1.3423,-1.3266,-1.3153,-1.3337,-1.3471,-1.3877,-0.8587,-0.8576,-0.8448,-0.8277,-0.8258,-0.8151,-0.819,-0.8255,-0.8331,-0.8424,-0.8497,-0.8562,-0.8497,-0.8413,-0.8348,-0.8272,-0.8233,-0.8166,-0.8152,-0.8138,-0.806,-0.797,-0.7955,-0.7955,-0.7886,-0.7933,-0.7933,-0.7933,-0.7933,-0.7933,-0.7988,-0.8021,-0.7907,-0.7929,-0.8023,-0.7915,-0.7939,-0.7933,-0.7941,-0.7949,-0.7933,-0.7949,-0.7969,-0.7932,-0.7982,-0.7834,-0.7785,-0.7763,-0.7788,-0.7434,-0.7344,-0.7591,-0.7607,-0.754,-0.7618,-0.7836,-0.7987,-0.8294,-0.8887,-0.906,-0.9424,-1.0141,-1.0511,-1.0799,-1.0815,-1.1065,-1.1236,-1.1177,-1.0726,-1.1463,-1.2142,-1.2432,-1.2156,-1.1521,-1.1159,-1.198,-1.3267,-1.386,-1.3898,-1.4045,-1.3986,-1.3992,-1.4094,-1.3959,-1.376,-1.3593,-1.3556,-1.3545,-1.348,-1.3373,-1.3405,-1.3491,-1.3324,-1.3114,-1.3191,-1.3218,-1.3389,-1.354,-1.3841,-1.4032,-1.4002,-1.4107,-1.4273,-1.4268,-1.4214,-1.4232,-1.4232,-1.4105,-1.3876,-1.367,-1.3544,-1.335,-1.322,-1.3334,-1.3605,-0.8587,-0.8571,-0.8359,-0.8315,-0.8326,-0.8081,-0.806,-0.8233,-0.8261,-0.8301,-0.8353,-0.8503,-0.8519,-0.8418,-0.8451,-0.8416,-0.8197,-0.8263,-0.8269,-0.8133,-0.7964,-0.7969,-0.7933,-0.7933,-0.7933,-0.7933,-0.7933,-0.7875,-0.7875,-0.7941,-0.7886,-0.7966,-0.7966,-0.7886,-0.7963,-0.7958,-0.7933,-0.7933,-0.7933,-0.7933,-0.7933,-0.7875,-0.7977,-0.7989,-0.8005,-0.8012,-0.7864,-0.7858,-0.7939,-0.7872,-0.7799,-0.7714,-0.7684,-0.7665,-0.7644,-0.7587,-0.75,-0.7541,-0.7729,-0.791,-0.7837,-0.8258,-0.9083,-0.9476,-0.9414,-1.0189,-1.0606,-1.0672,-1.0731,-1.0665,-1.1048,-1.1364,-1.1147,-1.0882,-1.075,-1.0995,-1.1536,-1.1638,-1.2117,-1.2671,-1.2802,-1.2893,-1.3705,-1.3561,-1.3486,-1.3566,-1.3561,-1.3577,-1.3507,-1.341,-1.3507,-1.3626,-1.3432,-1.3238,-1.3367,-1.3394,-1.3494,-1.3634,-1.3894,-1.4168,-1.4094,-1.4204,-1.4407,-1.46,-1.4799,-1.4769,-1.4708,-1.4491,-1.4262,-1.4045,-1.3815,-1.3598,-1.3447,-1.3441,-1.3489,-0.8587,-0.8568,-0.8394,-0.8326,-0.8291,-0.807,-0.803,-0.8147,-0.8148,-0.8233,-0.8285,-0.8484,-0.8522,-0.8426,-0.8473,-0.8399,-0.8269,-0.8233,-0.8179,-0.8119,-0.8043,-0.7993,-0.7933,-0.7933,-0.7933,-0.7933,-0.7933,-0.7958,-0.7991,-0.7969,-0.7905,-0.7943,-0.7966,-0.7936,-0.7933,-0.7933,-0.7933,-0.7933,-0.7933,-0.7933,-0.7933,-0.7933,-0.7929,-0.803,-0.8122,-0.81,-0.8046,-0.8046,-0.8046,-0.8097,-0.8054,-0.7996,-0.7928,-0.7812,-0.7744,-0.7684,-0.7633,-0.7554,-0.7532,-0.75,-0.7522,-0.7328,-0.7959,-0.8082,-0.8239,-0.8801,-0.8972,-0.9078,-0.903,-0.9064,-0.9252,-0.9949,-0.9981,-0.9441,-0.9378,-0.9354,-0.9517,-1.02,-1.1057,-1.1651,-1.1698,-1.1835,-1.2181,-1.2636,-1.2803,-1.2708,-1.3388,-1.3445,-1.3523,-1.3459,-1.3572,-1.361,-1.3443,-1.3394,-1.3566,-1.3653,-1.369,-1.3759,-1.3827,-1.4082,-1.4178,-1.4356,-1.4567,-1.4777,-1.4972,-1.5191,-1.5113,-1.4877,-1.4588,-1.4377,-1.4129,-1.3876,-1.3719,-1.3701,-1.3797,-0.8587,-0.8576,-0.8465,-0.828,-0.8228,-0.8103,-0.81,-0.8106,-0.8155,-0.819,-0.8253,-0.8459,-0.8492,-0.8437,-0.8451,-0.8383,-0.8288,-0.8163,-0.8119,-0.8149,-0.8125,-0.8056,-0.7988,-0.7891,-0.7933,-0.7933,-0.7933,-0.7985,-0.8021,-0.8018,-0.8023,-0.8081,-0.8021,-0.7985,-0.7969,-0.7936,-0.7933,-0.7933,-0.7933,-0.7933,-0.7933,-0.7933,-0.7926,-0.8051,-0.8111,-0.8149,-0.8152,-0.8198,-0.8206,-0.8158,-0.8147,-0.8133,-0.8086,-0.8004,-0.7933,-0.7858,-0.7807,-0.7736,-0.7663,-0.7646,-0.7592,-0.7519,-0.7432,-0.7375,-0.7459,-0.7519,-0.7632,-0.7524,-0.7569,-0.7543,-0.7329,-0.8229,-0.8294,-0.7761,-0.7506,-0.7516,-0.7891,-0.9395,-1.0192,-1.0655,-1.0691,-1.0823,-1.1176,-1.1529,-1.1724,-1.199,-1.2677,-1.319,-1.3206,-1.3365,-1.3351,-1.3593,-1.3459,-1.3497,-1.3669,-1.3599,-1.3674,-1.3663,-1.3723,-1.3857,-1.4038,-1.4195,-1.4356,-1.4838,-1.511,-1.5277,-1.5218,-1.4858,-1.4635,-1.4545,-1.437,-1.4039,-1.3948,-1.396,-1.4063,-0.8587,-0.8579,-0.8465,-0.8348,-0.8225,-0.8106,-0.8059,-0.7932,-0.804,-0.8081,-0.8117,-0.8334,-0.8435,-0.8429,-0.8522,-0.8535,-0.844,-0.8266,-0.8209,-0.8247,-0.8147,-0.8089,-0.8062,-0.7929,-0.7949,-0.7933,-0.7933,-0.7955,-0.8004,-0.804,-0.8065,-0.81,-0.8089,-0.8075,-0.8043,-0.7996,-0.7907,-0.7918,-0.7913,-0.791,-0.791,-0.7896,-0.7886,-0.7996,-0.8056,-0.8117,-0.8188,-0.8269,-0.8331,-0.822,-0.8206,-0.8144,-0.8043,-0.7991,-0.7939,-0.7856,-0.7804,-0.7755,-0.772,-0.7627,-0.7562,-0.7516,-0.7444,-0.7491,-0.7483,-0.7459,-0.7383,-0.7301,-0.7222,-0.7218,-0.7215,-0.759,-0.7542,-0.7361,-0.7418,-0.7529,-0.7724,-0.8157,-0.8889,-0.9466,-0.9599,-0.9737,-1.0069,-1.0381,-1.0595,-1.0841,-1.1349,-1.1752,-1.1846,-1.2279,-1.2765,-1.3095,-1.3486,-1.3599,-1.376,-1.3588,-1.3513,-1.3437,-1.3448,-1.3448,-1.3642,-1.3822,-1.4083,-1.4379,-1.4838,-1.5157,-1.5029,-1.4781,-1.4719,-1.4672,-1.4431,-1.4165,-1.4141,-1.4129,-1.4165,-0.8587,-0.8576,-0.8467,-0.8348,-0.8225,-0.8106,-0.8045,-0.796,-0.8062,-0.8078,-0.8046,-0.8204,-0.8285,-0.8293,-0.8426,-0.8497,-0.8426,-0.8179,-0.813,-0.8168,-0.8171,-0.8119,-0.8117,-0.8045,-0.8037,-0.801,-0.791,-0.7969,-0.8018,-0.801,-0.8065,-0.8108,-0.8119,-0.8119,-0.8068,-0.8068,-0.8049,-0.8051,-0.8051,-0.8051,-0.8043,-0.8002,-0.8007,-0.7969,-0.7932,-0.8048,-0.8133,-0.8202,-0.8198,-0.8147,-0.8141,-0.8073,-0.7983,-0.7915,-0.7933,-0.7858,-0.7818,-0.7788,-0.7788,-0.7728,-0.7714,-0.7698,-0.7652,-0.7616,-0.7595,-0.7551,-0.7433,-0.7426,-0.7323,-0.7249,-0.7255,-0.726,-0.7241,-0.7252,-0.7309,-0.7399,-0.7491,-0.7568,-0.799,-0.8463,-0.8592,-0.8747,-0.889,-0.9148,-0.942,-0.9773,-1.0158,-1.037,-1.0582,-1.1115,-1.1766,-1.1973,-1.2337,-1.2859,-1.2961,-1.2946,-1.303,-1.3063,-1.3108,-1.3103,-1.3315,-1.3516,-1.3577,-1.3667,-1.4185,-1.4855,-1.5051,-1.4916,-1.4837,-1.4721,-1.4461,-1.4262,-1.428,-1.4298,-1.4298,-0.8573,-0.8546,-0.8456,-0.8361,-0.8258,-0.8111,-0.8062,-0.794,-0.8013,-0.8048,-0.7915,-0.8114,-0.819,-0.8174,-0.8299,-0.8407,-0.8361,-0.8065,-0.8057,-0.8095,-0.8136,-0.8119,-0.8114,-0.8086,-0.8056,-0.8021,-0.7918,-0.7985,-0.8026,-0.8023,-0.8043,-0.8103,-0.807,-0.8092,-0.8111,-0.8166,-0.8225,-0.8233,-0.8233,-0.8233,-0.8206,-0.8138,-0.8049,-0.7959,-0.7943,-0.8008,-0.8098,-0.8166,-0.8136,-0.8166,-0.8139,-0.8035,-0.7966,-0.7933,-0.7933,-0.7933,-0.7933,-0.7933,-0.7867,-0.7861,-0.7834,-0.7826,-0.7777,-0.7736,-0.7665,-0.7592,-0.7524,-0.7527,-0.7448,-0.7372,-0.7361,-0.7293,-0.7241,-0.7209,-0.722,-0.7239,-0.7347,-0.7385,-0.7538,-0.7783,-0.7747,-0.799,-0.8248,-0.8233,-0.8555,-0.8771,-0.9162,-0.9458,-0.9666,-0.9954,-1.0434,-1.0571,-1.099,-1.168,-1.1965,-1.1999,-1.2158,-1.2399,-1.254,-1.2637,-1.2939,-1.3256,-1.3256,-1.3261,-1.3853,-1.4435,-1.4755,-1.4885,-1.461,-1.4441,-1.4376,-1.4334,-1.431,-1.4298,-1.4298,-0.853,-0.8437,-0.8426,-0.8407,-0.8359,-0.8155,-0.8111,-0.8097,-0.8108,-0.8045,-0.7963,-0.8111,-0.8153,-0.8247,-0.8329,-0.8342,-0.821,-0.8176,-0.8136,-0.8168,-0.81,-0.8119,-0.81,-0.7934,-0.8004,-0.8004,-0.7966,-0.7875,-0.7991,-0.8051,-0.8078,-0.8114,-0.8127,-0.8201,-0.8166,-0.8209,-0.8233,-0.8236,-0.8244,-0.8247,-0.8242,-0.8223,-0.8198,-0.8176,-0.8171,-0.8168,-0.8198,-0.8253,-0.8247,-0.8155,-0.8157,-0.8089,-0.7921,-0.7933,-0.7933,-0.7933,-0.7933,-0.7933,-0.7933,-0.7933,-0.7933,-0.7933,-0.7845,-0.7796,-0.772,-0.7622,-0.7578,-0.7671,-0.7568,-0.7502,-0.7497,-0.7472,-0.7415,-0.7342,-0.7288,-0.7296,-0.7288,-0.7306,-0.7453,-0.7527,-0.7638,-0.7733,-0.7911,-0.7788,-0.7713,-0.7911,-0.8199,-0.854,-0.8744,-0.8958,-0.9443,-0.9631,-0.976,-1.0416,-1.1009,-1.1038,-1.118,-1.1562,-1.171,-1.1883,-1.2099,-1.2333,-1.2888,-1.307,-1.3579,-1.3836,-1.4032,-1.4098,-1.4138,-1.4211,-1.4201,-1.4244,-1.4304,-1.4298,-1.4298,-0.8399,-0.8418,-0.8418,-0.8418,-0.8397,-0.8228,-0.8117,-0.8128,-0.8117,-0.8086,-0.8056,-0.8076,-0.8201,-0.8301,-0.8272,-0.8301,-0.8339,-0.8166,-0.8122,-0.8187,-0.8114,-0.8117,-0.8106,-0.8065,-0.8037,-0.7975,-0.8034,-0.8048,-0.8045,-0.8015,-0.8012,-0.804,-0.807,-0.8122,-0.8157,-0.8204,-0.8272,-0.8337,-0.8394,-0.8397,-0.8356,-0.8331,-0.8304,-0.8242,-0.8239,-0.8242,-0.8261,-0.8269,-0.8277,-0.8155,-0.8168,-0.8092,-0.7981,-0.7977,-0.7933,-0.7933,-0.7933,-0.7933,-0.7933,-0.7933,-0.7933,-0.793,-0.793,-0.7845,-0.7782,-0.7693,-0.766,-0.7782,-0.7687,-0.763,-0.76,-0.7554,-0.7456,-0.7388,-0.7317,-0.7296,-0.7296,-0.7345,-0.7385,-0.7456,-0.7527,-0.7622,-0.7706,-0.7649,-0.7613,-0.7704,-0.78,-0.7868,-0.7813,-0.7651,-0.8252,-0.8902,-0.9046,-0.9231,-0.9793,-1.0134,-1.0137,-1.0388,-1.0375,-1.0613,-1.0874,-1.1269,-1.188,-1.2384,-1.2745,-1.3001,-1.3265,-1.3617,-1.3944,-1.3998,-1.405,-1.4148,-1.425,-1.4298,-1.4298,-0.8274,-0.8326,-0.8329,-0.8361,-0.8399,-0.8255,-0.8176,-0.8155,-0.8155,-0.813,-0.8111,-0.8141,-0.825,-0.832,-0.8244,-0.8293,-0.8443,-0.8089,-0.8057,-0.8103,-0.8084,-0.8095,-0.8086,-0.8086,-0.8092,-0.8098,-0.8111,-0.8128,-0.8065,-0.8032,-0.7986,-0.7926,-0.8076,-0.8087,-0.8095,-0.8174,-0.8272,-0.8339,-0.8451,-0.8448,-0.838,-0.8397,-0.8356,-0.8312,-0.8221,-0.8229,-0.8318,-0.8337,-0.8337,-0.8269,-0.8223,-0.8174,-0.8098,-0.8062,-0.8002,-0.7985,-0.7969,-0.7933,-0.7933,-0.7933,-0.7933,-0.7925,-0.7839,-0.782,-0.7845,-0.7758,-0.7728,-0.7837,-0.7752,-0.7717,-0.7717,-0.766,-0.7589,-0.7519,-0.7401,-0.7363,-0.7391,-0.7399,-0.741,-0.7467,-0.7519,-0.7519,-0.7587,-0.7625,-0.7603,-0.7573,-0.7478,-0.7361,-0.7237,-0.7083,-0.7369,-0.813,-0.8124,-0.819,-0.8409,-0.8889,-0.9002,-0.9218,-0.9214,-0.9529,-0.992,-1.0355,-1.0932,-1.1404,-1.1878,-1.2456,-1.2866,-1.3297,-1.3724,-1.3811,-1.3864,-1.4082,-1.4154,-1.425,-1.4298,-0.8174,-0.8144,-0.8147,-0.8217,-0.8402,-0.8166,-0.8198,-0.8356,-0.8375,-0.831,-0.8244,-0.8334,-0.8348,-0.8242,-0.8353,-0.8342,-0.8213,-0.8111,-0.8169,-0.8119,-0.8029,-0.8095,-0.8117,-0.8054,-0.8046,-0.819,-0.8168,-0.8166,-0.8204,-0.8233,-0.8144,-0.8133,-0.8127,-0.8119,-0.8108,-0.8141,-0.8206,-0.8272,-0.8367,-0.8372,-0.8326,-0.8345,-0.8391,-0.8402,-0.8407,-0.8451,-0.8549,-0.8532,-0.8489,-0.8405,-0.8359,-0.8285,-0.8187,-0.8139,-0.8078,-0.8029,-0.7971,-0.7939,-0.7933,-0.7933,-0.7933,-0.7842,-0.7799,-0.7769,-0.782,-0.7646,-0.7657,-0.779,-0.7709,-0.7739,-0.779,-0.7831,-0.7706,-0.7646,-0.7568,-0.7527,-0.7497,-0.7475,-0.7489,-0.751,-0.7519,-0.7519,-0.7519,-0.7568,-0.7641,-0.7619,-0.7589,-0.7475,-0.7375,-0.7254,-0.7073,-0.7331,-0.7294,-0.7223,-0.7079,-0.7418,-0.7882,-0.8153,-0.8217,-0.87,-0.9183,-0.962,-0.9962,-1.056,-1.111,-1.1785,-1.2511,-1.2927,-1.3301,-1.3488,-1.3684,-1.3823,-1.4064,-1.425,-1.4298,-0.7986,-0.7943,-0.794,-0.8125,-0.8413,-0.8318,-0.8329,-0.8407,-0.8418,-0.8397,-0.8359,-0.8532,-0.8565,-0.8494,-0.8484,-0.8503,-0.8437,-0.8331,-0.8288,-0.8296,-0.8299,-0.8296,-0.8285,-0.825,-0.8299,-0.8388,-0.8337,-0.8337,-0.8446,-0.8426,-0.8375,-0.8304,-0.8201,-0.8046,-0.8019,-0.8079,-0.8119,-0.816,-0.8236,-0.8269,-0.8266,-0.8272,-0.8339,-0.8416,-0.8418,-0.8478,-0.8562,-0.8581,-0.856,-0.8513,-0.8454,-0.8353,-0.8242,-0.8122,-0.8095,-0.8032,-0.7963,-0.7939,-0.7933,-0.7933,-0.7933,-0.7908,-0.7777,-0.7728,-0.7785,-0.7614,-0.7565,-0.7611,-0.7641,-0.7679,-0.7744,-0.7763,-0.7722,-0.7709,-0.7682,-0.7638,-0.7606,-0.7581,-0.757,-0.7592,-0.7551,-0.7519,-0.7519,-0.7524,-0.7603,-0.7665,-0.7635,-0.7595,-0.7497,-0.7421,-0.7296,-0.7176,-0.7133,-0.7086,-0.7005,-0.6998,-0.6926,-0.7105,-0.7343,-0.7715,-0.8246,-0.8557,-0.8974,-0.9618,-1.0375,-1.1194,-1.1875,-1.2489,-1.2905,-1.3249,-1.34,-1.3539,-1.3823,-1.4178,-1.428,-0.7933,-0.7933,-0.7933,-0.8038,-0.8293,-0.831,-0.8353,-0.8416,-0.8418,-0.8443,-0.8484,-0.8677,-0.8728,-0.8666,-0.8687,-0.8698,-0.8668,-0.8587,-0.8538,-0.8524,-0.8532,-0.8538,-0.8481,-0.8437,-0.8426,-0.8535,-0.8492,-0.8465,-0.856,-0.8581,-0.8497,-0.8375,-0.8255,-0.8127,-0.804,-0.8016,-0.8119,-0.8079,-0.8122,-0.8149,-0.8133,-0.8166,-0.8201,-0.8299,-0.8323,-0.8413,-0.8505,-0.8552,-0.856,-0.8511,-0.8448,-0.8291,-0.8242,-0.8125,-0.8016,-0.8007,-0.7952,-0.7933,-0.7933,-0.7933,-0.7933,-0.7917,-0.7815,-0.7769,-0.7725,-0.7646,-0.7625,-0.7657,-0.7627,-0.7619,-0.7725,-0.7777,-0.7788,-0.7782,-0.778,-0.7744,-0.7714,-0.769,-0.7674,-0.7671,-0.7638,-0.7638,-0.7592,-0.7603,-0.7633,-0.7712,-0.7741,-0.7703,-0.763,-0.7565,-0.7519,-0.7399,-0.7301,-0.7255,-0.7198,-0.7078,-0.6962,-0.6843,-0.6978,-0.6802,-0.7172,-0.7575,-0.808,-0.8787,-0.9618,-1.0541,-1.132,-1.2004,-1.2545,-1.3012,-1.3229,-1.3505,-1.3842,-1.4206,-1.4328,-0.7933,-0.7933,-0.7933,-0.7948,-0.8136,-0.8128,-0.8198,-0.8388,-0.8416,-0.8473,-0.8573,-0.8715,-0.8758,-0.8758,-0.8804,-0.8845,-0.8842,-0.878,-0.8745,-0.8731,-0.8736,-0.8641,-0.8587,-0.8568,-0.859,-0.8557,-0.8513,-0.8508,-0.8603,-0.8592,-0.8524,-0.847,-0.8394,-0.831,-0.822,-0.8106,-0.8122,-0.8119,-0.8128,-0.8062,-0.7967,-0.8081,-0.807,-0.8133,-0.8195,-0.8296,-0.8402,-0.8481,-0.8475,-0.8421,-0.8405,-0.8256,-0.8209,-0.8111,-0.8103,-0.807,-0.7915,-0.7877,-0.7877,-0.7939,-0.7944,-0.7936,-0.7837,-0.7831,-0.7826,-0.7766,-0.7682,-0.7684,-0.7687,-0.7722,-0.7801,-0.7847,-0.7831,-0.7845,-0.7839,-0.7828,-0.7796,-0.7782,-0.7763,-0.7752,-0.7799,-0.782,-0.7747,-0.7701,-0.7703,-0.775,-0.7818,-0.7799,-0.7722,-0.7671,-0.7619,-0.7505,-0.7385,-0.7326,-0.7241,-0.7097,-0.6948,-0.682,-0.6714,-0.6638,-0.6608,-0.6935,-0.7498,-0.8082,-0.882,-0.9658,-1.0617,-1.1573,-1.2063,-1.26,-1.3291,-1.3645,-1.3947,-1.4213,-1.4329,-0.7933,-0.7933,-0.7933,-0.7955,-0.7943,-0.8086,-0.8149,-0.8293,-0.8386,-0.8484,-0.8595,-0.8717,-0.8717,-0.8712,-0.8785,-0.8859,-0.8848,-0.8849,-0.8891,-0.8902,-0.8967,-0.9003,-0.8929,-0.8812,-0.8807,-0.8834,-0.8723,-0.8581,-0.8712,-0.8633,-0.8581,-0.8535,-0.85,-0.8416,-0.8253,-0.8125,-0.8119,-0.8038,-0.7986,-0.791,-0.788,-0.798,-0.8034,-0.8106,-0.8098,-0.8182,-0.8288,-0.8356,-0.8348,-0.8304,-0.8299,-0.8236,-0.8141,-0.8111,-0.8075,-0.8023,-0.7877,-0.7915,-0.8023,-0.8048,-0.801,-0.7974,-0.7941,-0.7853,-0.7769,-0.7733,-0.7693,-0.7665,-0.7663,-0.7684,-0.772,-0.775,-0.7763,-0.7845,-0.7861,-0.7861,-0.7845,-0.7847,-0.7842,-0.7837,-0.7861,-0.7861,-0.7815,-0.778,-0.7777,-0.7785,-0.7845,-0.7807,-0.7736,-0.7698,-0.7649,-0.7527,-0.7418,-0.7306,-0.7223,-0.7154,-0.7018,-0.6885,-0.6771,-0.6676,-0.6662,-0.6678,-0.6898,-0.7504,-0.8101,-0.8741,-0.9745,-1.0724,-1.1531,-1.2192,-1.284,-1.3568,-1.3976,-1.4172,-1.4329,-0.7933,-0.7933,-0.7933,-0.7933,-0.7944,-0.8018,-0.8079,-0.8244,-0.8402,-0.8522,-0.8603,-0.8712,-0.8736,-0.872,-0.8812,-0.8894,-0.891,-0.9019,-0.9076,-0.9022,-0.9215,-0.9185,-0.9103,-0.8944,-0.8913,-0.8932,-0.878,-0.8633,-0.8677,-0.8622,-0.8587,-0.8579,-0.8581,-0.8505,-0.8356,-0.8239,-0.8125,-0.8087,-0.8002,-0.7883,-0.7933,-0.7949,-0.7913,-0.7978,-0.8035,-0.816,-0.8163,-0.8198,-0.8148,-0.819,-0.8157,-0.8114,-0.8097,-0.8043,-0.801,-0.7952,-0.7941,-0.7996,-0.8075,-0.8108,-0.8019,-0.8027,-0.7964,-0.7877,-0.7788,-0.7777,-0.7739,-0.7695,-0.7633,-0.7674,-0.7741,-0.7755,-0.7785,-0.793,-0.7933,-0.7933,-0.7933,-0.7933,-0.7933,-0.7933,-0.7933,-0.7933,-0.7933,-0.7925,-0.7847,-0.7856,-0.793,-0.7812,-0.7761,-0.7731,-0.7695,-0.7592,-0.7489,-0.7434,-0.7353,-0.723,-0.7095,-0.695,-0.6877,-0.6823,-0.6921,-0.6964,-0.6907,-0.6929,-0.7569,-0.8227,-0.8977,-0.9892,-1.0847,-1.1725,-1.2437,-1.3127,-1.3838,-1.419,-1.4356,-0.7808,-0.7808,-0.775,-0.7635,-0.7697,-0.7493,-0.7799,-0.8186,-0.8475,-0.8512,-0.8472,-0.8455,-0.8277,-0.8462,-0.8638,-0.8552,-0.8552,-0.8728,-0.8902,-0.9074,-0.9072,-0.9103,-0.9095,-0.8917,-0.8902,-0.878,-0.8663,-0.8595,-0.8592,-0.8557,-0.8557,-0.856,-0.8524,-0.8484,-0.8402,-0.8285,-0.819,-0.8133,-0.7992,-0.7891,-0.7933,-0.7853,-0.7867,-0.7907,-0.7954,-0.8062,-0.806,-0.8114,-0.8111,-0.8084,-0.8106,-0.8037,-0.798,-0.7936,-0.7933,-0.7933,-0.7933,-0.8004,-0.8095,-0.8122,-0.8119,-0.8144,-0.8122,-0.8073,-0.7971,-0.7856,-0.7812,-0.7809,-0.7793,-0.782,-0.7856,-0.785,-0.785,-0.7933,-0.7933,-0.7933,-0.7933,-0.7933,-0.7933,-0.7933,-0.7933,-0.7933,-0.7933,-0.7933,-0.7908,-0.7933,-0.7933,-0.7925,-0.7818,-0.7788,-0.775,-0.7695,-0.76,-0.7521,-0.7423,-0.7326,-0.7239,-0.7116,-0.7119,-0.7095,-0.7206,-0.7185,-0.7131,-0.7126,-0.7293,-0.7769,-0.8423,-0.9374,-1.0428,-1.1159,-1.1691,-1.2671,-1.3403,-1.4151,-1.4521,-0.5963,-0.5046,-0.5038,-0.5062,-0.5079,-0.5177,-0.6319,-0.8068,-0.8405,-0.8013,-0.7016,-0.7181,-0.6791,-0.5621,-0.5606,-0.5857,-0.6308,-0.6756,-0.729,-0.776,-0.833,-0.8765,-0.8839,-0.8623,-0.8744,-0.8674,-0.8593,-0.8446,-0.8562,-0.8522,-0.8467,-0.8459,-0.8405,-0.8369,-0.8304,-0.8187,-0.819,-0.8141,-0.7973,-0.7894,-0.7834,-0.7793,-0.7812,-0.7858,-0.7831,-0.7877,-0.7945,-0.7973,-0.7964,-0.8007,-0.7988,-0.7952,-0.7947,-0.7933,-0.7933,-0.7933,-0.7944,-0.7985,-0.8103,-0.8136,-0.8204,-0.8253,-0.8266,-0.8187,-0.8057,-0.7948,-0.7905,-0.796,-0.7896,-0.7902,-0.7941,-0.7933,-0.7933,-0.7933,-0.7933,-0.7933,-0.7933,-0.7933,-0.7928,-0.7834,-0.7837,-0.7807,-0.7815,-0.7823,-0.7809,-0.7908,-0.7928,-0.7917,-0.7861,-0.7828,-0.7796,-0.7744,-0.766,-0.7565,-0.7529,-0.7445,-0.7375,-0.7307,-0.7323,-0.7301,-0.7271,-0.7298,-0.7345,-0.7325,-0.7413,-0.75,-0.774,-0.8714,-0.9595,-1.0155,-1.0731,-1.1899,-1.2989,-1.3545,-1.4228,-0.4638,-0.3943,-0.3914,-0.3879,-0.3916,-0.4002,-0.5071,-0.6444,-0.6758,-0.623,-0.5656,-0.5667,-0.5181,-0.4562,-0.4559,-0.4923,-0.5726,-0.5787,-0.6247,-0.7185,-0.7189,-0.6993,-0.7157,-0.7332,-0.7342,-0.7633,-0.791,-0.7892,-0.8186,-0.835,-0.8345,-0.8339,-0.8255,-0.818,-0.8206,-0.8144,-0.8108,-0.8051,-0.7959,-0.7867,-0.7799,-0.7731,-0.7747,-0.7818,-0.7758,-0.7774,-0.7853,-0.793,-0.7933,-0.7933,-0.7933,-0.7933,-0.7933,-0.7933,-0.7933,-0.7933,-0.7936,-0.7999,-0.8108,-0.8166,-0.8239,-0.8242,-0.8369,-0.8326,-0.8231,-0.8122,-0.8038,-0.7978,-0.7956,-0.7934,-0.7899,-0.7933,-0.7933,-0.7933,-0.7933,-0.7933,-0.7933,-0.7933,-0.7839,-0.7796,-0.7761,-0.7722,-0.772,-0.7739,-0.775,-0.7758,-0.7766,-0.7771,-0.7809,-0.7845,-0.782,-0.7785,-0.769,-0.7595,-0.7568,-0.7548,-0.7494,-0.7481,-0.757,-0.7527,-0.7467,-0.7402,-0.7489,-0.7433,-0.7412,-0.7571,-0.7685,-0.793,-0.8652,-0.9177,-0.9687,-1.0625,-1.1633,-1.246,-1.3212,-0.3675,-0.351,-0.3579,-0.3376,-0.3541,-0.3412,-0.3589,-0.3768,-0.3926,-0.3999,-0.4106,-0.412,-0.3979,-0.3351,-0.3436,-0.4148,-0.4514,-0.4471,-0.4836,-0.6579,-0.5691,-0.5236,-0.5133,-0.4724,-0.5697,-0.6206,-0.6425,-0.6616,-0.7583,-0.7514,-0.7269,-0.7988,-0.7914,-0.7911,-0.8151,-0.8111,-0.813,-0.81,-0.7894,-0.7763,-0.7782,-0.7706,-0.7625,-0.7804,-0.7777,-0.7733,-0.7834,-0.7933,-0.7933,-0.7933,-0.7933,-0.7933,-0.7933,-0.7933,-0.7933,-0.7933,-0.7933,-0.798,-0.8024,-0.8147,-0.8266,-0.828,-0.8418,-0.8426,-0.8367,-0.8233,-0.8127,-0.8084,-0.8068,-0.8011,-0.8034,-0.8002,-0.7988,-0.7955,-0.7933,-0.7933,-0.7933,-0.7839,-0.7766,-0.7714,-0.7649,-0.7616,-0.7619,-0.7638,-0.7682,-0.7671,-0.7722,-0.7739,-0.7736,-0.7809,-0.7839,-0.7881,-0.7763,-0.7679,-0.7616,-0.76,-0.7595,-0.7627,-0.7701,-0.7709,-0.7565,-0.7584,-0.7649,-0.763,-0.7606,-0.7633,-0.7717,-0.7988,-0.8104,-0.8239,-0.8794,-0.9388,-1.022,-1.1166,-1.2363,-0.1856,-0.0927,-0.0948,-0.0901,0.0,-0.0926,0.0,-0.102,-0.1026,-0.1718,-0.2486,-0.2645,-0.217,-0.1473,-0.1477,-0.1897,-0.2029,-0.2896,-0.3019,-0.38,-0.3791,-0.3807,-0.421,-0.3881,-0.4395,-0.4706,-0.4937,-0.5153,-0.5579,-0.5528,-0.5743,-0.6584,-0.6664,-0.6928,-0.7903,-0.7925,-0.7924,-0.8038,-0.7864,-0.7777,-0.7823,-0.7703,-0.7619,-0.7731,-0.7733,-0.7714,-0.7796,-0.7933,-0.7933,-0.7933,-0.7933,-0.7933,-0.7933,-0.7933,-0.7933,-0.7933,-0.7933,-0.796,-0.7964,-0.81,-0.8231,-0.8331,-0.841,-0.8503,-0.8481,-0.8329,-0.8233,-0.8209,-0.8168,-0.8108,-0.8111,-0.8081,-0.8048,-0.7999,-0.7941,-0.7941,-0.7936,-0.7782,-0.7698,-0.7622,-0.7546,-0.7524,-0.7524,-0.7557,-0.7595,-0.7674,-0.778,-0.7807,-0.7722,-0.7744,-0.7839,-0.7842,-0.7914,-0.7788,-0.7703,-0.7663,-0.7663,-0.7619,-0.7641,-0.7668,-0.7695,-0.7638,-0.7603,-0.772,-0.7758,-0.7687,-0.7676,-0.7851,-0.7914,-0.7958,-0.8176,-0.888,-0.9064,-0.9834,-1.122,-0.0683,0.0,0.0,0.0,0.0,0.0,0.0,0.0,0.0,-0.0408,-0.1092,-0.1179,0.0,0.0,0.0,-0.0491,-0.0767,-0.105,-0.19,-0.2386,-0.2231,-0.2099,0.0,0.0,-0.2914,-0.3101,-0.3995,-0.4288,-0.4016,-0.4176,-0.47,-0.5131,-0.5274,-0.5824,-0.7054,-0.7236,-0.7496,-0.8046,-0.7803,-0.7828,-0.7853,-0.7693,-0.7652,-0.7733,-0.775,-0.7733,-0.779,-0.7933,-0.7933,-0.7933,-0.7933,-0.7933,-0.7933,-0.7933,-0.7933,-0.7933,-0.7933,-0.7933,-0.7926,-0.8032,-0.8182,-0.8282,-0.8391,-0.8478,-0.8568,-0.8435,-0.8383,-0.8353,-0.832,-0.8263,-0.8176,-0.813,-0.8125,-0.8089,-0.8005,-0.8018,-0.7847,-0.7717,-0.7638,-0.7568,-0.7489,-0.7421,-0.7442,-0.751,-0.7557,-0.7641,-0.7755,-0.7809,-0.7739,-0.7709,-0.7796,-0.7853,-0.7858,-0.782,-0.772,-0.7712,-0.7741,-0.7687,-0.76,-0.7663,-0.7703,-0.7589,-0.7546,-0.7635,-0.7649,-0.7551,-0.7587,-0.7815,-0.8027,-0.8127,-0.8276,-0.8461,-0.8605,-0.8891,-1.0069,0.0,0.0,0.0,0.0,0.0,0.0,0.0,0.0,0.0,0.0,0.0,0.0,0.0,0.0,0.0,0.0,-0.1272,-0.0632,-0.1057,-0.1196,-0.0702,0.0,0.0,0.0,0.0,-0.1869,-0.2666,-0.3048,-0.3101,-0.3029,-0.3056,-0.3489,-0.3981,-0.4409,-0.5386,-0.5938,-0.6221,-0.7193,-0.7472,-0.7646,-0.7669,-0.7665,-0.7709,-0.775,-0.7771,-0.7763,-0.782,-0.7864,-0.7864,-0.7933,-0.7933,-0.7933,-0.7933,-0.7933,-0.7933,-0.7933,-0.7933,-0.7933,-0.7902,-0.7994,-0.8119,-0.8231,-0.8348,-0.8454,-0.8543,-0.8557,-0.8505,-0.8478,-0.8446,-0.8394,-0.8307,-0.8191,-0.8188,-0.8214,-0.8117,-0.8092,-0.7872,-0.7706,-0.7619,-0.7546,-0.7459,-0.738,-0.741,-0.7475,-0.7559,-0.7638,-0.769,-0.7722,-0.7747,-0.7755,-0.7799,-0.7834,-0.7842,-0.7788,-0.772,-0.7731,-0.7763,-0.7674,-0.76,-0.7682,-0.7714,-0.763,-0.7557,-0.751,-0.7497,-0.7577,-0.7685,-0.7883,-0.8076,-0.834,-0.8537,-0.8672,-0.8847,-0.9101,-0.9344,0.0,0.0,0.0,0.0,0.0,0.0,0.0,0.0,0.0,0.0,0.0,0.0,0.0,0.0,0.0,0.0,0.0,0.0,0.0,-0.0208,0.0,0.0,0.0,0.0,0.0,0.0,0.0,0.0,0.0,0.0,-0.141,-0.2333,-0.2394,-0.3114,-0.4369,-0.4723,-0.5036,-0.6004,-0.6545,-0.6595,-0.7609,-0.7635,-0.7703,-0.7714,-0.7714,-0.7717,-0.7752,-0.7826,-0.7856,-0.7933,-0.7941,-0.7947,-0.7952,-0.7955,-0.7888,-0.7933,-0.7933,-0.7933,-0.7971,-0.8034,-0.8079,-0.8201,-0.832,-0.844,-0.8519,-0.8579,-0.8549,-0.8554,-0.8522,-0.8486,-0.8418,-0.8388,-0.8372,-0.8288,-0.8195,-0.8127,-0.8016,-0.7834,-0.769,-0.7597,-0.7502,-0.7459,-0.7451,-0.7535,-0.7644,-0.7712,-0.7766,-0.7782,-0.7703,-0.7744,-0.7807,-0.782,-0.7837,-0.7782,-0.7725,-0.7728,-0.7731,-0.7644,-0.7611,-0.7695,-0.7731,-0.7701,-0.7638,-0.7707,-0.7726,-0.783,-0.794,-0.8113,-0.8386,-0.8696,-0.8897,-0.9063,-0.9198,-0.9261,-0.9457]},{"header":{"parameterUnit":"m.s-1","parameterCategory":1,"la1":31.0,"la2":29.5877,"lo1":-88.7671,"lo2":-86.6584,"dy":0.0162,"dx":0.0185,"nx":115,"ny":88,"refTime":"2023-04-23T00:00:00:Z","depth":0,"parameterNumber":3,"parameterNumberName":"V-component_of_WINDS"},"data":[0.0,0.0,0.0,0.0,0.0,0.0,0.0,0.0,0.0,0.0,0.0,0.0,0.0,0.0,0.0,0.0,0.0,0.0,0.0,0.0,0.0,0.0,0.0,0.0,0.0,0.0,0.0,0.0,0.0,0.0,0.0,0.0,0.0,0.0,0.0,0.0,0.0,0.0,0.0,0.0,0.0,0.0,0.0,0.0,0.0,0.0,0.0,0.0,0.0,0.0,0.0,0.0,0.0,0.0,0.0,0.0,0.0,0.0,0.0,0.0,0.0,0.0,0.0,0.0,0.0,0.0,0.0,0.0,0.0,0.0,0.0,0.0,0.0,0.0,0.0,0.0,0.0,0.0,0.0,0.0,0.0,0.0,0.0,0.0,0.0,0.0,0.0,0.0,0.0,0.0,0.0,0.0,0.0,0.0,0.0,0.0,0.0,0.0,0.0,0.0,0.0,0.0,0.0,0.0,0.0,0.0,0.0,0.0,0.0,0.0,0.0,0.0,0.0,0.0,0.0,0.0,0.0,0.0,0.0,0.0,0.0,0.0,0.0,0.0,0.0,0.0,0.0,0.0,0.0,0.0,0.0,0.0,0.0,0.0,0.0,0.0,0.0,0.0,0.0,0.0,0.0,0.0,0.0,0.0,0.0,0.0,0.0,0.0,0.0,0.0,0.0,0.0,0.0,0.0,0.0,0.0,0.0,0.0,0.0,0.0,0.0,0.0,0.0,0.0,0.0,0.0,0.0,0.0,0.0,0.0,0.0,0.0,0.0,0.0,0.0,0.0,0.0,0.0,0.0,0.0,0.0,0.0,0.0,0.0,0.0,0.0,0.0,0.0,0.0,0.0,0.0,0.0,0.0,0.0,0.0,0.0,0.0,0.0,0.0,0.0,0.0,0.0,0.0,0.0,0.0,0.0,0.0,0.0,0.0,0.0,0.0,0.0,0.0,0.0,0.0,0.0,0.0,0.0,0.0,0.0,0.0,0.0,0.0,0.0,0.0,0.0,0.0,0.0,0.0,0.0,0.0,0.0,0.0,0.0,0.0,0.0,0.0,0.0,0.0,0.0,0.0,0.0,0.0,0.0,0.0,0.0,0.0,0.0,0.0,0.0,0.0,0.0,0.0,0.0,0.0,0.0,0.0,0.0,0.0,0.0,0.0,0.0,0.0,0.0,0.0,0.0,0.0,0.0,0.0,0.0,0.0,0.0,0.0,0.0,0.0,0.0,0.0,0.0,0.0,0.0,0.0,0.0,0.0,0.0,0.0,0.0,0.0,0.0,0.0,0.0,0.0,0.0,0.0,0.0,0.0,0.0,0.0,0.0,0.0,0.0,0.0,0.0,0.0,0.0,0.0,0.0,0.0,0.0,0.0,0.0,0.0,0.0,0.0,0.0,0.0,0.0,0.0,0.0,0.0,0.0,0.0,0.0,0.0,0.0,0.0,0.0,0.0,0.0,0.0,0.0,0.0,0.0,0.0,0.0,0.0,0.0,0.0,0.0,0.0,0.0,0.0,0.0,0.0,0.0,0.0,0.0,0.0,0.0,0.0,0.0,0.0,0.0,0.0,0.0,0.0,0.0,0.0,0.0,0.0,0.0,0.0,0.0,0.0,0.0,0.0,0.0,0.0,0.0,0.0,0.0,0.0,0.0,0.0,0.0,0.0,0.0,0.0,0.0,0.0,0.0,0.0,0.0,0.0,0.0,0.0,0.0,0.0,0.0,0.0,0.0,0.0,0.0,0.0,0.0,0.0,0.0,0.0,0.0,0.0,0.0,0.0,0.0,0.0,0.0,0.0,0.0,0.0,0.0,0.0,0.0,0.0,0.0,0.0,0.0,0.0,0.0,0.0,0.0,0.0,0.0,0.0,0.0,0.0,0.0,0.0,0.0,0.0,0.0,0.0,0.0,0.0,0.0,0.0,0.0,0.0,0.0,0.0,0.0,0.0,0.0,0.0,0.0,0.0,0.0,0.0,0.0,0.0,0.0,0.0,0.0,0.0,0.0,0.0,0.0,0.0,0.0,0.0,0.0,0.0,0.0,0.0,0.0,0.0,0.0,0.0,0.0,0.0,0.0,0.0,0.0,0.0,0.0,0.0,0.0,0.0,0.0,0.0,0.0,0.0,0.0,0.0,0.0,0.0,0.0,0.0,0.0,0.0,0.0,0.0,0.0,0.0,0.0,0.0,0.0,0.0,0.0,0.0,0.0,0.0,0.0,0.0,0.0,0.0,0.0,0.0,0.0,0.0,0.0,0.0,0.0,0.0,0.0,0.0,0.0,0.0,0.0,0.0,0.0,0.0,0.0,0.0,0.0,0.0,0.0,0.0,0.0,0.0,0.0,0.0,0.0,0.0,0.0,0.0,0.0,0.0,0.0,0.0,0.0,0.0,0.0,0.0,0.0,0.0,0.0,0.0,0.0,0.0,0.0,0.0,0.0,0.0,0.0,0.0,0.0,0.0,0.0,0.0,0.0,0.0,0.0,0.0,0.0,0.0,0.0,0.0,0.0,0.0,0.0,0.0,0.0,0.0,0.0,0.0,0.0,0.0,0.0,0.0,0.0,0.0,0.0,0.0,0.0,0.0,0.0,0.0,0.0,0.0,0.0,0.0,0.0,0.0,0.0,0.0,0.0,0.0,0.0,0.0,0.0,0.0,0.0,0.0,0.0,0.0,0.0,0.0,0.0,0.0,0.0,0.0,0.0,0.0,0.0,0.0,0.0,0.0,0.0,0.0,0.0,0.0,0.0,0.0,0.0,0.0,0.0,0.0,0.0,0.0,0.0,0.0,0.0,0.0,0.0,0.0,0.0,0.0,0.0,0.0,0.0,0.0,0.0,0.0,0.0,0.0,0.0,0.0,0.0,0.0,0.0,0.0,0.0,0.0,0.0,0.0,0.0,0.0,0.0,0.0,0.0,0.0,0.0,0.0,0.0,0.0,0.0,0.0,0.0,0.0,0.0,0.0,0.0,0.0,0.0,0.0,0.0,0.0,0.0,0.0,0.0,0.0,0.0,0.0,0.0,0.0,0.0,0.0,0.0,0.0,0.0,0.0,0.0,0.0,0.0,0.0,0.0,0.0,0.0,0.0,0.0,0.0,0.0,0.0,0.0,0.0,0.0,0.0,0.0,0.0,0.0,0.0,0.0,0.0,0.0,0.0,0.0,0.0,0.0,0.0,0.0,0.0,0.0,0.0,0.0,0.0,0.0,0.0,0.0,0.0,0.0,0.0,0.0,0.0,0.0,0.0,0.0,0.0,0.0,0.0,0.0,0.0,0.0,0.0,0.0,0.0,0.0,0.0,0.0,0.0,0.0,0.0,0.0,0.0,0.0,0.0,0.0,0.0,0.0,0.0,0.0,0.0,0.0,0.0,0.0,0.0,0.0,0.0,0.0,0.0,0.0,0.0,0.0,0.0,0.0,0.0,0.0,0.0,0.0,0.0,0.0,0.0,0.0,0.0,0.0,0.0,0.0,0.0,0.0,0.0,0.0,0.0,0.0,0.0,0.0,0.0,0.0,0.0,0.0,0.0,0.0,0.0,0.0,0.0,0.0,0.0,0.0,0.0,0.0,0.0,0.0,0.0,0.0,0.0,0.0,0.0,0.0,0.0,0.0,0.0,0.0,0.0,0.0,0.0,0.0,0.0,0.0,0.0,0.0,0.0,0.0,0.0,0.0,0.0,0.0,0.0,0.0,0.0,0.0,0.0,0.0,0.0,0.0,0.0,0.0,0.0,0.0,0.0,0.0,0.0,0.0,0.0,0.0,0.0,0.0,0.0,0.0,0.0,0.0,0.0,0.0,0.0,0.0,0.0,0.0,0.0,0.0,0.0,0.0,0.0,0.0,0.0,0.0,0.0,0.0,0.0,0.0,0.0,0.0,0.0,0.0,0.0,0.0,0.0,0.0,0.0,0.0,0.0,0.0,0.0,0.0,0.0,0.0,0.0,0.0,0.0,0.0,0.0,0.0,0.0,0.0,0.0,0.0,0.0,0.0,0.0,0.0,0.0,0.0,0.0,0.0,0.0,0.0,0.0,0.0,0.0,0.0,0.0,0.0,0.0,0.0,0.0,0.0,0.0,0.0,0.0,0.0,0.0,0.0,0.0,0.0,0.0,0.0,0.0,0.0,0.0,0.0,0.0,0.0,0.0,0.0,0.0,0.0,0.0,0.0,0.0,0.0,0.0,0.0,0.0,0.0,0.0,0.0,0.0,0.0,0.0,0.0,0.0,0.0,0.0,0.0,0.0,0.0,0.0,0.0,0.0,0.0,0.0,0.0,2.0337,0.0,0.0,0.0,0.0,0.0,0.0,0.0,0.0,0.0,0.0,0.0,0.0,0.0,0.0,0.0,0.0,0.0,0.0,0.0,0.0,0.0,0.0,0.0,0.0,0.0,0.0,0.0,0.0,0.0,0.0,0.0,0.0,0.0,0.0,0.0,0.0,0.0,0.0,0.0,0.0,0.0,0.0,0.0,0.0,0.0,0.0,0.0,0.0,0.0,0.0,0.0,0.0,0.0,0.0,0.0,0.0,0.0,0.0,0.0,0.0,0.0,0.0,0.0,0.0,0.0,0.0,0.0,0.0,0.0,0.0,0.0,0.0,0.0,0.0,0.0,0.0,0.0,0.0,0.0,0.0,0.0,0.0,0.0,0.0,0.0,0.0,0.0,0.0,0.0,0.0,0.0,0.0,0.0,0.0,0.0,0.0,0.0,0.0,0.0,0.0,0.0,0.0,0.0,0.0,0.0,0.0,0.0,0.0,0.0,0.0,2.0343,2.0618,2.0639,2.0621,2.0467,0.0,0.0,0.0,0.0,0.0,0.0,0.0,0.0,0.0,0.0,0.0,0.0,0.0,0.0,0.0,0.0,0.0,0.0,0.0,0.0,0.0,0.0,0.0,0.0,0.0,0.0,0.0,0.0,0.0,0.0,0.0,0.0,0.0,0.0,0.0,0.0,0.0,0.0,0.0,0.0,0.0,0.0,0.0,0.0,0.0,0.0,0.0,0.0,0.0,0.0,0.0,0.0,0.0,0.0,0.0,0.0,0.0,0.0,0.0,0.0,0.0,0.0,0.0,0.0,0.0,0.0,0.0,0.0,0.0,0.0,0.0,0.0,0.0,0.0,0.0,0.0,0.0,0.0,0.0,0.0,0.0,0.0,0.0,0.0,0.0,0.0,0.0,0.0,0.0,0.0,0.0,0.0,0.0,0.0,0.0,0.0,0.0,0.0,0.0,0.0,0.0,0.0,0.0,0.0,0.0,0.0,0.0,0.0,0.0,0.0,0.0,0.0,2.094,2.07,2.0472,0.0,0.0,0.0,0.0,0.0,0.0,0.0,0.0,0.0,0.0,0.0,0.0,0.0,0.0,0.0,0.0,0.0,0.0,0.0,0.0,0.0,0.0,0.0,0.0,0.0,0.0,0.0,0.0,0.0,0.0,0.0,0.0,0.0,0.0,0.0,0.0,0.0,0.0,0.0,0.0,0.0,0.0,0.0,0.0,0.0,0.0,0.0,0.0,0.0,0.0,0.0,0.0,0.0,0.0,0.0,0.0,0.0,0.0,0.0,0.0,0.0,0.0,0.0,0.0,0.0,0.0,0.0,0.0,0.0,0.0,0.0,0.0,0.0,0.0,0.0,0.0,0.0,0.0,0.0,0.0,0.0,0.0,0.0,0.0,0.0,0.0,0.0,0.0,0.0,0.0,0.0,0.0,0.0,0.0,0.0,0.0,0.0,0.0,0.0,0.0,0.0,0.0,0.0,0.0,0.0,0.0,0.0,0.0,0.0,0.0,2.0704,2.0845,2.1376,0.0,2.0117,0.0,0.0,0.0,0.0,0.0,0.0,0.0,0.0,0.0,0.0,0.0,0.0,0.0,0.0,0.0,0.0,0.0,0.0,0.0,0.0,0.0,0.0,0.0,0.0,0.0,0.0,0.0,0.0,0.0,0.0,0.0,0.0,0.0,0.0,0.0,0.0,0.0,0.0,0.0,0.0,0.0,0.0,0.0,0.0,0.0,0.0,0.0,0.0,0.0,0.0,0.0,0.0,0.0,0.0,0.0,0.0,0.0,0.0,0.0,0.0,0.0,0.0,0.0,0.0,0.0,0.0,0.0,0.0,0.0,0.0,0.0,0.0,0.0,0.0,0.0,0.0,0.0,0.0,0.0,0.0,0.0,0.0,0.0,0.0,0.0,0.0,0.0,0.0,0.0,0.0,0.0,0.0,0.0,0.0,0.0,0.0,0.0,0.0,0.0,0.0,0.0,0.0,0.0,0.0,0.0,0.0,0.0,0.0,0.0,0.0,2.1317,2.1753,2.1551,2.0876,0.0,0.0,0.0,0.0,0.0,0.0,0.0,0.0,0.0,0.0,0.0,0.0,0.0,0.0,0.0,0.0,0.0,0.0,0.0,0.0,0.0,0.0,0.0,0.0,0.0,0.0,0.0,0.0,0.0,0.0,0.0,0.0,0.0,0.0,0.0,0.0,0.0,0.0,0.0,0.0,0.0,0.0,0.0,0.0,0.0,0.0,0.0,0.0,0.0,0.0,0.0,0.0,0.0,0.0,0.0,0.0,0.0,0.0,0.0,0.0,0.0,0.0,0.0,0.0,0.0,0.0,0.0,0.0,0.0,0.0,0.0,0.0,0.0,0.0,0.0,0.0,0.0,0.0,0.0,0.0,0.0,0.0,0.0,0.0,0.0,0.0,0.0,0.0,0.0,0.0,0.0,0.0,0.0,0.0,0.0,0.0,0.0,0.0,0.0,0.0,0.0,0.0,0.0,0.0,0.0,0.0,0.0,0.0,0.0,0.0,2.1449,2.1611,2.2161,2.1489,2.0634,1.9621,0.0,0.0,0.0,0.0,0.0,0.0,0.0,0.0,0.0,0.0,0.0,0.0,0.0,0.0,0.0,0.0,0.0,0.0,0.0,0.0,0.0,0.0,0.0,0.0,0.0,0.0,0.0,0.0,0.0,0.0,0.0,0.0,0.0,0.0,0.0,0.0,0.0,0.0,0.0,0.0,0.0,0.0,0.0,0.0,0.0,0.0,0.0,0.0,0.0,0.0,0.0,0.0,0.0,0.0,0.0,0.0,0.0,0.0,0.0,0.0,0.0,0.0,0.0,0.0,0.0,0.0,0.0,0.0,0.0,0.0,0.0,0.0,0.0,0.0,0.0,0.0,0.0,0.0,0.0,0.0,0.0,0.0,0.0,0.0,0.0,0.0,0.0,0.0,0.0,0.0,0.0,0.0,0.0,0.0,0.0,0.0,0.0,0.0,0.0,0.0,0.0,0.0,0.0,0.0,0.0,0.0,0.0,0.0,2.15,2.1277,2.1338,2.1789,2.125,2.0605,0.0,0.0,0.0,0.0,0.0,0.0,0.0,0.0,0.0,0.0,0.0,0.0,0.0,0.0,0.0,0.0,0.0,0.0,0.0,0.0,0.0,0.0,0.0,0.0,0.0,0.0,0.0,0.0,0.0,0.0,0.0,0.0,0.0,0.0,0.0,0.0,0.0,0.0,0.0,0.0,0.0,0.0,0.0,0.0,0.0,0.0,0.0,0.0,0.0,0.0,0.0,0.0,0.0,0.0,0.0,0.0,0.0,0.0,0.0,0.0,0.0,0.0,0.0,0.0,0.0,0.0,0.0,0.0,0.0,0.0,0.0,0.0,0.0,0.0,0.0,0.0,0.0,0.0,0.0,0.0,0.0,0.0,0.0,0.0,0.0,0.0,0.0,0.0,0.0,0.0,0.0,0.0,0.0,0.0,0.0,0.0,0.0,0.0,0.0,0.0,0.0,0.0,0.0,0.0,0.0,0.0,0.0,0.0,0.0,2.1925,2.1606,2.1454,2.1516,2.1325,2.0766,0.0,0.0,0.0,0.0,0.0,0.0,0.0,0.0,0.0,0.0,0.0,0.0,0.0,0.0,0.0,0.0,0.0,0.0,0.0,0.0,0.0,0.0,0.0,0.0,0.0,0.0,0.0,0.0,0.0,0.0,0.0,0.0,0.0,0.0,0.0,0.0,0.0,0.0,0.0,0.0,0.0,0.0,0.0,0.0,0.0,0.0,0.0,0.0,0.0,0.0,0.0,0.0,0.0,0.0,0.0,0.0,0.0,0.0,0.0,0.0,0.0,0.0,0.0,0.0,0.0,0.0,0.0,0.0,0.0,0.0,0.0,0.0,0.0,0.0,0.0,0.0,0.0,0.0,0.0,0.0,0.0,0.0,0.0,0.0,0.0,0.0,0.0,0.0,0.0,0.0,0.0,0.0,0.0,0.0,0.0,0.0,0.0,0.0,0.0,0.0,0.0,0.0,0.0,0.0,0.0,0.0,0.0,0.0,0.0,2.2285,0.0,2.2035,2.1683,2.1708,2.1141,0.0,0.0,0.0,0.0,0.0,0.0,0.0,0.0,0.0,0.0,0.0,0.0,0.0,0.0,0.0,0.0,0.0,0.0,0.0,0.0,0.0,0.0,0.0,0.0,0.0,0.0,0.0,0.0,0.0,0.0,0.0,0.0,0.0,0.0,0.0,0.0,0.0,0.0,0.0,0.0,0.0,0.0,0.0,0.0,0.0,0.0,0.0,0.0,0.0,0.0,0.0,0.0,0.0,0.0,0.0,0.0,0.0,0.0,0.0,0.0,0.0,0.0,0.0,0.0,0.0,0.0,0.0,0.0,0.0,0.0,0.0,0.0,0.0,0.0,0.0,0.0,0.0,0.0,0.0,0.0,0.0,0.0,0.0,0.0,0.0,0.0,0.0,0.0,0.0,0.0,0.0,0.0,0.0,0.0,0.0,0.0,0.0,0.0,0.0,0.0,0.0,0.0,0.0,0.0,0.0,0.0,0.0,0.0,2.2593,2.2542,2.3069,2.2978,2.2332,2.2278,2.1711,0.0,0.0,0.0,0.0,0.0,0.0,0.0,0.0,0.0,0.0,0.0,0.0,0.0,0.0,0.0,0.0,0.0,0.0,0.0,0.0,0.0,0.0,0.0,0.0,0.0,0.0,0.0,0.0,0.0,0.0,0.0,0.0,0.0,0.0,0.0,0.0,0.0,0.0,0.0,0.0,0.0,0.0,0.0,0.0,0.0,0.0,0.0,0.0,0.0,0.0,0.0,0.0,0.0,0.0,0.0,0.0,0.0,0.0,0.0,0.0,0.0,0.0,0.0,0.0,0.0,0.0,0.0,0.0,0.0,0.0,0.0,0.0,0.0,0.0,0.0,0.0,0.0,0.0,0.0,0.0,0.0,0.0,0.0,0.0,0.0,0.0,0.0,0.0,0.0,0.0,0.0,0.0,0.0,0.0,0.0,0.0,0.0,0.0,0.0,0.0,0.0,0.0,0.0,0.0,0.0,0.0,0.0,0.0,0.0,2.3137,2.3211,2.2969,2.2346,2.2305,2.1724,0.0,0.0,0.0,0.0,0.0,0.0,0.0,0.0,0.0,0.0,0.0,0.0,0.0,0.0,0.0,0.0,0.0,0.0,0.0,0.0,0.0,0.0,0.0,0.0,0.0,0.0,0.0,0.0,0.0,0.0,0.0,0.0,0.0,0.0,0.0,0.0,0.0,0.0,0.0,0.0,0.0,0.0,0.0,0.0,0.0,0.0,0.0,0.0,0.0,0.0,0.0,0.0,0.0,0.0,0.0,0.0,0.0,0.0,0.0,0.0,0.0,0.0,0.0,0.0,0.0,0.0,0.0,0.0,0.0,0.0,0.0,0.0,0.0,0.0,0.0,0.0,0.0,0.0,0.0,0.0,0.0,0.0,0.0,0.0,0.0,0.0,0.0,0.0,0.0,0.0,0.0,0.0,0.0,0.0,0.0,0.0,0.0,0.0,0.0,0.0,0.0,0.0,0.0,0.0,0.0,0.0,0.0,0.0,0.0,2.4014,2.3933,2.3581,2.2997,2.2766,2.2158,2.1223,0.0,0.0,0.0,0.0,0.0,0.0,0.0,0.0,0.0,0.0,0.0,0.0,0.0,0.0,0.0,0.0,0.0,0.0,0.0,0.0,0.0,0.0,0.0,0.0,0.0,0.0,0.0,0.0,0.0,0.0,0.0,0.0,0.0,0.0,0.0,0.0,0.0,0.0,0.0,0.0,0.0,0.0,0.0,0.0,0.0,0.0,0.0,0.0,0.0,0.0,0.0,0.0,0.0,0.0,0.0,0.0,0.0,0.0,0.0,0.0,0.0,0.0,0.0,0.0,0.0,0.0,0.0,0.0,0.0,0.0,0.0,0.0,0.0,0.0,0.0,0.0,0.0,0.0,0.0,0.0,0.0,0.0,0.0,0.0,0.0,0.0,0.0,0.0,0.0,0.0,0.0,0.0,0.0,0.0,0.0,0.0,0.0,0.0,0.0,0.0,0.0,0.0,0.0,0.0,0.0,0.0,0.0,0.0,2.5046,2.5059,2.4706,2.4082,2.3581,2.2984,0.0,0.0,0.0,0.0,0.0,0.0,0.0,0.0,0.0,0.0,0.0,0.0,0.0,0.0,0.0,0.0,0.0,0.0,0.0,0.0,0.0,0.0,0.0,0.0,0.0,0.0,0.0,0.0,0.0,0.0,0.0,0.0,0.0,0.0,0.0,0.0,0.0,0.0,0.0,0.0,0.0,0.0,0.0,0.0,0.0,0.0,0.0,0.0,0.0,0.0,0.0,0.0,0.0,0.0,0.0,0.0,0.0,0.0,0.0,0.0,0.0,0.0,0.0,0.0,0.0,0.0,0.0,0.0,0.0,0.0,0.0,0.0,0.0,0.0,0.0,0.0,0.0,0.0,0.0,0.0,0.0,0.0,0.0,0.0,0.0,0.0,0.0,0.0,0.0,0.0,0.0,0.0,0.0,0.0,0.0,0.0,0.0,0.0,0.0,0.0,0.0,0.0,0.0,0.0,0.0,0.0,0.0,0.0,0.0,2.5629,2.5656,2.5168,2.415,2.4367,2.3838,0.0,0.0,0.0,0.0,0.0,0.0,0.0,0.0,0.0,0.0,0.0,0.0,0.0,0.0,0.0,0.0,0.0,0.0,0.0,0.0,0.0,0.0,0.0,0.0,0.0,0.0,0.0,0.0,0.0,0.0,0.0,0.0,0.0,0.0,0.0,0.0,0.0,0.0,0.0,0.0,0.0,0.0,0.0,0.0,0.0,0.0,0.0,0.0,0.0,0.0,0.0,0.0,0.0,0.0,0.0,0.0,0.0,0.0,0.0,0.0,0.0,0.0,0.0,0.0,0.0,0.0,0.0,0.0,0.0,0.0,0.0,0.0,0.0,0.0,0.0,0.0,0.0,0.0,0.0,0.0,0.0,0.0,0.0,0.0,0.0,0.0,0.0,0.0,0.0,0.0,0.0,0.0,0.0,0.0,0.0,0.0,0.0,0.0,0.0,0.0,0.0,0.0,0.0,0.0,0.0,0.0,0.0,0.0,2.5168,2.5507,2.5765,2.5439,2.4517,2.48,2.4394,0.0,0.0,0.0,0.0,0.0,0.0,0.0,0.0,0.0,0.0,0.0,0.0,0.0,0.0,0.0,0.0,0.0,0.0,0.0,0.0,0.0,0.0,0.0,0.0,0.0,0.0,0.0,0.0,0.0,0.0,0.0,0.0,0.0,0.0,0.0,0.0,0.0,0.0,0.0,0.0,0.0,0.0,0.0,0.0,0.0,0.0,0.0,0.0,0.0,0.0,0.0,0.0,0.0,0.0,0.0,0.0,0.0,0.0,0.0,0.0,0.0,0.0,0.0,0.0,0.0,0.0,0.0,0.0,0.0,0.0,0.0,0.0,0.0,0.0,0.0,0.0,0.0,0.0,0.0,0.0,0.0,0.0,0.0,0.0,0.0,0.0,0.0,0.0,0.0,0.0,0.0,0.0,0.0,0.0,0.0,0.0,0.0,0.0,0.0,0.0,0.0,0.0,0.0,0.0,0.0,0.0,0.0,0.0,2.5032,2.5113,2.5615,2.5643,2.5127,2.51,2.4788,0.0,0.0,0.0,0.0,0.0,0.0,0.0,0.0,0.0,0.0,0.0,0.0,0.0,0.0,0.0,0.0,0.0,0.0,0.0,0.0,0.0,0.0,0.0,0.0,0.0,0.0,0.0,0.0,0.0,0.0,0.0,0.0,0.0,0.0,0.0,0.0,0.0,0.0,0.0,0.0,0.0,0.0,0.0,0.0,0.0,0.0,0.0,0.0,0.0,0.0,0.0,0.0,0.0,0.0,0.0,0.0,0.0,0.0,0.0,0.0,0.0,0.0,0.0,0.0,0.0,0.0,0.0,0.0,0.0,0.0,0.0,0.0,0.0,0.0,0.0,0.0,0.0,0.0,0.0,0.0,0.0,0.0,0.0,0.0,0.0,0.0,0.0,0.0,0.0,0.0,0.0,0.0,0.0,0.0,0.0,0.0,0.0,0.0,0.0,0.0,0.0,0.0,0.0,0.0,0.0,0.0,0.0,0.0,2.5236,2.5683,2.5848,2.5833,2.571,2.5697,2.5195,0.0,0.0,0.0,0.0,0.0,0.0,0.0,0.0,0.0,0.0,0.0,0.0,0.0,0.0,0.0,0.0,0.0,0.0,0.0,0.0,0.0,0.0,0.0,0.0,0.0,0.0,0.0,0.0,0.0,0.0,0.0,0.0,0.0,0.0,0.0,0.0,0.0,0.0,0.0,0.0,0.0,0.0,0.0,0.0,0.0,0.0,0.0,0.0,2.5697,0.0,0.0,0.0,0.0,0.0,0.0,0.0,0.0,0.0,0.0,0.0,0.0,0.0,0.0,0.0,0.0,0.0,0.0,0.0,0.0,0.0,0.0,0.0,0.0,0.0,0.0,0.0,0.0,0.0,0.0,0.0,0.0,0.0,0.0,0.0,0.0,0.0,0.0,0.0,0.0,0.0,0.0,0.0,0.0,0.0,0.0,0.0,0.0,0.0,0.0,0.0,0.0,0.0,0.0,0.0,0.0,0.0,0.0,0.0,2.5426,2.6267,2.5765,2.5602,2.5889,2.5615,2.5181,0.0,0.0,0.0,0.0,0.0,0.0,0.0,0.0,0.0,0.0,0.0,0.0,0.0,0.0,0.0,0.0,0.0,0.0,0.0,0.0,0.0,0.0,0.0,0.0,0.0,0.0,0.0,0.0,0.0,0.0,0.0,0.0,0.0,0.0,0.0,0.0,0.0,0.0,0.0,0.0,0.0,0.0,0.0,0.0,0.0,0.0,0.0,0.0,0.0,0.0,0.0,0.0,0.0,0.0,0.0,0.0,0.0,0.0,0.0,0.0,0.0,0.0,0.0,0.0,0.0,0.0,0.0,0.0,0.0,0.0,0.0,0.0,0.0,0.0,0.0,0.0,0.0,0.0,0.0,0.0,0.0,0.0,0.0,0.0,0.0,0.0,0.0,0.0,0.0,0.0,0.0,0.0,0.0,0.0,0.0,0.0,0.0,0.0,0.0,0.0,0.0,0.0,0.0,0.0,0.0,0.0,0.0,2.5427,2.5683,2.6698,2.5805,2.552,2.6009,2.5548,2.5236,2.5127,0.0,0.0,0.0,0.0,0.0,0.0,0.0,0.0,0.0,0.0,0.0,0.0,0.0,0.0,0.0,0.0,0.0,0.0,0.0,0.0,0.0,0.0,0.0,0.0,0.0,0.0,0.0,0.0,0.0,0.0,0.0,0.0,0.0,0.0,0.0,0.0,0.0,0.0,2.7247,2.7583,0.0,0.0,0.0,0.0,0.0,0.0,0.0,0.0,2.6915,0.0,0.0,0.0,0.0,0.0,0.0,0.0,0.0,0.0,0.0,0.0,0.0,0.0,0.0,0.0,0.0,0.0,0.0,0.0,0.0,0.0,0.0,0.0,0.0,0.0,0.0,0.0,0.0,0.0,0.0,0.0,0.0,0.0,0.0,0.0,0.0,0.0,0.0,0.0,0.0,0.0,0.0,0.0,0.0,0.0,0.0,0.0,0.0,0.0,0.0,0.0,0.0,0.0,0.0,0.0,0.0,2.6062,2.5952,2.6222,2.6766,2.6603,2.6549,2.6644,2.6549,2.6251,2.5765,0.0,0.0,0.0,0.0,0.0,0.0,0.0,0.0,0.0,0.0,0.0,0.0,0.0,0.0,0.0,0.0,0.0,0.0,0.0,0.0,0.0,0.0,0.0,0.0,0.0,0.0,0.0,0.0,0.0,0.0,0.0,0.0,0.0,0.0,0.0,0.0,0.0,0.0,0.0,2.8695,2.8627,0.0,0.0,0.0,0.0,0.0,0.0,0.0,0.0,2.6942,0.0,0.0,0.0,0.0,0.0,0.0,0.0,0.0,0.0,0.0,0.0,0.0,0.0,0.0,0.0,0.0,0.0,0.0,0.0,0.0,0.0,0.0,0.0,0.0,0.0,0.0,0.0,0.0,0.0,0.0,0.0,0.0,0.0,0.0,0.0,0.0,0.0,0.0,0.0,0.0,0.0,0.0,0.0,0.0,0.0,0.0,0.0,0.0,0.0,0.0,0.0,0.0,0.0,0.0,0.0,2.6634,2.6371,2.6692,2.7664,2.7118,2.6942,2.724,2.7077,2.6644,0.0,0.0,0.0,0.0,0.0,0.0,0.0,0.0,0.0,0.0,0.0,0.0,0.0,0.0,0.0,0.0,0.0,0.0,0.0,0.0,0.0,0.0,0.0,0.0,0.0,0.0,0.0,0.0,0.0,0.0,0.0,0.0,0.0,0.0,0.0,0.0,0.0,0.0,0.0,0.0,2.9034,2.9157,2.9475,0.0,0.0,0.0,0.0,0.0,0.0,2.8125,2.7732,0.0,0.0,0.0,0.0,0.0,0.0,0.0,0.0,0.0,0.0,0.0,0.0,0.0,0.0,0.0,0.0,0.0,0.0,0.0,0.0,0.0,0.0,0.0,0.0,0.0,0.0,0.0,0.0,0.0,0.0,0.0,0.0,0.0,0.0,0.0,0.0,0.0,0.0,0.0,0.0,0.0,0.0,0.0,0.0,0.0,0.0,0.0,0.0,0.0,0.0,0.0,0.0,0.0,0.0,0.0,2.7504,2.7239,2.7619,2.8675,2.7837,2.7564,2.8029,2.7714,2.7214,0.0,0.0,0.0,0.0,0.0,0.0,0.0,0.0,0.0,0.0,0.0,0.0,0.0,0.0,0.0,0.0,0.0,0.0,0.0,0.0,0.0,0.0,0.0,0.0,0.0,0.0,0.0,0.0,0.0,0.0,0.0,0.0,0.0,0.0,0.0,0.0,0.0,0.0,0.0,0.0,0.0,2.9597,2.9841,2.9665,0.0,0.0,0.0,0.0,2.8782,2.8763,0.0,0.0,0.0,0.0,0.0,0.0,0.0,0.0,0.0,0.0,0.0,0.0,0.0,0.0,0.0,0.0,0.0,0.0,0.0,0.0,0.0,0.0,0.0,0.0,0.0,0.0,0.0,0.0,0.0,0.0,0.0,0.0,0.0,0.0,0.0,0.0,0.0,0.0,0.0,0.0,0.0,0.0,0.0,0.0,0.0,0.0,0.0,0.0,0.0,0.0,0.0,0.0,0.0,0.0,0.0,0.0,2.8635,2.93,2.955,2.94,2.9254,2.9226,2.9282,2.9146,2.8696,0.0,0.0,0.0,0.0,0.0,0.0,0.0,0.0,0.0,0.0,0.0,0.0,0.0,0.0,0.0,0.0,0.0,0.0,0.0,0.0,0.0,0.0,0.0,0.0,0.0,0.0,0.0,0.0,0.0,0.0,0.0,0.0,0.0,0.0,0.0,0.0,0.0,0.0,0.0,0.0,0.0,3.003,3.0969,3.0195,2.9515,0.0,0.0,2.879,2.9325,2.9407,0.0,0.0,0.0,0.0,0.0,0.0,0.0,0.0,0.0,0.0,0.0,0.0,0.0,0.0,0.0,0.0,0.0,0.0,0.0,0.0,0.0,0.0,0.0,0.0,0.0,0.0,0.0,0.0,0.0,0.0,0.0,0.0,0.0,0.0,0.0,0.0,0.0,0.0,0.0,0.0,0.0,0.0,0.0,0.0,0.0,0.0,0.0,0.0,0.0,0.0,0.0,0.0,0.0,0.0,0.0,2.9004,2.9161,2.9924,3.0291,3.0317,3.024,3.0165,3.0179,3.0163,2.9821,0.0,0.0,0.0,0.0,0.0,0.0,0.0,0.0,0.0,0.0,0.0,0.0,0.0,0.0,0.0,0.0,0.0,0.0,0.0,0.0,0.0,0.0,0.0,0.0,0.0,0.0,0.0,0.0,0.0,0.0,0.0,0.0,0.0,0.0,0.0,0.0,0.0,0.0,0.0,0.0,0.0,0.0,3.1487,3.0964,0.0,0.0,0.0,2.9713,2.9971,0.0,0.0,0.0,0.0,0.0,0.0,0.0,0.0,0.0,0.0,0.0,0.0,0.0,0.0,0.0,0.0,0.0,0.0,0.0,0.0,0.0,0.0,0.0,0.0,0.0,0.0,0.0,0.0,0.0,0.0,0.0,0.0,0.0,0.0,0.0,0.0,0.0,0.0,0.0,0.0,0.0,0.0,0.0,0.0,0.0,0.0,0.0,0.0,0.0,0.0,0.0,0.0,0.0,0.0,0.0,0.0,0.0,3.0268,3.1,3.1511,3.1649,3.1575,3.1516,3.1531,3.153,0.0,0.0,0.0,0.0,0.0,0.0,0.0,0.0,0.0,0.0,0.0,0.0,0.0,0.0,0.0,0.0,0.0,0.0,0.0,0.0,0.0,0.0,0.0,0.0,0.0,0.0,0.0,3.049,0.0,0.0,0.0,0.0,0.0,0.0,0.0,0.0,0.0,0.0,0.0,0.0,0.0,0.0,3.1732,3.2256,3.2102,3.1858,0.0,0.0,3.0671,3.0418,2.9903,2.9515,0.0,0.0,0.0,0.0,0.0,0.0,0.0,0.0,0.0,0.0,0.0,0.0,0.0,0.0,0.0,0.0,0.0,0.0,0.0,0.0,0.0,0.0,0.0,0.0,0.0,0.0,0.0,0.0,0.0,0.0,0.0,0.0,0.0,0.0,0.0,0.0,0.0,0.0,0.0,0.0,0.0,0.0,0.0,0.0,0.0,0.0,0.0,0.0,0.0,0.0,0.0,0.0,0.0,0.0,3.2144,3.2683,3.3463,3.3808,3.3801,3.3787,3.3787,3.3787,3.3683,3.3165,0.0,0.0,0.0,0.0,0.0,0.0,0.0,0.0,0.0,0.0,0.0,0.0,0.0,0.0,0.0,0.0,0.0,0.0,0.0,0.0,0.0,0.0,0.0,0.0,0.0,0.0,0.0,0.0,0.0,0.0,0.0,0.0,0.0,0.0,0.0,0.0,0.0,0.0,0.0,0.0,0.0,3.3408,3.3709,3.3727,3.3325,0.0,3.1918,3.1433,3.0555,3.1295,3.1439,2.9941,0.0,0.0,0.0,0.0,0.0,0.0,0.0,0.0,0.0,0.0,0.0,0.0,0.0,0.0,0.0,0.0,0.0,0.0,0.0,0.0,0.0,0.0,0.0,0.0,0.0,0.0,0.0,0.0,0.0,0.0,0.0,0.0,0.0,0.0,0.0,0.0,0.0,0.0,0.0,0.0,0.0,0.0,0.0,0.0,0.0,0.0,0.0,0.0,0.0,0.0,0.0,0.0,0.0,3.2613,3.3134,3.3849,3.4427,3.4847,3.4778,3.4734,3.4749,3.456,3.4127,0.0,0.0,0.0,0.0,0.0,0.0,0.0,0.0,0.0,0.0,0.0,0.0,0.0,0.0,0.0,0.0,0.0,0.0,0.0,0.0,0.0,0.0,0.0,0.0,0.0,0.0,0.0,0.0,3.2311,3.2735,3.2483,0.0,0.0,0.0,0.0,0.0,0.0,0.0,0.0,0.0,0.0,3.4245,3.4762,3.5025,0.0,0.0,3.3431,3.2891,3.2148,3.1523,3.0918,3.0271,2.9748,0.0,0.0,0.0,0.0,0.0,0.0,0.0,0.0,0.0,0.0,0.0,0.0,0.0,0.0,0.0,0.0,0.0,0.0,0.0,0.0,0.0,0.0,0.0,0.0,0.0,0.0,0.0,0.0,0.0,0.0,0.0,0.0,0.0,0.0,0.0,0.0,0.0,0.0,0.0,0.0,0.0,0.0,0.0,0.0,0.0,0.0,0.0,0.0,0.0,0.0,0.0,0.0,3.3258,3.4043,3.4438,3.5078,3.5995,3.5925,3.5867,3.5883,3.5752,3.5256,0.0,0.0,0.0,0.0,0.0,0.0,0.0,0.0,0.0,0.0,0.0,0.0,0.0,0.0,0.0,0.0,0.0,0.0,0.0,0.0,0.0,0.0,0.0,0.0,0.0,0.0,0.0,0.0,3.3361,3.3709,3.3412,0.0,0.0,0.0,0.0,0.0,0.0,0.0,0.0,0.0,0.0,3.5223,3.5659,3.6106,3.6,3.492,3.4372,3.3775,3.3021,3.1876,3.1006,3.0945,0.0,0.0,0.0,0.0,0.0,0.0,0.0,0.0,0.0,0.0,0.0,0.0,0.0,0.0,0.0,0.0,0.0,0.0,0.0,0.0,0.0,0.0,0.0,0.0,0.0,0.0,0.0,3.823,0.0,0.0,3.7149,0.0,0.0,0.0,0.0,0.0,0.0,0.0,0.0,0.0,0.0,0.0,0.0,0.0,0.0,0.0,0.0,0.0,0.0,0.0,0.0,0.0,0.0,3.435,3.5699,3.5526,3.6055,3.7413,3.7462,3.746,3.746,3.7447,3.6798,3.5422,0.0,0.0,0.0,0.0,0.0,0.0,0.0,0.0,0.0,0.0,0.0,0.0,0.0,0.0,0.0,0.0,0.0,0.0,0.0,0.0,0.0,0.0,0.0,0.0,0.0,0.0,3.4259,3.3583,3.3161,0.0,0.0,0.0,0.0,0.0,0.0,0.0,0.0,0.0,3.4802,3.5899,3.663,3.6489,3.7044,3.6816,3.5019,3.4398,3.3763,3.2735,3.2382,3.2179,0.0,0.0,0.0,0.0,0.0,0.0,0.0,0.0,0.0,0.0,0.0,0.0,0.0,0.0,0.0,0.0,0.0,0.0,0.0,0.0,0.0,0.0,0.0,0.0,0.0,0.0,0.0,3.8128,3.8368,0.0,0.0,0.0,0.0,0.0,0.0,0.0,0.0,0.0,0.0,0.0,3.8715,3.8794,0.0,0.0,0.0,0.0,0.0,0.0,0.0,0.0,0.0,0.0,0.0,0.0,3.5735,3.6431,3.6963,3.7682,3.8601,3.8634,3.865,3.8606,3.865,3.8161,3.7208,0.0,0.0,0.0,0.0,0.0,0.0,0.0,0.0,0.0,0.0,0.0,0.0,0.0,0.0,0.0,0.0,0.0,0.0,0.0,0.0,0.0,0.0,0.0,0.0,0.0,3.5268,0.0,0.0,0.0,0.0,0.0,0.0,0.0,0.0,0.0,0.0,3.5086,3.5732,3.5989,3.6819,3.7333,3.7294,3.7794,3.7779,0.0,0.0,0.0,0.0,0.0,0.0,0.0,0.0,0.0,0.0,0.0,0.0,0.0,0.0,3.0608,2.8979,2.8602,2.8359,2.7911,0.0,0.0,0.0,0.0,0.0,0.0,0.0,0.0,0.0,0.0,0.0,0.0,0.0,0.0,3.9824,3.9893,3.9819,0.0,0.0,0.0,0.0,0.0,0.0,0.0,0.0,4.0318,4.0508,4.0575,4.0615,4.052,4.0298,4.004,3.9108,0.0,0.0,0.0,0.0,0.0,0.0,0.0,0.0,3.6701,3.7435,3.7891,3.8453,3.9156,3.9189,3.9189,3.9189,3.8941,3.8602,3.8114,3.7062,3.652,0.0,0.0,0.0,0.0,0.0,0.0,0.0,0.0,0.0,0.0,0.0,0.0,0.0,0.0,0.0,0.0,0.0,0.0,0.0,0.0,0.0,0.0,0.0,3.6528,0.0,0.0,0.0,0.0,0.0,0.0,0.0,0.0,0.0,3.575,3.644,3.7061,3.704,3.7495,3.786,3.7934,0.0,0.0,0.0,0.0,0.0,0.0,0.0,3.3378,3.276,3.2895,3.3216,3.3706,3.3581,3.3439,3.3455,0.0,0.0,3.0372,2.9903,2.9614,2.9183,2.8754,2.8439,2.8425,2.8312,2.8211,0.0,0.0,0.0,0.0,4.0117,0.0,0.0,0.0,4.2562,4.2666,0.0,4.2579,0.0,0.0,0.0,0.0,4.1593,4.2382,0.0,0.0,4.3313,4.3763,4.388,4.3728,4.3407,4.2856,4.2026,4.1271,4.0516,3.946,0.0,0.0,0.0,0.0,0.0,0.0,3.7313,3.8663,3.8404,3.8565,3.9252,3.9286,3.9242,3.9269,3.8598,3.8242,3.8166,3.7811,3.7565,3.7565,3.7006,0.0,0.0,0.0,0.0,0.0,0.0,0.0,0.0,0.0,0.0,0.0,0.0,0.0,0.0,0.0,0.0,0.0,0.0,0.0,0.0,3.7543,0.0,0.0,0.0,0.0,0.0,0.0,0.0,0.0,0.0,3.9044,3.7618,3.7852,3.8103,3.7946,0.0,0.0,0.0,0.0,3.7607,3.7207,3.6736,3.5989,3.4679,3.4729,3.4716,3.4227,0.0,0.0,3.5244,3.4551,3.4001,3.3954,3.3505,3.2951,3.2299,3.1528,3.1007,3.0812,2.9863,2.9059,2.8946,2.8783,2.8441,4.5181,0.0,0.0,0.0,0.0,4.3613,4.4253,4.4741,4.565,4.5756,4.5258,4.5212,0.0,0.0,0.0,0.0,0.0,0.0,4.4551,4.4527,4.4722,4.4851,4.4892,4.4528,4.4245,4.4072,4.3507,4.2851,4.2148,4.1813,4.0634,3.8672,0.0,0.0,0.0,0.0,3.9221,3.95,3.999,4.0295,4.0402,4.0402,4.0402,4.0402,4.0222,4.0085,4.0102,3.9457,3.9046,3.8993,3.8276,0.0,0.0,0.0,0.0,0.0,0.0,0.0,0.0,0.0,0.0,0.0,0.0,0.0,0.0,0.0,0.0,0.0,0.0,0.0,3.7733,3.818,3.8419,0.0,0.0,0.0,0.0,0.0,0.0,0.0,0.0,0.0,3.9857,3.9647,3.9352,0.0,0.0,3.8761,3.8821,3.8706,3.843,3.7899,3.7391,0.0,3.5941,3.5512,3.5203,3.5054,3.5606,3.6051,3.608,3.5833,3.5521,3.5061,3.4412,3.3754,3.3105,3.2532,3.2035,3.166,3.1285,3.0939,3.0685,3.0512,3.0294,4.8766,4.7192,4.6288,4.5838,4.5841,4.6601,4.7092,4.7379,4.8132,4.8085,4.7404,4.6995,4.6533,4.6022,4.5713,0.0,0.0,0.0,4.5847,4.5729,4.6055,4.62,4.618,4.5912,4.5785,4.5746,4.5199,4.4493,4.3742,4.3426,4.2352,4.0583,0.0,3.9547,3.9499,3.9935,4.0252,4.0446,4.0903,4.1105,4.1018,4.1018,4.1174,4.1486,4.1456,4.157,4.1864,4.1138,4.0676,4.0629,3.9595,3.8779,0.0,0.0,0.0,0.0,0.0,0.0,0.0,0.0,0.0,0.0,0.0,3.8747,3.803,0.0,0.0,0.0,3.771,3.8436,3.8957,3.9387,0.0,0.0,0.0,0.0,0.0,0.0,0.0,4.0319,4.0462,4.0619,4.1053,4.0734,4.0296,3.9782,3.947,3.9355,3.9408,0.0,3.9082,3.8854,3.8422,3.791,3.7295,3.683,3.6481,3.6273,3.6548,3.6832,3.6832,3.6627,3.625,3.5821,3.4968,3.4162,3.3767,3.3253,3.2698,3.218,3.19,3.1695,3.1445,3.1486,3.1408,5.1423,5.1223,4.9089,4.8483,4.8998,4.9041,4.9458,5.0148,5.0137,4.9825,4.9318,4.8275,4.7612,4.7279,4.6489,0.0,4.5731,4.6555,4.6861,4.6626,4.737,4.7697,4.7715,4.7656,4.7653,4.7617,4.6871,4.6069,4.5271,4.4476,4.368,4.2863,4.1416,4.0658,4.0615,4.0508,4.0771,4.1386,4.1277,4.1226,4.1296,4.1296,4.1679,4.2462,4.2326,4.2556,4.3256,4.2556,4.2116,4.2081,4.0753,3.9978,3.9909,0.0,0.0,0.0,0.0,0.0,0.0,0.0,0.0,0.0,0.0,0.0,0.0,0.0,0.0,3.8767,3.9435,0.0,4.0165,4.0814,0.0,0.0,0.0,4.1232,4.1232,4.134,4.1426,4.1426,0.0,0.0,4.1403,4.1238,4.0982,4.0607,4.0179,3.9961,4.0146,3.9833,3.9636,3.9841,3.9636,3.9213,3.855,3.8329,3.8121,3.77,3.7623,3.76,3.7616,3.6985,3.653,3.6403,3.5328,3.4408,3.437,3.3794,3.3118,3.258,3.2107,3.1761,3.1639,3.1787,3.1851,5.3168,5.3131,5.2579,5.1355,4.9782,5.0117,5.0717,5.1417,5.1186,5.0989,5.0805,4.9917,4.9122,4.8489,4.8267,4.8139,4.8086,4.8307,4.8364,4.8328,4.8513,4.8587,4.8569,4.8288,4.8132,4.8094,4.7575,4.6905,4.6087,4.5291,4.4512,4.3698,4.2727,4.2111,4.1804,4.1763,4.1637,4.1403,4.1363,4.1614,4.2096,4.2096,4.2479,4.3269,4.2682,4.2432,4.2606,4.1858,4.1441,4.1441,4.1076,4.0669,4.0219,4.008,0.0,0.0,0.0,0.0,0.0,0.0,0.0,0.0,0.0,4.1196,4.0446,0.0,4.0312,0.0,3.9898,4.0464,4.0901,4.119,0.0,0.0,4.1431,4.1498,4.1498,4.1538,4.156,4.156,4.156,4.1515,4.1426,4.1358,4.1267,4.1047,4.0806,4.0655,4.0704,4.0704,4.0549,4.022,4.0136,3.9943,3.9301,3.9228,3.9116,3.8984,3.8523,3.8362,3.8933,3.7916,3.6962,3.6712,3.5997,3.534,3.5023,3.4014,3.3385,3.3553,3.3258,3.2619,3.1818,3.2029,3.2284,5.3813,5.3813,5.3813,5.2968,5.172,5.1959,5.2335,5.2724,5.2548,5.2475,5.2419,5.1602,5.0766,5.0023,5.0023,5.0023,5.0005,5.0005,5.0023,5.0023,5.0005,4.9819,4.943,4.9214,4.8919,4.8569,4.8289,4.7772,4.7002,4.6525,4.592,4.5113,4.4655,4.4254,4.3841,4.33,4.2841,4.2551,4.2551,4.2939,4.3659,4.3695,4.3886,4.4245,4.3788,4.3491,4.3419,4.2617,4.2172,4.2172,4.1855,4.1551,4.1273,4.1283,4.1407,0.0,0.0,0.0,0.0,0.0,0.0,0.0,0.0,0.0,0.0,0.0,4.1613,4.1148,4.1348,4.1511,4.1652,4.1727,4.1679,4.1515,4.156,4.1604,4.1604,4.1604,4.1604,4.1604,4.1604,4.1582,4.1493,4.1493,4.1471,4.1386,4.1272,4.1175,4.1065,4.1105,4.1018,4.0689,4.0431,3.9928,3.9031,3.9142,3.9261,3.899,3.8663,3.8539,3.889,3.8029,3.7145,3.6962,3.6108,3.5423,3.5364,3.4252,3.3412,3.3534,3.3673,3.3192,3.2064,3.2297,3.2552,5.3813,5.3813,5.3813,5.3813,5.3813,5.3813,5.3813,5.3794,5.359,5.3497,5.346,5.2754,5.2067,5.1398,5.1398,5.1398,5.1398,5.1398,5.1398,5.1398,5.1398,5.0989,5.0265,5.0135,4.9745,4.9076,4.8964,4.8537,4.785,4.7738,4.7348,4.6661,4.6531,4.6362,4.6102,4.5021,4.4376,4.417,4.417,4.4587,4.5423,4.5441,4.5417,4.5384,4.5086,4.4851,4.4703,4.3814,4.3307,4.3272,4.2685,4.2425,4.2582,4.262,4.2755,0.0,4.3077,0.0,0.0,0.0,0.0,0.0,0.0,0.0,0.0,4.321,4.3285,4.3323,4.3212,4.3003,4.2606,4.2583,4.2403,4.1968,4.1886,4.1868,4.178,4.1762,4.174,4.1675,4.1675,4.1653,4.1604,4.1604,4.1604,4.1582,4.1582,4.1475,4.13,4.1255,4.1272,4.1255,4.0709,4.0059,3.91,3.9134,3.9289,3.8813,3.8494,3.842,3.8578,3.7812,3.7167,3.6978,3.6095,3.5385,3.5702,3.4603,3.3677,3.366,3.3811,3.3535,3.2538,3.2579,3.2554,5.3813,5.3813,5.3813,5.3813,5.3813,5.3813,5.3813,5.372,5.2419,5.1862,5.1844,5.1695,5.1546,5.1398,5.1398,5.1398,5.1398,5.1398,5.1398,5.1398,5.1398,5.1323,5.1119,5.0432,5.0023,4.9837,4.9206,4.8816,4.8649,4.8017,4.7627,4.746,4.6828,4.6795,4.7321,0.0,0.0,0.0,4.506,4.5441,4.6162,4.618,4.6447,4.6919,4.5743,0.0,4.4815,4.3501,4.2745,4.2765,4.2622,0.0,0.0,0.0,0.0,0.0,0.0,0.0,0.0,0.0,0.0,0.0,4.5698,4.5443,4.5241,4.5279,4.5279,4.513,4.5092,4.4978,4.4726,4.4706,4.4395,4.3646,4.3536,4.3302,4.267,4.256,4.2442,4.2133,4.2092,4.1963,4.1697,4.1604,4.1604,4.1661,4.1604,4.1582,4.1573,4.155,4.1498,4.152,4.127,4.1151,4.0849,4.0406,4.01,3.9849,3.8864,3.8503,3.8881,3.7943,3.6957,3.6758,3.6388,3.6054,3.5909,3.513,3.4607,3.525,3.4298,3.3283,3.2964,3.2943,3.2919,5.3813,5.3813,5.3813,5.3813,0.0,5.3813,5.3813,5.3757,5.2958,5.2587,5.2587,5.2587,5.2587,5.2587,5.2587,5.2605,5.2568,5.2587,5.2587,5.2587,5.2587,5.2159,5.1379,5.0952,5.0302,4.9503,4.9094,4.889,4.8872,4.8481,4.8296,4.8277,4.7868,4.7887,4.8277,4.8296,4.7881,4.7077,4.6691,4.6856,4.7572,4.7627,4.7589,4.7474,4.6742,0.0,0.0,0.0,0.0,0.0,0.0,0.0,0.0,4.5058,0.0,4.5847,4.5974,4.6211,4.6687,4.6814,4.7016,4.7456,4.7528,4.7124,4.6155,4.6133,4.6169,4.6045,4.6045,4.5919,4.5624,4.5586,4.5164,4.4172,4.4006,4.3698,4.2955,4.2792,4.2715,4.2541,4.2501,4.2402,4.2218,4.2555,4.2664,4.254,4.2837,4.2944,4.2685,4.2078,4.1516,4.1152,4.1064,4.088,4.0464,4.0525,4.0498,4.0276,3.9792,3.934,3.9305,3.8339,3.7471,3.7242,3.6434,3.5687,3.6056,3.5297,3.4566,3.4707,3.4334,3.382,3.3445,3.2809,3.2282,5.3943,5.3813,5.3813,5.3887,5.4017,5.3998,5.4017,5.3998,5.3868,0.0,0.0,5.3813,5.3813,5.3813,5.3813,5.3813,5.3813,5.3813,5.3813,5.3813,5.3813,5.3088,5.1844,5.1676,5.0878,4.9577,4.941,4.9336,4.9336,4.9336,4.928,4.9113,4.9113,4.9057,4.8909,4.889,4.889,4.8872,4.8259,4.824,4.8872,4.889,4.8541,4.7824,4.7675,4.7233,4.6426,4.6208,4.6099,4.6117,4.5991,4.6083,4.6338,4.6355,4.6446,4.6663,4.6663,4.6957,4.7563,4.7617,4.7874,4.8463,4.8481,4.7983,4.682,4.6739,4.6717,4.6717,4.6587,4.6359,4.6027,4.601,4.5516,4.4362,4.4234,4.3925,4.316,4.3014,4.3014,4.2941,4.2904,4.2885,4.2791,4.3278,4.369,4.3438,4.3623,4.4118,4.357,4.255,4.1639,4.0994,4.0906,4.0533,4.0024,4.013,4.0502,4.0481,4.0344,4.0042,3.941,3.8655,3.8146,3.8003,3.6478,3.6029,3.6473,3.561,3.4436,3.4037,3.409,3.412,3.341,3.2411,3.1694,5.4444,5.3813,5.3813,5.4203,5.4853,5.4834,5.4815,5.4778,5.411,5.3813,5.3813,5.3813,5.3813,5.3813,5.3813,5.3813,5.3813,5.3813,5.3813,5.3813,5.3813,5.3701,5.3441,5.2754,5.2308,5.2029,5.1379,5.1045,5.1045,5.1026,5.0673,5.0005,4.993,4.9615,4.8946,4.889,4.889,4.889,4.8779,4.8797,4.889,4.889,4.8801,4.8619,4.7953,4.7492,4.722,4.6593,4.6187,4.6187,4.6151,4.6536,4.7326,4.7363,4.773,4.8448,4.8521,4.828,4.774,4.7684,4.7424,4.6903,4.6847,4.7293,4.8409,4.7907,4.7534,4.7497,4.6921,4.6477,4.6409,4.6448,4.6136,4.5307,4.514,4.477,4.396,4.3849,4.3697,4.3371,4.33,4.3177,4.2959,4.3011,4.3174,4.2969,4.3343,4.3046,4.2781,4.2569,4.2294,4.1657,4.1446,4.1394,4.113,4.0783,4.0625,4.0502,4.0007,3.9691,3.9463,3.8813,3.8322,3.8164,3.769,3.7562,3.7799,3.6628,3.5642,3.5231,3.4119,3.272,3.2477,3.1935,3.1862,5.4537,5.3887,5.4277,5.4686,5.5058,5.5735,5.605,5.6027,5.539,5.4639,5.3926,5.3907,5.3926,5.3963,5.3963,5.3982,5.3963,5.3963,5.3963,5.3944,5.3497,5.3274,5.3107,5.2382,5.1768,5.1359,5.1397,5.0951,5.0242,5.0505,5.0488,5.0153,5.0562,5.0618,5.0283,5.0265,5.0265,5.0228,4.9837,4.9373,4.8927,4.9336,4.9337,4.8894,4.8468,4.8284,4.8212,4.786,4.7674,4.7674,4.7674,4.7858,4.8264,4.8301,4.8503,4.8836,4.8481,4.8091,4.772,4.7752,4.7636,4.7367,4.7721,4.8242,4.8988,4.7808,4.7218,4.7627,4.7348,4.733,4.7738,4.7813,4.7478,4.668,4.6605,4.6067,4.4971,4.4692,4.4443,4.3853,4.3728,4.3662,4.3474,4.3861,4.4014,4.3871,4.3885,4.3799,4.3242,4.3292,4.2978,4.1855,4.1271,4.1218,4.1499,4.1358,4.1113,4.1078,4.0797,4.0393,4.0077,3.955,3.9431,3.9269,3.8444,3.797,3.848,3.7126,3.6073,3.5704,3.505,3.389,3.3067,3.2535,3.2415,5.4951,5.4317,5.4764,5.5192,5.564,5.68,5.7338,5.7324,5.6738,5.5746,5.4583,5.4255,5.4109,5.4091,5.4091,5.4091,5.4091,5.4091,5.4091,5.4053,5.3456,5.3121,5.2975,5.2378,5.1746,5.1261,5.1748,5.1376,5.0423,5.0761,5.0894,5.0782,5.1042,5.1266,5.1489,5.147,5.147,5.1433,5.1042,5.0281,4.9243,4.9782,4.9726,4.8964,4.889,4.8909,4.8943,4.8943,4.8943,4.896,4.8978,4.8959,4.8942,4.896,4.8959,4.8903,4.8401,4.7955,4.7768,4.7613,4.7602,4.7722,4.8279,4.8634,4.8525,4.7385,4.6876,4.7601,4.7545,4.7694,4.8141,4.8308,4.8159,4.7564,4.7489,4.6913,4.582,4.5597,4.534,4.4674,4.4413,4.4302,4.4376,4.4692,4.473,4.4465,4.4711,4.4561,4.4012,4.3775,4.3033,4.2024,4.1258,4.1273,4.1678,4.1744,4.1666,4.1631,4.1552,4.113,4.0643,4.0362,4.0204,3.9888,3.8585,3.8041,3.8813,3.7602,3.6355,3.611,3.544,3.4616,3.3353,3.2929,3.2733,5.6221,5.5583,5.5117,5.5797,5.7207,5.8136,5.8523,5.8443,5.7725,5.6901,5.6069,5.495,5.4328,5.4108,5.4108,5.4107,5.4145,5.4109,5.4127,5.4126,5.4034,5.396,5.3922,5.3829,5.3811,5.3661,5.3718,5.3513,5.3157,5.3401,5.3251,5.2542,5.1216,5.0919,5.1607,5.17,5.17,5.17,5.2316,5.1782,5.0098,5.0079,4.9726,4.8927,4.889,4.8962,4.9084,4.9066,4.91,4.9181,4.9162,4.9162,4.9162,4.9162,4.9162,4.9162,4.9069,4.8751,4.8021,4.7236,4.6878,4.6803,4.7025,4.7118,4.7099,4.6878,4.7068,4.7703,4.7292,4.7015,4.6919,4.7071,4.7167,4.7167,4.7034,4.6701,4.6565,4.6496,4.6408,4.6306,4.5579,4.5175,4.5135,4.4711,4.4249,4.4281,4.4221,4.4162,4.3809,4.3298,4.279,4.214,4.2136,4.2341,4.217,4.2136,4.1923,4.1652,4.1626,4.1341,4.0768,4.0035,3.9427,3.955,3.8725,3.8339,3.862,3.7988,3.6937,3.6619,3.5513,3.3652,3.2774,3.2599,3.2559,5.6417,5.5306,5.5556,5.6668,5.8211,5.8844,5.9357,5.9805,5.9215,5.8619,5.7906,5.604,5.5015,5.4731,5.4208,5.4246,5.4731,5.475,5.4769,5.4678,5.4116,5.4027,5.4357,5.3742,5.3451,5.3507,5.3884,5.3379,5.2217,5.1977,5.1737,5.1474,5.1158,5.1551,5.2335,5.241,5.2652,5.31,5.297,5.2281,5.1167,5.0982,5.0367,4.9228,4.9079,4.9115,4.9148,4.9166,4.9164,4.9197,4.9197,4.9197,4.9197,4.9197,4.9197,4.9176,4.8747,4.8146,4.7389,4.7461,4.7551,4.7597,4.8065,4.8347,4.8365,4.8347,4.8534,4.8687,4.8025,4.7644,4.8055,4.8167,4.8186,4.8167,4.8167,4.7983,4.7484,4.7413,4.7247,4.6728,4.632,4.6118,4.5962,4.53,4.4822,4.4692,4.4413,4.413,4.4369,4.4239,4.4042,4.3872,4.4078,4.3248,4.1829,4.1568,4.1686,4.1731,4.2014,4.1993,4.0978,4.0654,4.0202,3.9437,3.8679,3.8465,3.9126,3.8111,3.706,3.6917,3.6338,3.4652,3.3898,3.3389,3.3018,5.726,5.6332,5.6932,5.7953,5.9115,5.96,6.0165,6.0721,6.0394,5.9959,5.9305,5.7068,5.5964,5.5604,5.4249,5.404,5.4772,5.4849,5.4982,5.5103,5.4384,5.4449,5.5059,5.4393,5.4097,5.4288,5.4307,5.3138,5.1155,5.07,5.0651,5.0867,5.1189,5.1787,5.2573,5.2835,5.3394,5.4049,5.3583,5.2891,5.2143,5.1806,5.0892,4.9382,4.9197,4.9195,4.9228,4.9228,4.9244,4.9279,4.9279,4.9279,4.9279,4.9279,4.9279,4.9241,4.8736,4.8187,4.7653,4.8156,4.849,4.8607,4.9171,4.9509,4.9509,4.9509,4.9509,4.9437,4.8818,4.868,4.9148,4.9279,4.9279,4.9297,4.9279,4.8998,4.8442,4.8349,4.8109,4.7495,4.7236,4.6919,4.6616,4.6071,4.5669,4.5595,4.5154,4.4859,4.5454,4.5602,4.5512,4.5324,4.5101,4.3915,4.1738,4.1542,4.1778,4.1632,4.1938,4.1555,4.0879,4.0715,4.0258,3.888,3.8477,3.8176,3.8254,3.7516,3.7027,3.711,3.6564,3.5583,3.4635,3.4161,3.3599,5.9199,5.9165,5.9553,5.9553,5.9872,6.0558,6.0974,6.0964,6.0993,6.0586,5.9736,5.8016,5.7223,5.6984,5.4292,5.327,5.3957,5.4148,5.4562,5.5186,5.5167,5.5581,5.6396,5.6383,5.6695,5.6861,5.5422,5.3785,5.1939,5.1322,5.1326,5.1759,5.1246,5.1233,5.2081,5.2848,5.3583,5.4279,5.4206,5.3847,5.3057,5.2252,5.097,4.9415,4.9232,4.93,4.9292,4.9308,4.9377,4.9474,4.9474,4.9474,4.9493,4.9474,4.9474,4.9456,4.9437,4.9399,4.9287,4.9305,4.9377,4.9415,4.9434,4.9509,4.9509,4.9509,4.9509,4.949,4.9399,4.9384,4.944,4.9459,4.9459,4.9459,4.9474,4.9352,4.9233,4.9121,4.9185,4.8928,4.8352,4.7735,4.6934,4.6613,4.6549,4.6533,4.6413,4.6362,4.6399,4.6455,4.6178,4.5565,4.4899,4.3915,4.3292,4.2362,4.1879,4.1738,4.1267,4.051,4.0039,3.9607,3.8996,3.8545,3.8489,3.8123,3.7427,3.7027,3.6872,3.68,3.6621,3.5848,3.5162,3.4847,3.432,5.9041,5.8066,5.8181,5.8236,5.8333,5.9145,5.9803,6.0383,6.0886,6.0963,6.0422,5.8874,5.8139,5.7995,5.5808,5.4978,5.5247,5.5247,5.5421,5.5738,5.6091,5.6445,5.6683,5.6575,5.6613,5.6715,5.5668,5.4436,5.3232,5.198,5.1713,5.2294,5.2115,5.2318,5.2927,5.3297,5.377,5.4274,5.3902,5.3207,5.2435,5.1555,5.0547,4.9524,4.9899,4.9934,4.9443,4.9912,4.9984,4.9527,4.9509,4.9509,4.9509,4.9509,4.9509,4.9509,4.9509,4.9509,4.9509,4.9509,4.9509,4.9509,4.9509,4.9509,4.9509,4.9509,4.9509,4.9509,4.9509,4.9509,4.9509,4.9509,4.9509,4.9509,4.9509,4.9474,4.9424,4.9424,4.9409,4.9355,4.9046,4.8696,4.8287,4.785,4.7522,4.7431,4.6994,4.6908,4.721,4.7289,4.7125,4.6903,4.655,4.596,4.4693,4.2905,4.177,4.1652,4.1277,4.0653,4.0148,3.9867,3.9372,3.8523,3.8436,3.8384,3.7738,3.7749,3.7482,3.7551,3.728,3.6381,3.5653,3.5515,3.5057,5.9609,5.8575,5.8227,5.8139,5.8178,5.8449,5.9096,5.9919,6.048,6.0847,6.0731,5.9339,5.8584,5.8314,5.6786,5.6177,5.636,5.6139,5.6003,5.6033,5.6435,5.6751,5.702,5.7132,5.7339,5.739,5.6418,5.5274,5.3981,5.2663,5.23,5.2669,5.2719,5.2889,5.3297,5.3593,5.4016,5.4424,5.411,5.3464,5.2564,5.1767,5.0803,5.001,5.0501,5.0459,4.9562,5.0278,5.0316,4.9659,4.9753,4.9771,4.9546,4.9509,4.9509,4.9509,4.9509,4.9509,4.9509,4.9509,4.9509,4.9509,4.9509,4.9509,4.9509,4.9509,4.9509,4.9509,4.9509,4.9509,4.9509,4.9509,4.9509,4.9509,4.9509,4.9509,4.9509,4.9509,4.949,4.9474,4.9387,4.9337,4.9283,4.8789,4.8496,4.8421,4.7802,4.7735,4.811,4.8193,4.8144,4.8107,4.7755,4.694,4.5609,4.3719,4.2087,4.1745,4.0696,4.0263,4.0144,3.9921,3.9543,3.8688,3.8342,3.8347,3.8392,3.8437,3.8492,3.86,3.7968,3.705,3.6583,3.6292,3.5817,6.1002,6.0654,6.017,5.9513,5.9242,5.8797,5.9068,5.9629,5.9899,6.0325,6.0538,5.9319,5.87,5.8294,5.7114,5.665,5.7067,5.6515,5.6205,5.6293,5.6362,5.6817,5.7504,5.8113,5.8587,5.9051,5.788,5.6067,5.4211,5.3494,5.3072,5.2874,5.3027,5.3161,5.2853,5.3785,5.4448,5.4956,5.5076,5.4689,5.3926,5.3105,5.2005,5.0624,5.1025,5.0829,4.9661,5.0325,5.0363,4.9696,5.0253,5.0294,4.9743,4.9574,4.9505,4.949,4.9509,4.9509,4.9546,4.9546,4.9509,4.9602,4.9527,4.9509,4.9509,4.9509,4.9509,4.9509,4.9509,4.9509,4.9509,4.9509,4.9509,4.9509,4.9509,4.9509,4.9509,4.9509,4.9509,4.949,4.9474,4.949,4.9437,4.9131,4.8912,4.8802,4.8683,4.8525,4.8544,4.8481,4.8841,4.8693,4.8008,4.7062,4.5839,4.4544,4.3076,4.1739,4.028,3.936,3.9587,3.9511,3.9475,3.8842,3.8906,3.8915,3.8919,3.8922,3.8696,3.8611,3.8043,3.7719,3.7251,3.6854,3.6579,6.0422,5.9377,5.9106,5.8294,5.7443,5.8178,5.8468,5.8275,5.9339,5.9706,5.9435,5.9474,5.9184,5.8787,5.8584,5.8468,5.8159,5.7327,5.7211,5.7772,5.8333,5.8642,5.8874,5.872,5.8101,5.7192,5.6128,5.5573,5.5287,5.4621,5.4466,5.4882,5.4931,5.4851,5.4674,5.499,5.5209,5.5256,5.5798,5.5416,5.418,5.432,5.3632,5.2122,5.1632,5.1242,5.0932,5.0932,5.0489,4.9577,5.0432,5.0865,5.0544,5.0019,4.964,4.9521,4.9509,4.979,5.0185,4.9843,4.9787,5.0072,4.9828,4.9527,4.9509,4.9527,4.9527,4.9509,4.9509,4.9509,4.9509,4.9509,4.9509,4.9509,4.9509,4.9509,4.9509,4.9509,4.9509,4.9509,4.9509,4.9265,4.8795,4.8614,4.843,4.7961,4.7769,4.7651,4.7598,4.7682,4.745,4.7375,4.7007,4.6959,4.5975,4.4994,4.3844,4.2378,4.0806,3.9305,3.9305,3.9477,3.9383,3.9322,3.9371,3.9424,3.9418,3.9383,3.9184,3.9092,3.893,3.8418,3.7757,3.7362,3.711,6.0499,5.9532,5.9184,5.8275,5.7114,5.8197,5.8294,5.8023,5.9261,5.9745,5.9648,5.9764,5.9397,5.8778,5.8874,5.8816,5.8516,5.7695,5.7946,5.8739,5.841,5.8468,5.8468,5.8294,5.7849,5.6979,5.6128,5.5993,5.6418,5.5722,5.5664,5.6332,5.6167,5.6085,5.6145,5.5894,5.5649,5.5588,5.5991,5.5654,5.4704,5.4839,5.4416,5.3102,5.2199,5.1753,5.159,5.1157,5.0564,5.0003,5.0434,5.0735,5.0716,5.0247,5.0035,5.0236,5.0275,5.0454,5.0753,5.0417,5.0214,5.0532,5.0238,4.9959,4.994,4.994,4.9865,4.9565,4.9509,4.9509,4.9509,4.9509,4.9509,4.9509,4.9509,4.9509,4.9509,4.9509,4.9509,4.9509,4.9509,4.9189,4.8852,4.8307,4.8063,4.7519,4.7117,4.6866,4.6851,4.6843,4.6756,4.6725,4.6772,4.6592,4.6203,4.537,4.4516,4.313,4.1619,4.0211,3.9417,3.9733,3.9816,3.9634,3.9639,3.968,3.969,3.9885,3.985,3.9822,3.9639,3.9006,3.8354,3.7984,3.7736,6.106,6.0944,6.0151,5.9232,5.8468,5.8497,5.8458,5.8681,5.9397,5.9996,6.0344,6.0054,5.9339,5.8488,5.812,5.8255,5.8314,5.7714,5.8023,5.8468,5.7521,5.6457,5.6689,5.7222,5.7598,5.7811,5.7288,5.7048,5.6874,5.6235,5.6409,5.6854,5.6332,5.6371,5.6673,5.6351,5.5958,5.5931,5.6084,5.5775,5.4972,5.5058,5.4729,5.387,5.2992,5.241,5.2175,5.1288,5.0621,5.0405,5.0657,5.0765,5.0497,5.0352,5.0715,5.1126,5.1365,5.1199,5.1125,5.1033,5.0955,5.0798,5.0722,5.0664,5.0488,5.0325,5.0091,4.9584,4.9509,4.9546,4.9602,4.9659,4.9659,4.9584,4.9584,4.9509,4.9509,4.9509,4.9509,4.949,4.949,4.9377,4.9133,4.8514,4.8101,4.7856,4.7353,4.7072,4.6907,4.6806,4.6705,4.6596,4.6379,4.6161,4.5738,4.5611,4.4718,4.3469,4.2422,4.1742,4.049,4.0643,4.029,4.0104,4.0104,4.0067,4.0145,4.0459,4.0426,4.0204,3.9881,3.9424,3.8957,3.849,3.8272,6.075,6.0132,5.9281,5.8797,5.8507,5.7946,5.8043,5.8584,5.8836,5.8874,5.8681,5.9455,5.9126,5.7849,5.8758,5.9029,5.8468,5.7695,5.7434,5.7714,5.6699,5.6448,5.6854,5.7125,5.7048,5.6786,5.6592,5.6341,5.6321,5.6119,5.6158,5.6313,5.6177,5.6109,5.6263,5.6147,5.6003,5.6119,5.6641,5.6495,5.5896,5.6263,5.6545,5.6235,5.4851,5.41,5.3778,5.1915,5.1383,5.2267,5.2342,5.2331,5.2188,5.1698,5.1261,5.0918,5.0765,5.0882,5.128,5.1401,5.1345,5.1218,5.1054,5.0728,5.0076,4.9928,4.9727,4.9509,4.9509,4.9749,5.02,5.0366,5.0369,5.0316,5.0002,4.963,4.9509,4.9509,4.9509,4.9452,4.8983,4.8739,4.8551,4.8025,4.7481,4.7406,4.7218,4.6993,4.6922,4.6584,4.639,4.5861,4.5584,4.5484,4.5394,4.5402,4.4849,4.3673,4.3312,4.3715,4.2761,4.2422,4.1553,4.0698,4.1014,4.107,4.1126,4.1301,4.1014,4.0698,4.0269,3.9878,3.9202,3.8698,3.8669,6.0828,6.0325,5.9493,5.8941,5.8574,5.8043,5.8139,5.8613,5.8999,5.9106,5.9145,5.9899,5.9648,5.8546,5.9048,5.9087,5.8526,5.7695,5.7559,5.7733,5.6998,5.6661,5.6738,5.6738,5.6467,5.6081,5.6003,5.6003,5.6023,5.6003,5.6186,5.6467,5.6167,5.6177,5.6583,5.6167,5.6003,5.6081,5.6506,5.6467,5.61,5.6467,5.6661,5.6603,5.5741,5.52,5.4639,5.3625,5.3091,5.2876,5.2723,5.2877,5.3205,5.2819,5.2377,5.2066,5.2123,5.2227,5.2061,5.2157,5.1909,5.1525,5.1269,5.0989,5.0627,5.0367,5.0246,4.9843,4.9811,4.9967,5.0262,5.0625,5.0887,5.1012,5.0899,5.0444,4.9668,4.9509,4.9509,4.9377,4.9096,4.8739,4.872,4.7988,4.7594,4.7462,4.7274,4.7105,4.6955,4.6467,4.6204,4.6017,4.5585,4.5504,4.5602,4.5625,4.5783,4.4606,4.449,4.495,4.4367,4.3828,4.3091,4.2222,4.2166,4.2166,4.2333,4.2222,4.1683,4.1311,4.0828,4.0331,3.9715,3.9401,3.9322,6.1099,6.1021,6.0112,5.9367,5.8758,5.8458,5.8275,5.8739,5.9281,5.9938,6.046,6.0925,6.046,5.9861,5.9397,5.8855,5.8584,5.8101,5.8004,5.7907,5.7346,5.6708,5.6158,5.6158,5.6109,5.6003,5.6003,5.6003,5.6003,5.6003,5.639,5.6622,5.6263,5.6418,5.6641,5.6321,5.6042,5.6003,5.6061,5.6119,5.6003,5.6119,5.6255,5.6437,5.6351,5.5741,5.5393,5.5238,5.4978,5.2898,5.2674,5.3172,5.3702,5.3652,5.3779,5.4044,5.3844,5.3501,5.3109,5.2723,5.2441,5.1571,5.1377,5.1357,5.1154,5.0961,5.0683,5.0156,5.0195,5.0152,5.0333,5.0806,5.1374,5.1701,5.2219,5.1636,5.0392,4.9766,4.9695,4.9592,4.9589,4.9404,4.9152,4.8683,4.7988,4.7406,4.7274,4.7237,4.7012,4.6636,4.6749,4.7049,4.6467,4.5735,4.5814,4.5908,4.6123,4.5896,4.599,4.6075,4.5267,4.4743,4.4423,4.4076,4.3909,4.3801,4.3801,4.341,4.2705,4.2073,4.1683,4.1089,4.0535,4.0436,4.0367,6.1099,6.0983,5.9474,5.9165,5.9242,5.7501,5.7346,5.8584,5.8778,5.9068,5.9435,6.0499,6.0615,5.9899,6.0132,5.988,5.8787,5.8797,5.8836,5.7415,5.667,5.6255,5.6003,5.6003,5.6003,5.6003,5.6003,5.6031,5.6031,5.6061,5.6109,5.6235,5.6235,5.6109,5.6216,5.6177,5.6003,5.6003,5.6003,5.6003,5.6003,5.6031,5.6313,5.6844,5.696,5.6564,5.5954,5.5915,5.6042,5.6012,5.549,5.489,5.4677,5.4542,5.4387,5.3981,5.3362,5.2824,5.25,5.2533,5.205,5.1411,5.151,5.1439,5.0795,5.0645,5.044,5.0206,5.0214,5.0447,5.0885,5.1795,5.2162,5.2318,5.2544,5.2573,5.2037,5.1434,5.0962,5.0585,4.9726,4.8754,4.8593,4.8085,4.7619,4.7312,4.7293,4.735,4.7105,4.6768,4.7105,4.7519,4.6843,4.6167,4.6617,4.6711,4.6865,4.6967,4.7095,4.7074,4.628,4.592,4.5693,4.5611,4.5547,4.5454,4.5268,4.4599,4.3893,4.3225,4.2519,4.185,4.1386,4.1367,4.1516,6.1099,6.0963,5.9725,5.9242,5.899,5.7424,5.7134,5.7965,5.8438,5.8584,5.8952,6.0364,6.0634,5.9957,6.0286,5.9764,5.8836,5.8584,5.8197,5.7318,5.6777,5.6429,5.6003,5.6003,5.6003,5.6003,5.6003,5.6177,5.6409,5.6255,5.6244,5.6515,5.6235,5.6023,5.6003,5.6003,5.6003,5.6003,5.6003,5.6003,5.6003,5.6003,5.6418,5.7134,5.7338,5.7183,5.725,5.725,5.725,5.7164,5.6854,5.6448,5.5965,5.5586,5.5103,5.4677,5.431,5.3749,5.3594,5.3362,5.3103,5.2144,5.2091,5.1756,5.1296,5.0885,5.0558,5.0519,5.0567,5.0759,5.1162,5.1787,5.2258,5.2537,5.2846,5.3049,5.296,5.2475,5.2021,5.1751,5.118,5.0507,4.9781,4.8639,4.7989,4.8055,4.7078,4.7083,4.7162,4.6936,4.7331,4.7462,4.688,4.6711,4.7312,4.7612,4.7744,4.7785,4.7826,4.7732,4.7295,4.714,4.7095,4.6866,4.6599,4.6754,4.6513,4.5788,4.4896,4.4246,4.3485,4.2705,4.2222,4.2166,4.2463,6.1099,6.1021,6.0228,5.9386,5.8546,5.7656,5.7183,5.7222,5.8023,5.8275,5.872,6.019,6.0422,6.0035,6.0132,5.9648,5.8971,5.8081,5.7772,5.7985,5.7357,5.6874,5.639,5.6147,5.6003,5.6003,5.6003,5.6371,5.6622,5.6603,5.6641,5.7048,5.6622,5.6371,5.6255,5.6023,5.6003,5.6003,5.6003,5.6003,5.6003,5.6003,5.6399,5.6835,5.726,5.7531,5.8004,5.8333,5.8391,5.7589,5.7512,5.7415,5.7086,5.6506,5.6003,5.5915,5.5548,5.5045,5.4523,5.4407,5.402,5.3498,5.2879,5.2472,5.2244,5.186,5.1449,5.1109,5.1024,5.085,5.094,5.1594,5.1999,5.2318,5.2987,5.3478,5.3602,5.328,5.3053,5.2663,5.2257,5.1751,5.0937,4.9936,4.9309,4.8541,4.7518,4.6769,4.6826,4.6801,4.6947,4.7406,4.6936,4.7068,4.7669,4.7425,4.7687,4.765,4.7856,4.7736,4.7582,4.7352,4.714,4.7604,4.756,4.7547,4.7012,4.5897,4.521,4.4931,4.4228,4.3206,4.2927,4.2965,4.328,6.1099,6.1041,6.0228,5.9397,5.8526,5.7675,5.6893,5.6437,5.7211,5.7501,5.7753,5.93,6.0016,5.9977,6.0634,6.0731,6.0054,5.8816,5.841,5.8681,5.7965,5.7106,5.6912,5.6418,5.6119,5.6003,5.6003,5.6158,5.6506,5.6757,5.6932,5.7183,5.7106,5.7009,5.6777,5.6448,5.6263,5.6341,5.6302,5.6283,5.6283,5.6186,5.6109,5.6448,5.6874,5.7299,5.7802,5.8836,5.9281,5.8488,5.8391,5.7946,5.723,5.6409,5.6042,5.5896,5.5528,5.518,5.4929,5.4271,5.3807,5.3478,5.339,5.3304,5.3246,5.3072,5.2531,5.195,5.1389,5.0956,5.0937,5.1554,5.2015,5.2376,5.2782,5.3575,5.41,5.4174,5.3841,5.3346,5.3084,5.286,5.2102,5.1025,4.9843,4.865,4.727,4.6487,4.6221,4.6027,4.5834,4.6431,4.703,4.7425,4.7988,4.7387,4.7124,4.6861,4.6899,4.6899,4.6802,4.6851,4.6977,4.7214,4.7604,4.7709,4.695,4.6004,4.547,4.5157,4.4413,4.3596,4.3522,4.3485,4.3596,6.1099,6.1021,6.0248,5.9397,5.8526,5.7675,5.6796,5.6197,5.6912,5.7028,5.725,5.8372,5.8952,5.901,5.9957,6.046,5.9957,5.8197,5.7849,5.812,5.7686,5.7318,5.7299,5.6796,5.6738,5.6545,5.6283,5.6255,5.6603,5.6545,5.6932,5.7241,5.7318,5.7318,5.7404,5.7404,5.7269,5.7288,5.7288,5.7288,5.723,5.694,5.6525,5.6255,5.6437,5.6815,5.7415,5.7898,5.8333,5.7965,5.7927,5.7443,5.6805,5.6321,5.6003,5.5915,5.5625,5.5412,5.5412,5.4987,5.489,5.4774,5.4445,5.4194,5.4039,5.373,5.3312,5.284,5.2105,5.1583,5.1621,5.166,5.1525,5.1602,5.2008,5.2647,5.3304,5.3846,5.3864,5.3811,5.4246,5.4082,5.3485,5.2212,5.0516,4.8856,4.728,4.6534,4.6066,4.5639,4.5495,4.6087,4.686,4.7165,4.7542,4.7081,4.6591,4.6318,4.6285,4.6266,4.6246,4.6371,4.6394,4.651,4.6947,4.7476,4.7374,4.6597,4.6006,4.5305,4.4506,4.3893,4.3949,4.4005,4.4005,6.1002,6.0809,6.017,5.9493,5.8758,5.7714,5.6912,5.6495,5.7018,5.6815,5.6321,5.7733,5.8275,5.8159,5.9048,5.9822,5.9493,5.7385,5.7327,5.7598,5.7434,5.7318,5.728,5.7086,5.6874,5.6622,5.6341,5.6371,5.6661,5.6641,5.6777,5.7202,5.7424,5.7579,5.7714,5.8101,5.8526,5.8584,5.8584,5.8584,5.8391,5.7907,5.7269,5.6631,5.6515,5.6979,5.7617,5.8101,5.7888,5.7647,5.7454,5.7172,5.6235,5.6003,5.6003,5.6003,5.6003,5.6003,5.5973,5.5935,5.5741,5.5683,5.5335,5.5045,5.4542,5.402,5.3536,5.3556,5.2995,5.2453,5.2376,5.1892,5.1525,5.1293,5.137,5.1505,5.2279,5.2964,5.3633,5.4091,5.5122,5.5107,5.4378,5.3491,5.1818,5.0712,4.9133,4.7824,4.7244,4.6086,4.5879,4.6249,4.6673,4.6847,4.6896,4.6605,4.618,4.5873,4.5997,4.6153,4.6069,4.604,4.604,4.6058,4.6394,4.685,4.6975,4.6852,4.5813,4.4944,4.4411,4.4116,4.4042,4.4005,4.4005,6.0692,6.0035,5.9957,5.9822,5.9474,5.8023,5.726,5.7164,5.7241,5.6796,5.6216,5.7714,5.8477,5.8681,5.9261,5.9358,5.8883,5.8178,5.7888,5.812,5.7637,5.7318,5.7183,5.6457,5.6506,5.6506,5.6235,5.6031,5.6409,5.6835,5.7028,5.728,5.783,5.8352,5.8101,5.841,5.8584,5.8604,5.8662,5.8681,5.8642,5.8507,5.8333,5.8178,5.8139,5.812,5.8333,5.872,5.8681,5.757,5.8043,5.7559,5.636,5.6003,5.6003,5.6003,5.6003,5.6003,5.6003,5.6003,5.6003,5.6003,5.5818,5.547,5.4929,5.4233,5.3923,5.4581,5.3846,5.3382,5.3343,5.3169,5.2763,5.224,5.1854,5.1912,5.2268,5.2403,5.3033,5.3556,5.4349,5.5026,5.4981,5.413,5.3194,5.2157,5.1045,4.9701,4.8356,4.7184,4.6412,4.6813,4.6666,4.6744,4.6528,4.62,4.5904,4.5527,4.5691,4.5949,4.5751,4.5628,4.5698,4.5768,4.6027,4.6154,4.6258,4.5932,4.5183,4.473,4.4364,4.4166,4.4023,4.4005,4.4005,5.9764,5.9899,5.9899,5.9899,5.9745,5.8546,5.7753,5.7376,5.7299,5.7086,5.6874,5.7462,5.8352,5.9068,5.8855,5.9068,5.9339,5.8101,5.7791,5.8255,5.7733,5.7299,5.7222,5.6932,5.6738,5.6747,5.6719,5.6815,5.6796,5.6583,5.6564,5.6757,5.7424,5.7791,5.8043,5.8372,5.8855,5.9319,5.9725,5.9745,5.9455,5.9281,5.9087,5.8642,5.8623,5.8642,5.8778,5.8836,5.8894,5.8023,5.812,5.7579,5.6786,5.6313,5.6003,5.6003,5.6003,5.6003,5.6003,5.6003,5.6003,5.5984,5.5984,5.5818,5.5374,5.4735,5.4503,5.5374,5.4697,5.4291,5.4078,5.3749,5.3053,5.2569,5.248,5.2326,5.2326,5.226,5.255,5.3053,5.3556,5.4233,5.4832,5.4426,5.3741,5.3136,5.2194,5.1117,4.9682,4.8304,4.771,4.7453,4.7088,4.6674,4.632,4.5946,4.5726,4.5449,4.5392,4.5517,4.5295,4.5198,4.5324,4.523,4.519,4.5341,4.5509,4.5425,4.508,4.4736,4.4392,4.4197,4.402,4.4005,4.4005,5.8874,5.9242,5.9261,5.9493,5.9764,5.8739,5.8178,5.8023,5.8023,5.7849,5.7714,5.7927,5.87,5.9203,5.8662,5.901,6.0074,5.7559,5.7327,5.7656,5.7521,5.7144,5.7086,5.7086,5.7125,5.7617,5.726,5.7376,5.7385,5.7153,5.6824,5.6399,5.7462,5.754,5.7598,5.8159,5.8855,5.9339,6.0132,6.0112,5.9629,5.9745,5.9455,5.9145,5.8961,5.9019,5.9184,5.9319,5.9319,5.8836,5.8507,5.8159,5.7617,5.6912,5.6487,5.6371,5.6255,5.6003,5.6003,5.6003,5.6003,5.5945,5.578,5.5644,5.5818,5.52,5.4987,5.576,5.5161,5.4909,5.4909,5.4503,5.4,5.3498,5.308,5.2809,5.2589,5.2647,5.2724,5.313,5.3498,5.3498,5.3981,5.4252,5.4097,5.3884,5.3207,5.2376,5.1091,4.9614,4.894,4.8582,4.8227,4.7661,4.7087,4.6541,4.6042,4.5561,4.5542,4.5317,4.5213,4.5076,4.51,4.4903,4.4719,4.4724,4.5054,4.5071,4.5066,4.4651,4.4307,4.4157,4.4051,4.402,4.4005,5.8159,5.7492,5.7512,5.8468,5.9783,5.8101,5.8333,5.9455,5.959,5.9126,5.8662,5.93,5.9397,5.9116,5.9435,5.9358,5.8903,5.7714,5.7666,5.7318,5.668,5.7144,5.7299,5.7308,5.725,5.8275,5.812,5.8101,5.8372,5.8584,5.7946,5.7415,5.783,5.7772,5.7695,5.7927,5.8391,5.8855,5.9532,5.9571,5.9242,5.9377,5.9706,5.9783,5.9822,6.0132,6.0828,6.0712,6.0402,5.9803,5.9474,5.8952,5.8255,5.7454,5.7028,5.668,5.6274,5.6042,5.6003,5.6003,5.6003,5.5799,5.549,5.5277,5.5644,5.4407,5.4484,5.5432,5.4851,5.5064,5.5432,5.5722,5.4832,5.4407,5.3846,5.3556,5.3343,5.3188,5.3285,5.344,5.3498,5.3498,5.3498,5.3846,5.4368,5.4213,5.4,5.3188,5.2472,5.1207,5.0326,4.9795,4.9544,4.9061,4.845,4.7846,4.7099,4.6537,4.6308,4.5822,4.5389,4.5258,4.5404,4.5068,4.4976,4.4764,4.4546,4.4712,4.4724,4.4464,4.424,4.4177,4.4101,4.402,4.4005,5.6824,5.6515,5.6495,5.7811,5.9861,5.9184,5.9261,5.9822,5.9899,5.9745,5.9474,6.0712,6.0944,6.0441,6.0364,6.0499,6.0035,5.9281,5.8971,5.9029,5.9048,5.9029,5.8952,5.87,5.9048,5.9687,5.9319,5.9319,6.0093,5.9957,5.959,5.9087,5.8352,5.725,5.7056,5.7482,5.7772,5.8062,5.8604,5.8836,5.8816,5.8855,5.9339,5.988,5.9899,6.0325,6.0925,6.106,6.0905,6.0576,6.0151,5.9435,5.8642,5.7791,5.7144,5.6699,5.6216,5.6042,5.6003,5.6003,5.6003,5.5829,5.5335,5.4987,5.5393,5.4175,5.3826,5.4155,5.4368,5.4639,5.5103,5.5238,5.4948,5.4851,5.4658,5.4349,5.4116,5.3942,5.3865,5.402,5.373,5.3498,5.3498,5.3536,5.4097,5.4542,5.4329,5.4039,5.3343,5.2801,5.1912,5.1061,5.0751,5.0422,4.9842,4.9015,4.8137,4.7538,4.7028,4.6414,4.5886,4.6167,4.6167,4.5738,4.5392,4.5318,4.5104,4.4654,4.4454,4.4373,4.4348,4.4285,4.4177,4.4126,4.4113,5.6003,5.6003,5.6003,5.7192,5.901,5.9126,5.9435,5.988,5.9899,6.0074,6.0364,6.1737,6.2104,6.166,6.1814,6.1892,6.1679,6.1099,6.075,6.0654,6.0712,6.075,6.0344,6.0035,5.9957,6.0731,6.0422,6.0228,6.0905,6.106,6.046,5.959,5.8739,5.783,5.7211,5.7037,5.7318,5.7482,5.7791,5.7985,5.7869,5.8101,5.8352,5.9048,5.9223,5.9861,6.0518,6.0847,6.0905,6.0557,6.0112,5.9464,5.8642,5.7811,5.7037,5.6525,5.6139,5.6003,5.6003,5.6003,5.6003,5.5887,5.5606,5.5277,5.4967,5.4407,5.4252,5.4484,5.4271,5.4213,5.4967,5.5335,5.5412,5.5374,5.5354,5.5103,5.489,5.4716,5.46,5.4581,5.4349,5.4349,5.402,5.4097,5.431,5.4871,5.5084,5.4813,5.4291,5.3826,5.3498,5.2647,5.195,5.1621,5.1215,4.997,4.8763,4.7932,4.7399,4.6912,4.66,4.6833,4.7026,4.6839,4.6496,4.6115,4.5829,4.5595,4.5043,4.4463,4.4481,4.452,4.458,4.4547,4.4426,5.6003,5.6003,5.6003,5.6553,5.7434,5.7376,5.8333,5.9687,5.988,6.0286,6.1002,6.2008,6.2317,6.2317,6.2646,6.2936,6.2917,6.2472,6.222,6.2124,6.2162,6.1485,6.1099,6.0963,6.1118,6.0886,6.0576,6.0538,6.1215,6.1137,6.0654,6.0267,5.9725,5.9126,5.8488,5.7675,5.7338,5.7318,5.7376,5.6912,5.6689,5.7048,5.7424,5.7869,5.8314,5.9029,5.9783,6.0344,6.0306,5.9919,5.9803,5.9212,5.841,5.7714,5.7202,5.697,5.6321,5.6051,5.6051,5.6042,5.6081,5.6023,5.576,5.5722,5.5683,5.5258,5.4658,5.4677,5.4697,5.4948,5.5509,5.5838,5.5722,5.5818,5.578,5.5702,5.547,5.5374,5.5238,5.5161,5.549,5.5644,5.5122,5.4793,5.4813,5.5142,5.5625,5.549,5.4948,5.4581,5.4213,5.3401,5.255,5.2124,5.1525,5.05,4.9436,4.8527,4.7773,4.7231,4.7018,4.7109,4.7339,4.7659,4.7588,4.7206,4.6919,4.6632,4.6023,4.5434,4.487,4.4804,4.4916,4.5078,4.5103,5.6003,5.6003,5.6003,5.6158,5.6515,5.7086,5.7985,5.901,5.9667,6.0364,6.1157,6.2027,6.2027,6.1988,6.2511,6.3033,6.2955,6.3468,6.3265,6.3342,6.3806,6.4058,6.3536,6.2704,6.2665,6.2859,6.2066,6.106,6.1988,6.1427,6.106,6.0731,6.048,5.988,5.872,5.7811,5.7318,5.7192,5.6824,5.6283,5.607,5.6332,5.6719,5.7222,5.7617,5.8217,5.8971,5.9455,5.9397,5.9087,5.9048,5.8604,5.7927,5.726,5.7009,5.6641,5.6051,5.6321,5.6641,5.6815,5.6545,5.6293,5.6061,5.5877,5.5277,5.5026,5.4735,5.4542,5.4523,5.4677,5.4929,5.5142,5.5238,5.5818,5.5935,5.5935,5.5818,5.5838,5.5799,5.576,5.5935,5.5935,5.5606,5.5354,5.5335,5.5393,5.5818,5.5548,5.5045,5.4774,5.4426,5.3556,5.2782,5.2403,5.1803,5.0906,4.9939,4.8991,4.8179,4.7502,4.7405,4.7896,4.7944,4.8406,4.8409,4.8337,4.8165,4.7876,4.7125,4.6515,4.6299,4.5989,4.6071,4.6175,4.6147,5.6003,5.6003,5.6003,5.6003,5.6081,5.6603,5.7482,5.8662,5.9783,6.0634,6.1215,6.1988,6.2162,6.2046,6.2704,6.3284,6.34,6.4174,6.458,6.4706,6.5566,6.5354,6.4773,6.4145,6.342,6.3555,6.2472,6.1427,6.1737,6.135,6.1099,6.1041,6.106,6.0518,5.9455,5.8623,5.7811,5.754,5.694,5.6089,5.6003,5.6119,5.6302,5.6766,5.7172,5.7608,5.8081,5.8333,5.8438,5.8275,5.8043,5.7733,5.7164,5.6777,5.6545,5.6139,5.6061,5.6448,5.7009,5.7241,5.7056,5.7114,5.667,5.6051,5.5412,5.5335,5.5064,5.4755,5.431,5.46,5.5084,5.518,5.5393,5.5984,5.6003,5.6003,5.6003,5.6003,5.6003,5.6003,5.6003,5.6003,5.6003,5.5945,5.5838,5.5896,5.5984,5.5586,5.5219,5.5006,5.4755,5.402,5.3285,5.2898,5.2318,5.1447,5.048,4.9455,4.8933,4.8546,4.9243,4.9946,4.954,4.9301,4.9898,5.017,4.9644,4.9171,4.8929,4.8606,4.8307,4.7942,4.7477,4.7149,4.6956,5.6001,5.6001,5.6029,5.6104,5.6095,5.6438,5.7304,5.8709,6.0306,6.105,6.1253,6.2123,6.2343,6.2693,6.399,6.4415,6.4415,6.5199,6.5412,6.5606,6.5586,6.5286,6.4715,6.3952,6.3342,6.2472,6.164,6.1157,6.1137,6.0886,6.0886,6.0905,6.0654,6.0364,5.9783,5.8952,5.8275,5.7869,5.6863,5.6147,5.6003,5.5877,5.5973,5.6263,5.6592,5.6912,5.7346,5.7733,5.7714,5.7521,5.7222,5.6738,5.6332,5.6023,5.6003,5.6003,5.6003,5.6506,5.7144,5.7338,5.7772,5.7946,5.7791,5.699,5.6274,5.5896,5.5586,5.5567,5.5451,5.5644,5.5896,5.5857,5.5857,5.6003,5.6003,5.6003,5.6003,5.6003,5.6003,5.6003,5.6003,5.6003,5.6003,5.6003,5.5829,5.6003,5.6003,5.5945,5.5625,5.5412,5.5142,5.4755,5.4078,5.3517,5.2821,5.2124,5.1505,5.0635,5.0654,5.048,5.1273,5.1533,5.1146,5.1107,5.1892,5.1981,5.1365,5.12,5.1255,5.086,5.0139,4.9215,4.8535,4.7772,4.7498,5.6149,5.6258,5.6867,5.7139,5.7334,5.8443,5.8881,5.8804,5.9803,6.0861,6.2183,6.242,6.2641,6.2678,6.2503,6.299,6.3339,6.3607,6.398,6.4358,6.4917,6.4406,6.3903,6.3361,6.2714,6.2211,6.163,6.1059,6.0925,6.0634,6.0248,6.019,5.9803,5.9551,5.9087,5.8255,5.8275,5.7927,5.6728,5.6167,5.5741,5.5451,5.5586,5.5915,5.5722,5.6051,5.6534,5.6728,5.667,5.6525,5.639,5.6139,5.61,5.6003,5.6003,5.6003,5.6081,5.6371,5.7202,5.7888,5.8372,5.872,5.8816,5.8255,5.7327,5.6553,5.6244,5.6197,5.6186,5.6225,5.6061,5.6003,5.6003,5.6003,5.6003,5.6003,5.6003,5.6003,5.5965,5.5741,5.576,5.5548,5.5606,5.5664,5.5567,5.5829,5.5965,5.5887,5.5935,5.5702,5.547,5.5103,5.4503,5.3826,5.3575,5.2975,5.2472,5.1989,5.2105,5.195,5.1738,5.1931,5.226,5.2539,5.2743,5.2948,5.2973,5.2781,5.241,5.2245,5.1591,5.0532,4.9556,4.884,4.8421,5.6568,5.6386,5.6858,5.7271,5.7817,5.9083,5.9452,5.9437,6.0483,6.1874,6.3067,6.3184,6.3186,6.3254,6.3215,6.3442,6.3845,6.4526,6.4876,6.4955,6.4346,6.4505,6.4054,6.313,6.2618,6.217,6.1643,6.0976,6.0641,5.9889,5.9377,5.9339,5.8739,5.8671,5.8391,5.7946,5.7695,5.7288,5.6631,5.5973,5.549,5.5006,5.5122,5.5625,5.52,5.5316,5.5877,5.5984,5.6003,5.6003,5.6003,5.6003,5.6003,5.6003,5.6003,5.6003,5.6023,5.6467,5.7241,5.8101,5.8623,5.9116,5.9551,5.9242,5.8565,5.7791,5.7192,5.6766,5.6611,5.6457,5.6205,5.6003,5.6003,5.6003,5.6003,5.6003,5.6003,5.6003,5.578,5.547,5.5219,5.4948,5.4929,5.5064,5.5142,5.52,5.5258,5.5296,5.5567,5.5818,5.5644,5.5393,5.4716,5.4039,5.3846,5.371,5.3323,5.3227,5.3865,5.3556,5.2716,5.2666,5.3285,5.3312,5.3158,5.3451,5.3829,5.3458,5.3128,5.306,5.2909,5.1932,5.0894,4.9974,4.974,5.703,5.6375,5.6488,5.7244,5.7899,5.8944,5.9755,6.0527,6.1965,6.3116,6.3715,6.393,6.3919,6.3936,6.4224,6.4359,6.4549,6.4963,6.5074,6.606,6.5044,6.473,6.4327,6.3575,6.275,6.2309,6.1776,6.1029,6.0129,5.9587,5.9204,5.8697,5.8628,5.8609,5.8458,5.7714,5.7396,5.7183,5.6167,5.5238,5.5374,5.4832,5.4252,5.5528,5.5335,5.5026,5.5741,5.6003,5.6003,5.6003,5.6003,5.6003,5.6003,5.6003,5.6003,5.6003,5.6003,5.6332,5.7095,5.7965,5.8816,5.9386,5.9899,5.9957,5.9532,5.8584,5.783,5.7521,5.7404,5.6998,5.6719,5.6487,5.639,5.6158,5.6003,5.6003,5.6003,5.578,5.5258,5.489,5.4426,5.4194,5.4213,5.4349,5.4658,5.4581,5.4948,5.5064,5.5045,5.5567,5.578,5.5636,5.5238,5.4639,5.4194,5.4078,5.4039,5.4271,5.4793,5.4851,5.3826,5.3962,5.4426,5.4291,5.4116,5.431,5.4476,5.4259,5.4222,5.432,5.3996,5.3241,5.2272,5.1159,5.1003,5.6688,5.6652,5.7941,5.8977,5.9785,6.0657,6.1465,6.2335,6.2706,6.2984,6.3271,6.3773,6.4143,6.428,6.4456,6.4386,6.4108,6.4701,6.4324,6.4439,6.4283,6.4556,6.4237,6.3455,6.2854,6.2401,6.1873,6.1209,6.0721,6.0157,5.9646,5.952,5.9059,5.8537,5.8551,5.776,5.7287,5.7192,5.5954,5.5335,5.5664,5.4813,5.4213,5.5006,5.5026,5.489,5.547,5.6003,5.6003,5.6003,5.6003,5.6003,5.6003,5.6003,5.6003,5.6003,5.6003,5.6197,5.667,5.7637,5.8565,5.9281,5.9841,6.0499,6.0344,5.9261,5.8584,5.841,5.812,5.7695,5.726,5.7048,5.6815,5.6467,5.6061,5.6061,5.6023,5.5374,5.4774,5.4233,5.3691,5.3536,5.3536,5.3768,5.4039,5.46,5.5354,5.5548,5.4948,5.5103,5.578,5.5799,5.5868,5.5412,5.4813,5.4523,5.4523,5.4213,5.4368,5.4561,5.4755,5.4349,5.4097,5.4929,5.52,5.4697,5.4619,5.5423,5.5434,5.5309,5.4705,5.3783,5.3099,5.2107,5.2226,5.6929,5.6797,5.8047,5.9101,5.9941,6.0781,6.1621,6.2324,6.2422,6.2401,6.2588,6.3563,6.4219,6.4277,6.4297,6.4334,6.3902,6.4151,6.4484,6.4311,6.3887,6.4126,6.3867,6.3574,6.3566,6.3127,6.1981,6.1315,6.1275,5.9717,5.8895,5.9388,5.8807,5.848,5.8502,5.7889,5.7423,5.725,5.5962,5.5702,5.5877,5.4735,5.4445,5.5026,5.5142,5.5026,5.5432,5.6003,5.6003,5.6003,5.6003,5.6003,5.6003,5.6003,5.6003,5.6003,5.6003,5.6003,5.6399,5.7153,5.8217,5.8932,5.9706,6.0325,6.0963,6.0016,5.9648,5.9435,5.9203,5.8797,5.8178,5.7849,5.7811,5.7559,5.696,5.6603,5.5838,5.4909,5.4349,5.3846,5.3285,5.2801,5.2956,5.344,5.3768,5.4368,5.518,5.5567,5.5064,5.4851,5.547,5.5877,5.5915,5.5644,5.4929,5.4871,5.5084,5.4697,5.4078,5.4523,5.4813,5.4,5.3691,5.4329,5.4426,5.373,5.3981,5.5172,5.5793,5.562,5.4966,5.4187,5.3571,5.3128,5.3355,5.7246,5.6758,5.7558,5.8418,5.9258,6.0078,6.084,6.1465,6.1543,6.1465,6.1445,6.2793,6.3652,6.4101,6.4316,6.4687,6.4753,6.4352,6.4601,6.45,6.4371,6.4492,6.4414,6.416,6.3828,6.3429,6.2619,6.2034,6.1738,6.0314,5.955,5.9155,5.8771,5.8467,5.862,5.8331,5.7968,5.754,5.6756,5.6181,5.5449,5.4542,5.4851,5.5142,5.5296,5.5238,5.5644,5.5954,5.5954,5.6003,5.6003,5.6003,5.6003,5.6003,5.6003,5.6003,5.6003,5.6003,5.6225,5.6882,5.7772,5.8565,5.9397,6.0151,6.0789,6.0886,6.0518,6.0325,6.0093,5.9725,5.9106,5.8748,5.8729,5.8449,5.7753,5.7125,5.6012,5.4832,5.4213,5.3691,5.3072,5.2511,5.2724,5.3188,5.3788,5.4349,5.4716,5.4948,5.5122,5.518,5.549,5.5741,5.5799,5.5412,5.4929,5.5006,5.5238,5.46,5.4078,5.4658,5.489,5.4291,5.3768,5.344,5.3343,5.3489,5.3829,5.4787,5.5272,5.5806,5.5065,5.4371,5.4323,5.4024,5.4379,5.6758,5.668,5.7539,5.8379,5.9238,6.0039,6.0488,6.0625,6.0644,6.0312,6.0039,6.0098,6.1113,6.3281,6.4043,6.4238,6.3828,6.3867,6.3672,6.3417,6.4101,6.4687,6.4785,6.4199,6.3457,6.3359,6.3496,6.3379,6.2812,6.2109,6.1546,6.1069,6.0929,6.0682,6.0585,6.001,5.9043,5.8344,5.7441,5.6786,5.591,5.5197,5.4813,5.489,5.489,5.4909,5.5161,5.5683,5.5896,5.6003,5.6061,5.61,5.6139,5.6158,5.6128,5.6003,5.6003,5.6003,5.6274,5.6719,5.7482,5.8352,5.9203,6.0054,6.0615,6.1041,6.0828,6.0867,6.0634,6.0383,5.9899,5.9687,5.9571,5.8971,5.8314,5.783,5.7037,5.5741,5.4716,5.4058,5.3382,5.3072,5.3014,5.3614,5.4387,5.4871,5.5258,5.5374,5.4813,5.5103,5.5548,5.5644,5.576,5.5374,5.4967,5.4987,5.5006,5.4387,5.4155,5.4755,5.5006,5.4793,5.4349,5.3984,5.4119,5.442,5.4759,5.4694,5.5285,5.5692,5.5008,5.4525,5.4602,5.4611,5.4676]}]]